     2              OBSERVATION DATA    GPS                 RINEX VERSION / TYPE
teqc 2000Feb29 20010929 17:42:13UTC                         PGM / RUN BY / DATE
                                                            COMMENT
L2: 1 -> 1; 150 -> 5; 250 -> 9                              COMMENT
L2: 1 -> 1; 150 -> 5; 250 -> 9                              COMMENT
L2: 1 -> 1; 150 -> 5; 250 -> 9                              COMMENT
L2: 1 -> 1; 150 -> 5; 250 -> 9                              COMMENT
L2: 1 -> 1; 150 -> 5; 250 -> 9                              COMMENT
Original Marker Name: AMB1                                  COMMENT
Campaign Name: postHector                                   COMMENT
4-Character Station Name: AMB1                              COMMENT
6-Character Antenna Code: DMRCHT                            COMMENT
Vertical Measurement Point: BCR                             COMMENT
Vertical Offset to Rinex Ref. Point: 0.0348                 COMMENT
Radial Measurement Point: ECF                               COMMENT
Radial Offset to Rinex Ref. Point: 0.1897                   COMMENT
Antenna Height from Field Measurement: 0.8300 m             COMMENT
Additional Antenna Identification Info.:                    COMMENT
Turborogue and Ashtech Choke Ring                           COMMENT
Original XYZ: 0.0000 0.0000 0.0000                          COMMENT
New XYZ position is based on association with SCEC monument COMMENT
E1F2L3W6+0031. Position of that monument is believed to be  COMMENT
valid to within 1 m horizontally; vertical accuracy         COMMENT
should be no worse than 3-times this value.                 COMMENT
                                                            COMMENT
Revised Rinex header created by UCSD GPS archive for        COMMENT
GSAC on 03-Oct-2001 (2001:276) 15:59:42 GMT                 COMMENT
For assistance contact dagnew@ucsd.edu                      COMMENT
or anderson@python.ucsd.edu                                 COMMENT
                                                            COMMENT
AMBOY NO 1                                                  MARKER NAME
PFO SCRIPPS INSTITUTION OF OCEANOGRAPHY                     OBSERVER / AGENCY
LP01389 ASHTECH Z-XII3 CC00                                 REC # / TYPE / VERS
CR12738 DORNE-MARGOL. TYPE T                                ANT # / TYPE
 -2283901.1558 -4736604.5163  3597756.4974                  APPROX POSITION XYZ
        0.7732        0.0000        0.0000                  ANTENNA: DELTA H/E/N
     1     1     0                                          WAVELENGTH FACT L1/2
     7    C1    L1    L2    P1    P2    S1    S2            # / TYPES OF OBSERV
     0                                                      INTERVAL
  2001     9    24    16    44   30.000000                  TIME OF FIRST OBS
  2001     9    24    23    59   30.000000                  TIME OF LAST OBS
                                                            END OF HEADER
 01  9 24 16 44 30.0000000  0  2G 3G11
                    249218.65849    160349.86844                  24905482.468
       208.000         118.000
  23422030.422     -253780.53949   -175610.59746  23422030.616    23422040.192
       224.000         168.000
 01  9 24 16 45  0.0000000  0  2G 3G11
  24921292.704      332394.92249    225162.26445  24921294.497    24921310.866
       214.000         151.000
  23406060.860     -337697.72749   -241000.54746  23406060.941    23406071.035
       224.000         169.000
 01  9 24 16 45 30.0000000  0  3G 3G21G11
  24084149.064    -4066829.58149  -3202805.13545  24084149.720    24084167.921
       202.000         151.000
  20954612.290    -4414110.92949  -3449433.51247  20954611.724    20954622.536
       237.000         195.000
  22537181.987    -4903685.78749  -3798913.27146  22537181.124    22537192.061
       222.000         168.000
 01  9 24 16 46  0.0000000  0  4G 3G21G11G14
  24575625.410    -1484104.16948  -1190292.10545  24575624.020    24575640.879
       166.000         140.000
  21435436.972    -1887360.89249  -1480537.46247  21435436.286    21435446.900
       236.000         196.000
  22996995.472    -2487349.03749  -1916053.42246  22996995.421    22997005.527
       223.000         168.000
  20662005.582    -1865410.70949  -1459675.91947  20662005.261    20662012.999
       241.000         209.000
 01  9 24 16 46 30.0000000  0  5G 3G21G18G11G14
  24591316.247    -1401646.57349  -1126039.71144  24591315.367    24591335.173
       200.000         130.000
  21440529.266    -1860601.19549  -1459685.83847  21440528.771    21440539.547
       234.000         195.000
                   -232524.37249   -195688.73443
       213.000          74.000
  22981089.869    -2570933.39349  -1981184.04146  22981090.772    22981100.598
       222.000         169.000
  20669781.148    -1824554.52049  -1427839.99947  20669779.779    20669787.755
       241.000         209.000
 01  9 24 16 47  0.0000000  0  5G 3G21G18G11G14
  24607001.409    -1319221.76149  -1061812.90745  24607002.697    24607019.599
       208.000         141.000
  21445668.908    -1833590.75149  -1438638.82447  21445668.473    21445679.630
       236.000         195.000
                   -157416.60649   -318939.21943
       210.000          74.000
  22965246.844    -2654189.99549  -2046059.26546  22965247.130    22965256.808
       226.000         170.000
  20677617.441    -1783371.72049  -1395749.57347  20677616.654    20677624.816
       240.000         209.000
 01  9 24 16 47 30.0000000  0  5G 3G21G18G11G14
  24622671.369    -1236877.28449   -997648.66045  24622671.769    24622689.782
       208.000         146.000
  21450848.078    -1806373.85449  -1417430.94047  21450848.197    21450858.549
       236.000         194.000
                    -82228.46149   -260351.14043
       206.000          74.000
  22949458.301    -2737161.01349  -2110711.97146  22949458.650    22949468.895
       228.000         172.000
  20685507.327    -1741909.01349  -1363441.04447  20685507.041    20685515.070
       240.000         209.000
 01  9 24 16 48  0.0000000  0  5G 3G21G18G11G14
  24638327.795    -1154603.34549   -933539.39145  24638328.010    24638346.114
       209.000         147.000
  21456069.253    -1778936.76349  -1396051.48747  21456069.442    21456079.855
       237.000         195.000
                     -6947.56649   -201690.93944                  24471387.726
       205.000         112.000
  22933726.777    -2819831.62249  -2175130.57946  22933728.060    22933735.788
       229.000         172.000
  20693452.746    -1700155.63349  -1330906.01447  20693452.441    20693460.654
       240.000         209.000
 01  9 24 16 48 30.0000000  0  5G 3G21G18G11G14
  24653971.552    -1072396.26549   -869482.21745  24653971.631    24653989.888
       208.000         148.000
  21461333.690    -1751272.42549  -1374494.94647  21461333.678    21461344.286
       237.000         196.000
  24485712.454       68432.30549   -142953.63944  24485712.664    24485731.739
       204.000         130.000
  22918054.152    -2902193.31149  -2239308.46946  22918053.532    22918064.121
       228.000         175.000
  20701454.185    -1658107.70349  -1298141.46247  20701453.902    20701462.073
       240.000         208.000
 01  9 24 16 49  0.0000000  0  5G 3G21G18G11G14
  24669602.510     -990256.17849   -805477.26145  24669603.319    24669620.577
       213.000         155.000
  21466641.988    -1723377.84849  -1352759.00547  21466642.193    21466652.964
       238.000         196.000
  24500076.295      143914.18849    -84136.84644  24500076.260    24500095.808
       201.000         129.000
  22902441.117    -2984240.91949  -2303241.61646  22902440.131    22902451.034
       225.000         173.000
  20709511.934    -1615764.07549  -1265146.49947  20709511.903    20709519.830
       241.000         208.000
 01  9 24 16 49 30.0000000  0  5G 3G21G18G11G14
  24685220.816     -908183.25149   -741524.63945  24685223.735    24685240.671
       203.000         145.000
  21471994.710    -1695249.52049  -1330840.92247  21471994.358    21472005.610
       236.000         196.000
  24514460.241      219500.43249    -25238.74044  24514461.112    24514480.358
       197.000         129.000
  22886888.610    -3065969.35449  -2366926.05746  22886888.277    22886897.692
       227.000         174.000
  20717626.168    -1573123.92849  -1231920.47647  20717626.206    20717634.063
       240.000         209.000
 01  9 24 16 50  0.0000000  0  5G 3G21G18G11G14
  24700825.837     -826180.58249   -677626.60044  24700825.354    24700844.682
       195.000         126.000
  21477391.770    -1666887.69049  -1308740.90746  21477390.082    21477403.280
       219.000         186.000
  24528863.588      295189.02858     33739.00044  24528857.865    24528888.697
       170.000         117.000
  22871397.070    -3147377.66649  -2430361.08546  22871397.041    22871406.410
       229.000         170.000
  20725796.170    -1530190.54549  -1198465.91747  20725795.790    20725803.709
       230.000         202.000
 01  9 24 16 50 30.0000000  0  5G 3G21G18G11G14
  24716416.904     -744251.48249   -613785.72545  24716417.170    24716438.032
       210.000         139.000
  21482833.415    -1638292.01149  -1286458.63646  21482833.324    21482844.680
       238.000         187.000
  24543286.618      370981.59548     92797.99444                  24543290.024
       184.000         105.000
  22855967.060    -3228463.06349  -2493544.44546  22855966.244    22855975.824
       226.000         173.000
  20734021.623    -1486965.62349  -1164784.26247  20734021.436    20734029.627
       238.000         202.000
 01  9 24 16 51  0.0000000  0  5G 3G21G18G11G14
  24731993.536     -662396.03249   -550002.59645  24731992.138    24732011.983
       199.000         143.000
  21488320.446    -1609457.61949  -1263990.37546  21488320.905    21488331.105
       228.000         182.000
                    446881.83658    151940.73144
       185.000         105.000
  22840599.523    -3309219.78949  -2556471.71446  22840599.512    22840610.101
       227.000         175.000
  20742302.856    -1443447.72749  -1130874.27547  20742302.813    20742311.151
       238.000         203.000
 01  9 24 16 51 30.0000000  0  4G21G18G11G14
  21493852.613    -1580387.01549  -1241338.09047  21493852.496    21493863.310
       237.000         193.000
  24572193.484      522884.24849    211163.17244  24572194.334    24572211.570
       200.000         129.000
  22825294.371    -3389648.96049  -2619143.73246  22825294.927    22825303.839
       231.000         175.000
  20750638.895    -1399642.06949  -1096740.06747  20750638.512    20750647.001
       241.000         207.000
 01  9 24 16 52  0.0000000  0  4G21G18G11G14
  21499430.504    -1551074.97849  -1218497.60847  21499430.704    21499441.602
       238.000         194.000
  24586676.857      598993.61748    270468.70545  24586677.847    24586699.026
       180.000         132.000
  22810053.083    -3469742.99949  -2681554.59846  22810050.031    22810068.322
       204.000         169.000
  20759030.177    -1355545.76949  -1062379.39647  20759030.212    20759038.334
       242.000         207.000
 01  9 24 16 52 30.0000000  0  5G21G18G25G11G14
  21505054.765    -1521520.49949  -1195468.24947  21505054.750    21505066.384
       237.000         196.000
  24601181.291      675212.15448    329859.47144  24601181.357    24601198.987
       194.000         130.000
  21875754.019     -648657.22349   -488983.03047  21875754.001    21875764.551
       235.000         191.000
  22794876.050    -3549499.77449  -2743702.67846  22794875.166    22794885.653
       228.000         176.000
  20767476.590    -1311160.12849  -1027793.24647  20767476.775    20767484.937
       242.000         209.000
 01  9 24 16 53  0.0000000  0  5G21G18G25G11G14
  21510723.259    -1491732.63249  -1172257.02247  21510723.016    21510734.394
       236.000         195.000
  24615704.170      751528.80549    389326.73045  24615703.963    24615723.940
       199.000         132.000
  21860747.801     -727517.34249   -550432.39647  21860747.380    21860758.055
       236.000         191.000
  22779761.709    -3628926.84749  -2805593.86846  22779762.179    22779771.170
       225.000         169.000
  20775975.712    -1266497.61849   -992991.35547  20775975.681    20775983.720
       240.000         208.000
 01  9 24 16 53 30.0000000  0  5G21G18G25G11G14
  21516436.227    -1461711.55349  -1148864.08347  21516436.251    21516447.329
       235.000         194.000
  24630245.292      827942.83549    448869.83545  24630246.805    24630263.406
       199.000         133.000
  21845804.386     -806045.77549   -611623.31247  21845803.925    21845814.569
       236.000         192.000
  22764710.217    -3708022.26749  -2867226.62146  22764710.409    22764720.245
       229.000         175.000
  20784526.968    -1221560.66049   -957975.61247  20784526.841    20784535.243
       240.000         207.000
 01  9 24 16 54  0.0000000  0  5G21G18G25G11G14
  21522194.585    -1431451.52749  -1125284.95347  21522194.335    21522205.951
       234.000         193.000
  24644806.066      904459.01049    508492.53745  24644807.425    24644826.991
       198.000         136.000
  21830925.328     -884235.36349   -672550.18447  21830925.135    21830935.752
       236.000         192.000
  22749723.293    -3786778.92849  -2928595.40346  22749722.735    22749732.210
       227.000         176.000
  20793131.125    -1176345.96049   -922743.44447  20793131.305    20793139.277
       241.000         207.000
 01  9 24 16 54 30.0000000  0  5G21G18G25G11G14
  21527999.008    -1400949.42949  -1101517.19247  21527998.647    21528009.898
       234.000         193.000
  24659386.913      981080.09749    568196.98845  24659387.441    24659407.915
       198.000         137.000
  21816111.682     -962081.16949   -733209.18647  21816111.460    21816122.073
       235.000         192.000
  22734801.800    -3865191.69849  -2989696.22746  22734801.375    22734810.897
       228.000         176.000
  20801788.300    -1130852.94749   -887294.40947  20801788.352    20801796.656
       240.000         207.000
 01  9 24 16 55  0.0000000  0  5G29G21G25G11G14
  20408225.181     -429877.98549   -336595.92847  20408225.280    20408233.477
       242.000         211.000
  21533855.935    -1370171.61749  -1077534.58947  21533856.022    21533867.436
       235.000         193.000
  21801370.077    -1039548.46449   -793573.23047  21801369.766    21801380.470
       236.000         193.000
  22719952.368    -3943225.83649  -3050502.00946  22719953.284    22719960.842
       230.000         176.000
  20810504.199    -1085051.05449   -851604.69747  20810504.338    20810512.445
       241.000         207.000
 01  9 24 16 55 30.0000000  0  5G29G21G25G11G14
  20409546.800     -422933.06849   -331184.33647  20409546.795    20409555.232
       242.000         211.000
  21539755.870    -1339167.53549  -1053375.67047  21539755.907    21539767.550
       236.000         193.000
  21786691.440    -1116684.78649   -853679.37747  21786691.357    21786701.963
       235.000         193.000
  22705166.040    -4020928.75449  -3111049.68746  22705165.811    22705174.704
       227.000         177.000
  20819269.044    -1038991.69649   -815714.35847  20819268.860    20819277.338
       240.000         207.000
 01  9 24 16 56  0.0000000  0  5G29G21G25G11G14
  20410925.000     -415691.31349   -325541.45647  20410925.181    20410933.303
       242.000         211.000
  21545699.142    -1307936.60249  -1029039.99447  21545699.413    21545710.196
       235.000         194.000
  21772076.196    -1193488.01649   -913525.98147  21772076.055    21772086.877
       236.000         193.000
  22690443.174    -4098298.42849  -3171337.71946  22690442.763    22690451.438
       229.000         177.000
  20828082.441     -992677.29549   -779625.29047  20828082.489    20828090.511
       240.000         206.000
 01  9 24 16 56 30.0000000  0  5G29G21G25G11G14
  20412361.626     -408142.17149   -319659.04847  20412361.756    20412369.968
       242.000         211.000
  21551687.940    -1276465.56849  -1004517.21447  21551688.097    21551699.722
       235.000         193.000
  21757527.070    -1269944.01849   -973102.02347  21757526.678    21757537.646
       237.000         194.000
  22675786.332    -4175320.37849  -3231354.79046  22675786.180    22675794.324
       230.000         177.000
  20836946.359     -946097.58149   -743329.49247  20836946.122    20836954.567
       239.000         206.000
 01  9 24 16 57  0.0000000  0  5G29G21G25G11G14
  20413857.354     -400282.14749   -313534.39247  20413857.451    20413865.808
       243.000         211.000
  21557723.451    -1244749.52649   -979803.54047  21557723.459    21557734.577
       233.000         193.000
  21743045.407    -1346045.86449  -1032402.08247  21743045.353    21743055.521
       236.000         195.000
  22661196.941    -4251987.55749  -3291095.42346  22661196.450    22661206.162
       228.000         177.000
  20845861.220     -899249.81449   -706824.81947  20845861.051    20845869.479
       240.000         206.000
 01  9 24 16 57 30.0000000  0  5G29G21G25G11G14
  20415412.774     -392108.54449   -307165.39047  20415412.924    20415421.144
       243.000         211.000
  21563806.405    -1212783.22649   -954894.85047  21563806.517    21563817.784
       234.000         192.000
  21728632.273    -1421787.22049  -1091421.26047  21728632.231    21728642.995
       237.000         196.000
  22646676.365    -4328293.51749  -3350554.60146  22646675.883    22646685.631
       227.000         177.000
  20854827.613     -852131.73349   -670109.50847  20854827.513    20854835.784
       240.000         206.000
 01  9 24 16 58  0.0000000  0  5G29G21G25G11G14
  20417027.177     -383625.18949   -300555.02447  20417027.426    20417035.485
       243.000         211.000
  21569936.809    -1180568.95449   -929792.92447  21569937.033    21569948.133
       235.000         192.000
  21714287.665    -1497168.20649  -1150159.62147  21714287.162    21714297.849
       237.000         195.000
  22632224.368    -4404238.63649  -3409732.59146  22632224.357    22632234.009
       227.000         177.000
  20863844.566     -804747.73449   -633186.99047  20863844.641    20863852.814
       241.000         206.000
 01  9 24 16 58 30.0000000  0  5G29G21G25G11G14
  20418700.299     -374832.97049   -293703.97847  20418700.358    20418708.623
       242.000         211.000
  21576114.522    -1148105.43749   -904496.79547  21576114.916    21576126.011
       235.000         193.000
  21700012.149    -1572186.17149  -1208615.10447  21700012.064    21700022.436
       236.000         195.000
  22617841.666    -4479819.86249  -3468627.02546  22617841.334    22617851.852
       229.000         177.000
  20872911.942     -757099.08749   -596058.25247  20872911.984    20872920.086
       240.000         205.000
 01  9 24 16 59  0.0000000  0  5G29G21G25G11G14
  20420431.789     -365734.05949   -286613.95547  20420432.019    20420440.035
       242.000         211.000
  21582339.670    -1115392.92849   -879006.65547  21582339.627    21582351.014
       236.000         193.000
  21685806.039    -1646839.69649  -1266786.61847  21685806.279    21685816.676
       236.000         195.000
  22603528.549    -4555035.89349  -3527236.90146  22603528.853    22603539.156
       226.000         175.000
  20882029.075     -709188.84249   -558725.68047  20882028.972    20882037.312
       241.000         205.000
 01  9 24 16 59 30.0000000  0  5G29G21G25G11G14
  20422221.002     -356331.92149   -279287.65947  20422221.300    20422229.070
       243.000         210.000
  21588611.934    -1082432.62249   -853323.42247  21588612.365    21588623.330
       236.000         192.000
  21671669.234    -1721128.99549  -1324674.32147  21671669.236    21671679.921
       236.000         195.000
  22589284.981    -4629886.58649  -3585562.08346  22589284.963    22589295.695
       228.000         178.000
  20891195.292     -661020.70549   -521192.15147  20891195.486    20891203.409
       241.000         205.000
 01  9 24 17  0  0.0000000  0  5G29G21G25G11G14
  20424068.207     -346625.13649   -271723.97247  20424068.412    20424076.565
       243.000         210.000
  21594932.030    -1049221.22749   -827444.52647  21594932.319    21594943.246
       236.000         192.000
  21657602.636    -1795049.24649  -1382274.45747  21657602.554    21657613.379
       236.000         195.000
  22575111.896    -4704366.79749  -3643598.59446  22575111.376    22575121.337
       229.000         179.000
  20900410.633     -612593.93049   -483457.09247  20900410.687    20900418.965
       240.000         205.000
 01  9 24 17  0 30.0000000  0  5G29G21G25G11G14
  20425972.898     -336616.25149   -263924.87047  20425973.173    20425981.201
       243.000         211.000
  21601299.824    -1015759.25549   -801370.38347  21601299.701    21601311.004
       234.000         192.000
  21643606.573    -1868598.98249  -1439585.87747  21643606.443    21643616.993
       237.000         196.000
  22561009.431    -4778475.30549  -3701345.43846  22561009.018    22561018.940
       228.000         179.000
  20909674.622     -563911.60049   -445522.88947  20909674.574    20909682.767
       240.000         205.000
 01  9 24 17  1  0.0000000  0  6G29G31G21G25G11G14
  20427934.928     -326306.16249   -255891.07147  20427935.195    20427943.199
       243.000         211.000
                   -330286.90149   -271545.29643
       209.000          74.000
  21607715.366     -982045.37149   -775099.93647  21607715.650    21607727.161
       235.000         191.000
  21629681.446    -1941775.78149  -1496606.71047  21629681.143    21629691.654
       237.000         196.000
  22546978.129    -4852209.71249  -3758800.80046  22546977.412    22546988.377
       228.000         178.000
  20918987.007     -514975.06649   -407390.60547  20918986.937    20918995.512
       240.000         205.000
 01  9 24 17  1 30.0000000  0  6G29G31G21G25G11G14
  20429953.660     -315697.92449   -247624.94447  20429953.877    20429961.877
       242.000         210.000
                   -257419.63449   -214765.79844                  24317112.557
       206.000         126.000
  21614178.933     -948080.16349   -748633.65147  21614179.175    21614190.332
       234.000         191.000
  21615827.377    -2014579.12749  -1553336.52347  21615827.014    21615837.728
       236.000         196.000
  22533018.318    -4925569.19949  -3815964.03246  22533018.026    22533027.341
       229.000         178.000
  20928347.062     -465787.98849   -369063.09147  20928347.267    20928355.718
       241.000         205.000
 01  9 24 17  2  0.0000000  0  6G29G31G21G25G11G14
  20432028.243     -304796.18449   -239130.11847  20432028.291    20432036.411
       242.000         210.000
  24330986.906     -184430.43649   -157891.42145  24330986.479    24331001.765
       206.000         137.000
  21620689.541     -913867.00649   -721974.15147  21620689.528    21620700.760
       234.000         191.000
  21602044.181    -2087010.24049  -1609776.29047  21602044.236    21602054.707
       237.000         196.000
  22519129.663    -4998554.78349  -3872835.90046  22519129.931    22519139.007
       230.000         178.000
  20937753.855     -416355.54449   -330544.38247  20937753.825    20937761.983
       240.000         205.000
 01  9 24 17  2 30.0000000  0  6G29G31G21G25G11G14
  20434158.987     -293599.18549   -230405.22047  20434158.916    20434167.434
       243.000         210.000
  24344899.501     -111318.90449   -100921.68445  24344899.277    24344914.153
       207.000         139.000
  21627248.142     -879401.91149   -695118.34147  21627247.998    21627259.414
       234.000         191.000
  21588332.880    -2159063.69449  -1665921.78447  21588332.748    21588343.403
       238.000         197.000
  22505313.232    -5071160.98449  -3929412.14346  22505313.486    22505322.449
       230.000         179.000
  20947207.635     -366676.18749   -291833.27947  20947207.750    20947216.095
       241.000         205.000
 01  9 24 17  3  0.0000000  0  6G29G31G21G25G11G14
  20436345.882     -282107.06449   -221450.35647  20436346.022    20436354.623
       242.000         210.000
  24358835.127      -38087.14749    -43858.23045  24358835.669    24358850.552
       206.000         140.000
  21633855.083     -844682.71949   -668064.52647  21633854.824    21633866.634
       233.000         191.000
  21574693.943    -2230736.72049  -1721770.84147  21574693.750    21574704.433
       237.000         197.000
  22491569.614    -5143384.58349  -3985690.25646  22491569.830    22491579.112
       231.000         179.000
  20956708.213     -316750.98449   -252930.61047  20956708.263    20956716.603
       241.000         205.000
 01  9 24 17  3 30.0000000  0  6G29G31G21G25G11G14
  20438588.895     -270320.20349   -212265.82647  20438588.949    20438597.307
       243.000         210.000
  24372793.308       35263.03749     13297.48345  24372792.927    24372809.446
       207.000         142.000
  21640510.659     -809707.51549   -640811.21947  21640510.666    21640522.372
       234.000         191.000
  21561128.037    -2302026.03149  -1777320.90847  21561127.872    21561137.998
       238.000         197.000
  22477899.487    -5215222.03249  -4041667.45546  22477899.834    22477909.104
       231.000         180.000
  20966255.496     -266580.36149   -213836.69647  20966255.274    20966263.757
       240.000         204.000
 01  9 24 17  4  0.0000000  0  6G29G31G21G25G11G14
  20440887.999     -258238.60449   -202851.63247  20440888.268    20440896.390
       243.000         210.000
  24386773.688      108729.77049     70544.02745  24386772.998    24386789.137
       204.000         140.000
  21647215.459     -774474.53649   -613357.06247  21647215.794    21647227.367
       234.000         190.000
  21547635.747    -2372928.14449  -1832569.25447  21547635.622    21547645.840
       238.000         197.000
  22464303.488    -5286669.76549  -4097340.98246  22464303.556    22464312.803
       230.000         180.000
  20975849.333     -216164.83949   -174551.95747  20975849.202    20975857.637
       241.000         204.000
 01  9 24 17  4 30.0000000  0  6G29G31G21G25G11G14
  20443242.783     -245864.31849   -193209.37347  20443243.017    20443251.245
       243.000         210.000
  24400775.334      182309.33549    127878.49345  24400774.535    24400790.386
       203.000         140.000
  21653969.133     -738983.98149   -585702.17947  21653968.829    21653980.893
       233.000         189.000
  21534217.561    -2443441.27049  -1887514.50747  21534217.691    21534227.874
       239.000         198.000
  22450781.861    -5357726.13349  -4152709.55446  22450781.387    22450790.833
       230.000         179.000
  20985489.292     -165507.00249   -135078.39947  20985489.298    20985497.653
       241.000         204.000
 01  9 24 17  5  0.0000000  0  6G29G31G21G25G11G14
  20445653.384     -233196.83749   -183338.65147  20445653.649    20445661.710
       243.000         210.000
  24414798.517      256000.59249    185300.03745  24414798.557    24414814.345
       206.000         141.000
  21660772.231     -703233.59849   -557844.85047  21660772.139    21660783.142
       234.000         189.000
  21520874.141    -2513561.64549  -1942153.72247  21520874.199    21520884.302
       238.000         198.000
  22437335.404    -5428387.36549  -4207770.23146  22437334.826    22437344.405
       231.000         179.000
  20995175.347     -114606.83749    -95416.01947  20995175.383    20995183.886
       240.000         204.000
 01  9 24 17  5 30.0000000  0  6G29G31G21G25G11G14
  20448118.675     -220242.03649   -173244.04147  20448118.842    20448127.134
       243.000         210.000
  24428841.749      329795.89849    242802.61845  24428842.814    24428857.607
       204.000         141.000
  21667624.256     -667226.87849   -529787.77347  21667623.656    21667635.484
       234.000         188.000
  21507604.936    -2583291.85649  -1996488.90947  21507604.905    21507614.831
       239.000         199.000
  22423963.831    -5498655.57349  -4262524.64846  22423963.753    22423973.001
       232.000         180.000
  21004906.273      -63470.89749    -55569.91647  21004906.166    21004914.575
       240.000         204.000
 01  9 24 17  6  0.0000000  0  6G29G31G21G25G11G14
  20450638.486     -207000.73449   -162926.19147  20450638.777    20450646.909
       243.000         210.000
  24442904.166      403692.87949    300384.45045  24442905.269    24442919.458
       204.000         141.000
  21674525.241     -630962.36249   -501529.82047  21674525.388    21674536.698
       235.000         189.000
  21494410.419    -2652629.35849  -2050518.09747  21494410.229    21494420.763
       239.000         199.000
  22410667.538    -5568528.04549  -4316970.70546  22410667.118    22410677.362
       232.000         180.000
  21014681.824      -12100.44349    -15541.08047  21014681.769    21014690.346
       240.000         204.000
 01  9 24 17  6 30.0000000  0  6G29G31G21G25G11G14
  20453212.612     -193473.79849   -152385.76547  20453212.735    20453221.234
       243.000         210.000
  24456985.429      477689.11249    358043.59945  24456985.261    24457000.773
       197.000         138.000
  21681475.603     -594439.00349   -473070.15647  21681475.687    21681487.289
       235.000         189.000
  21481291.104    -2721571.80649  -2104239.44247  21481290.982    21481301.476
       239.000         199.000
  22397447.094    -5638001.96449  -4371106.19346  22397447.410    22397455.607
       233.000         181.000
  21024501.747       39503.28649     24669.53647  21024501.560    21024510.337
       240.000         203.000
 01  9 24 17  7  0.0000000  0  6G29G31G21G25G11G14
  20455841.202     -179660.57549   -141622.25947  20455841.376    20455849.680
       242.000         210.000
  24471085.166      551783.64548    415779.37045  24471085.520    24471100.546
       192.000         132.000
  21688475.523     -557654.41149   -444406.93547  21688475.331    21688487.203
       233.000         190.000
  21468247.765    -2790114.93949  -2157649.64347  21468247.581    21468257.889
       239.000         199.000
  22384303.356    -5707073.14249  -4424927.86346  22384303.909    22384313.021
       233.000         182.000
  21034366.160       91340.62849     65062.18447  21034366.111    21034374.480
       240.000         203.000
 01  9 24 17  7 30.0000000  0  6G29G31G21G25G11G14
  20458523.876     -165563.46649   -130637.55147  20458523.949    20458532.172
       242.000         210.000
  24485202.618      625972.26148    473588.40144  24485203.496    24485218.987
       190.000         129.000
  21695525.131     -520608.98149   -415540.48747  21695525.340    21695537.472
       233.000         189.000
  21455280.574    -2858257.69549  -2210747.86147  21455280.329    21455290.844
       240.000         200.000
  22371236.357    -5775740.63949  -4478434.99046  22371235.926    22371245.688
       233.000         182.000
  21044274.464      143408.63049    105634.56447  21044274.312    21044282.656
       240.000         203.000
 01  9 24 17  8  0.0000000  0  6G29G31G21G25G11G14
  20461260.450     -151182.87949   -119431.94547  20461260.394    20461268.808
       242.000         210.000
  24499337.453      700252.90858    531469.16544  24499335.653    24499352.296
       188.000         124.000
  21702624.870     -483300.54149   -386469.10047  21702624.576    21702636.140
       232.000         188.000
  21442390.184    -2925997.35849  -2263531.98347  21442390.392    21442400.477
       240.000         200.000
  22358246.843    -5844001.10749  -4531624.95146  22358246.818    22358255.659
       233.000         182.000
  21054226.482      195706.48449    146386.04947  21054226.372    21054234.911
       241.000         203.000
 01  9 24 17  8 30.0000000  0  6G29G31G21G25G11G14
  20464050.566     -136520.89449   -108007.06547  20464050.772    20464059.044
       243.000         210.000
  24513489.103      774622.00958    589418.85244  24513489.215    24513504.012
       182.000         118.000
  21709774.522     -445729.32349   -357192.96246  21709774.746    21709786.112
       232.000         187.000
  21429576.771    -2993332.27149  -2316000.71547  21429576.753    21429586.902
       240.000         201.000
  22345335.032    -5911852.89449  -4584496.46946  22345334.487    22345343.609
       232.000         182.000
  21064221.838      248231.75149    187314.73547  21064221.813    21064230.454
       241.000         203.000
 01  9 24 17  9  0.0000000  0  6G29G31G21G25G11G14
  20466893.827     -121579.99049    -96364.84947  20466893.944    20466902.326
       243.000         210.000
  24527657.221      849076.73558    647435.39944                  24527661.963
       180.000         104.000
  21716974.038     -407896.15749   -327712.70647  21716974.471    21716985.822
       233.000         188.000
  21416840.529    -3060261.68549  -2368153.47147  21416840.220    21416850.828
       240.000         201.000
  22332501.259    -5979294.88349  -4637048.65346  22332500.941    22332509.330
       231.000         181.000
  21074259.821      300981.40949    228418.27547  21074259.794    21074268.182
       240.000         203.000
 01  9 24 17  9 30.0000000  0  6G29G31G21G25G11G14
  20469789.712     -106362.15249    -84506.84147  20469789.610    20469798.089
       243.000         210.000
  24541840.985      923610.13248    705513.30144  24541842.236    24541861.025
       184.000         115.000
  21724223.418     -369800.98449   -298028.28847  21724223.153    21724234.842
       232.000         188.000
  21404181.541    -3126784.68249  -2419989.52847  21404181.483    21404191.792
       240.000         201.000
  22319745.696    -6046325.74149  -4689280.48246  22319745.792    22319754.510
       232.000         181.000
  21084340.051      353953.00549    269694.75747  21084339.685    21084348.691
       240.000         203.000
 01  9 24 17 10  0.0000000  0  6G29G31G21G25G11G14
  20472738.212      -90867.66449    -72433.25847  20472738.308    20472746.731
       242.000         209.000
  24556039.715      998222.90948    763652.84144  24556037.319    24556059.113
       192.000         119.000
  21731522.971     -331441.69249   -268138.06146  21731523.130    21731534.700
       233.000         187.000
  21391600.519    -3192897.96449  -2471506.32047  21391600.393    21391610.713
       240.000         201.000
  22307069.024    -6112942.37449  -4741189.52546  22307069.637    22307077.922
       233.000         181.000
  21094462.390      407146.17049    311143.88747  21094462.328    21094471.106
       240.000         203.000
 01  9 24 17 10 30.0000000  0  6G29G31G21G25G11G14
  20475739.037      -75098.43249    -60145.59347  20475739.051    20475747.417
       243.000         209.000
  24570253.082     1072911.04849    821851.11844  24570253.418    24570268.699
       200.000         124.000
  21738872.940     -292817.98149   -238041.78946  21738872.782    21738884.687
       233.000         187.000
  21379097.812    -3258600.12149  -2522702.76447  21379097.669    21379107.977
       240.000         201.000
  22294471.514    -6179142.86649  -4792774.31446  22294471.399    22294479.730
       232.000         181.000
  21104626.499      460558.31849    352763.65647  21104626.491    21104635.178
       240.000         202.000
 01  9 24 17 11  0.0000000  0  6G29G31G21G25G11G14
  20478791.967      -59055.72549    -47644.83447  20478792.227    20478800.267
       243.000         210.000
  24584479.747     1147671.43249    880105.77144  24584478.090    24584494.400
       197.000         126.000
  21746273.340     -253929.33949   -207739.07746  21746273.158    21746285.057
       232.000         187.000
  21366673.745    -3323888.91349  -2573577.10747  21366674.029    21366683.726
       240.000         201.000
  22281953.601    -6244925.05049  -4844033.13846  22281953.025    22281962.235
       232.000         182.000
  21114831.942      514187.74749    394552.72747  21114831.726    21114840.586
       240.000         202.000
 01  9 24 17 11 30.0000000  0  6G29G31G21G25G11G14
  20481897.138      -42738.15949    -34929.90147  20481897.058    20481905.450
       242.000         209.000
  24598720.211     1222503.58749    938416.30444  24598718.651    24598736.164
       198.000         124.000
  21753724.635     -214773.23949   -177227.96746  21753725.010    21753736.436
       232.000         187.000
  21354329.192    -3388760.03349  -2624125.99047  21354329.235    21354339.211
       241.000         202.000
  22269516.142    -6310284.07149  -4894962.23346  22269515.595    22269525.630
       232.000         182.000
  21125078.907      568035.47849    436511.90747  21125078.902    21125087.567
       240.000         202.000
 01  9 24 17 12  0.0000000  0  6G29G31G21G25G11G14
  20485053.772      -26149.95449    -22004.07147  20485053.812    20485062.180
       242.000         209.000
  24612973.070     1297401.90349    996778.42544  24612972.494    24612986.560
       203.000         122.000
  21761226.509     -175351.33949   -146509.74146  21761226.416    21761238.709
       231.000         186.000
  21342063.933    -3453214.49349  -2674350.20247  21342063.917    21342073.984
       241.000         202.000
  22257159.088    -6375220.50449  -4945562.04046  22257158.630    22257168.187
       233.000         183.000
  21135366.468      622096.83649    478637.54747  21135366.400    21135375.338
       240.000         202.000
 01  9 24 17 12 30.0000000  0  6G29G31G21G25G11G14
  20488262.126       -9290.58149     -8866.94747  20488262.371    20488270.701
       244.000         209.000
  24627238.845     1372365.40449   1055191.34044  24627239.227    24627251.966
       207.000         122.000
  21768779.381     -135660.82549   -115582.20246  21768779.657    21768791.485
       233.000         186.000
  21329878.727    -3517248.29249  -2724246.61847  21329878.702    21329888.934
       242.000         202.000
  22244883.249    -6439730.46549  -4995829.52246  22244883.568    22244892.440
       233.000         183.000
  21145694.809      676372.12949    520929.89447  21145695.000    21145703.530
       241.000         202.000
 01  9 24 17 13  0.0000000  0  6G29G31G21G25G11G14
  20491521.365        7836.57549      4478.83547  20491521.415    20491529.689
       243.000         209.000
  24641515.797     1447388.96149   1113651.06644  24641513.006    24641534.000
       207.000         122.000
  21776383.090      -95703.46049    -84446.71546  21776382.874    21776394.951
       233.000         186.000
  21317773.458    -3580861.69149  -2773815.44247  21317773.383    21317783.466
       240.000         202.000
  22232688.530    -6503813.94149  -5045764.66746  22232688.640    22232697.854
       233.000         183.000
  21156063.115      730857.33149    563385.80947  21156063.022    21156071.803
       240.000         202.000
 01  9 24 17 13 30.0000000  0  6G29G31G21G25G11G14
  20494831.582       25231.62549     18033.37147  20494831.663    20494840.333
       242.000         209.000
  24655803.557     1522471.60849   1172156.78344  24655801.594    24655823.654
       206.000         123.000
  21784038.052      -55477.27649    -53101.76946  21784037.984    21784049.805
       233.000         186.000
  21305748.909    -3644051.07049  -2823053.86447  21305748.767    21305758.824
       240.000         202.000
  22220575.766    -6567467.01049  -5095364.42846  22220576.035    22220584.463
       234.000         183.000
  21166471.367      785552.35449    606005.21847  21166471.307    21166480.236
       240.000         202.000
 01  9 24 17 14  0.0000000  0  6G29G31G21G25G11G14
  20498192.489       42893.02249     31795.45047  20498192.696    20498200.903
       243.000         209.000
  24670101.885     1597610.00249   1230705.91944  24670100.075    24670119.794
       207.000         120.000
  21791744.349      -14981.19849    -21546.50446  21791744.269    21791756.434
       233.000         186.000
  21293805.327    -3706814.96349  -2871960.74447  21293805.125    21293815.241
       240.000         202.000
  22208545.300    -6630687.99549  -5144627.50746  22208545.454    22208554.251
       234.000         184.000
  21176919.135      840455.30849    648786.64347  21176918.834    21176927.825
       240.000         201.000
 01  9 24 17 14 30.0000000  0  6G29G31G21G25G11G14
  20501604.298       60821.67349     45765.77447  20501604.515    20501612.587
       243.000         210.000
  24684410.650     1672803.02949   1289297.55044  24684412.377    24684426.533
       210.000         123.000
  21799502.399       25786.66449     10220.53246  21799502.149    21799514.131
       233.000         186.000
  21281943.400    -3769149.44249  -2920533.01447  21281943.177    21281953.356
       239.000         202.000
  22196597.762    -6693472.72149  -5193550.63746  22196597.016    22196607.409
       232.000         184.000
  21187406.549      895566.64249    691730.44647  21187406.294    21187415.199
       240.000         201.000
 01  9 24 17 15  0.0000000  0  6G29G31G21G25G11G14
  20505065.848       79012.11949     59940.09747  20505065.648    20505074.442
       242.000         209.000
  24698728.869     1748043.77649   1347926.41844  24698727.827    24698745.460
       210.000         126.000
  21807311.505       66823.43549     42197.10846  21807311.352    21807323.783
       232.000         185.000
  21270162.804    -3831056.62949  -2968772.32947  21270162.443    21270172.927
       240.000         202.000
  22184732.905    -6755822.88049  -5242135.16446  22184732.429    22184741.493
       232.000         184.000
  21197932.638      950880.68649    734832.20147  21197932.397    21197941.236
       240.000         201.000
 01  9 24 17 15 30.0000000  0  6G29G31G21G25G11G14
  20508577.229       97464.78449     74318.75347  20508577.327    20508585.680
       242.000         209.000
  24713055.675     1823331.24949   1406591.76644  24713054.608    24713075.356
       208.000         126.000
  21815172.071      108131.32049     74384.94346  21815172.750    21815184.176
       232.000         185.000
  21258464.194    -3892532.94849  -3016675.89247  21258463.732    21258474.377
       240.000         202.000
  22172951.449    -6817734.71249  -5290378.10946  22172950.286    22172960.027
       232.000         184.000
  21208497.159     1006397.40149    778091.89147  21208496.783    21208506.102
       240.000         201.000
 01  9 24 17 16  0.0000000  0  6G29G31G21G25G11G14
  20512138.604      116179.52349     88901.61847  20512138.952    20512146.948
       243.000         209.000
  24727390.998     1898663.68249   1465292.18044  24727393.592    24727408.459
       204.000         126.000
  21823084.734      149711.93649    106785.28946  21823084.903    21823096.850
       232.000         185.000
  21246848.117    -3953575.56249  -3064241.50547  21246847.703    21246858.055
       240.000         202.000
  22161253.942    -6879205.24649  -5338277.20246  22161253.733    22161262.545
       231.000         184.000
  21219100.177     1062116.16349    821509.01047  21219100.233    21219108.913
       240.000         201.000
 01  9 24 17 16 30.0000000  0  6G29G31G21G25G11G14
  20515749.422      135153.98449    103686.86047  20515749.502    20515757.996
       242.000         209.000
  24741734.161     1974037.24449   1524024.62344  24741734.763    24741749.530
       202.000         124.000
  21831049.232      191565.05149    139397.96446  21831048.919    21831061.505
       232.000         184.000
  21235314.730    -4014183.62849  -3111468.52247  21235314.568    21235324.714
       240.000         202.000
  22149640.721    -6940233.21149  -5385831.45346  22149640.793    22149649.398
       234.000         184.000
  21229741.223     1118034.51449    865081.66147  21229741.006    21229750.049
       239.000         201.000
 01  9 24 17 17  0.0000000  0  6G29G31G21G25G11G14
  20519409.215      154386.15049    118672.91747  20519409.219    20519417.519
       242.000         209.000
  24756084.844     2049448.10949   1582786.16444  24756085.019    24756098.945
       204.000         123.000
  21839065.574      233690.81549    172223.10346  21839065.460    21839077.846
       232.000         184.000
  21223864.285    -4074356.21149  -3158356.19947  21223864.205    21223874.237
       240.000         203.000
  22138112.037    -7000817.16649  -5433039.71946  22138112.154    22138120.571
       234.000         185.000
  21240419.682     1174149.91849    908807.85847  21240419.554    21240428.487
       240.000         200.000
 01  9 24 17 17 30.0000000  0  6G29G31G21G25G11G14
  20523117.880      173875.11449    133859.06847  20523118.101    20523126.435
       243.000         209.000
  24770442.091     2124893.71049   1641574.83044  24770441.060    24770458.168
       201.000         122.000
  21847134.091      276090.06749    205261.34746  21847134.523    21847146.092
       233.000         184.000
  21212497.162    -4134091.02949  -3204902.75947  21212497.094    21212507.316
       240.000         203.000
  22126668.288    -7060954.69049  -5479900.12246  22126668.566    22126676.873
       235.000         185.000
  21251135.462     1230461.13449    952686.62947  21251135.125    21251144.104
       240.000         200.000
 01  9 24 17 18  0.0000000  0  6G29G31G21G25G11G14
  20526875.164      193619.34349    149244.12647  20526875.250    20526883.565
       243.000         209.000
  24784805.039     2200371.24649   1700388.35444  24784803.937    24784822.656
       204.000         123.000
  21855254.644      318762.85849    238512.74146  21855254.732    21855266.785
       231.000         183.000
  21201213.631    -4193386.32549  -3251106.84147  21201213.325    21201223.533
       240.000         203.000
  22115309.875    -7120643.85449  -5526411.15146  22115309.400    22115318.553
       234.000         185.000
  21261888.126     1286966.38849    996716.59847  21261887.841    21261896.593
       239.000         200.000
 01  9 24 17 18 30.0000000  0  6G29G31G21G25G11G14
  20530681.011      213618.97149    164828.19247  20530681.265    20530689.456
       242.000         209.000
  24799173.958     2275879.15349   1759225.49544  24799173.619    24799191.034
       202.000         123.000
  21863427.628      361711.63549    271979.18246  21863427.434    21863439.773
       231.000         184.000
  21190014.275    -4252238.96849  -3296966.00847  21190014.009    21190024.116
       240.000         203.000
  22104037.325    -7179881.19249  -5572570.11146  22104036.694    22104045.630
       234.000         185.000
  21272677.673     1343665.58149   1040897.67847  21272677.642    21272686.331
       240.000         200.000
 01  9 24 17 19  0.0000000  0  6G29G31G21G25G11G14
  20534534.886      233871.03549    180608.97547  20534534.797    20534543.527
       242.000         209.000
  24813547.277     2351413.18349   1818083.03344  24813545.340    24813565.354
       200.000         125.000
  21871652.906      404935.65349    305660.09846  21871653.200    21871665.344
       232.000         183.000
  21178899.261    -4310648.63749  -3342479.98847  21178899.173    21178909.198
       241.000         203.000
  22092850.837    -7238666.42049  -5618376.75946  22092850.238    22092858.960
       233.000         185.000
  21283503.572     1400555.39949   1085227.30847  21283503.207    21283512.128
       239.000         200.000
 01  9 24 17 19 30.0000000  0  6G29G31G21G25G11G14
  20538436.707      254375.15849    196586.15747  20538436.716    20538445.273
       243.000         209.000
  24827925.455     2426971.13449   1876959.16144  24827925.095    24827943.227
       205.000         127.000
  21879930.937      448435.71749    339556.10546  21879930.649    21879943.054
       230.000         183.000
  21167868.957    -4368613.08149  -3387647.04447  21167868.999    21167878.608
       241.000         203.000
  22081750.867    -7296996.83849  -5663829.02346  22081750.093    22081759.353
       233.000         185.000
  21294365.406     1457634.88549   1129704.73047  21294365.288    21294374.239
       239.000         199.000
 01  9 24 17 20  0.0000000  0  6G29G31G21G25G11G14
  20542386.453      275130.84749    212759.36247  20542386.512    20542394.954
       241.000         209.000
  24842308.223     2502551.27449   1935852.65644  24842308.298    24842323.326
       205.000         129.000
  21888261.508      492213.37849    373668.43346  21888260.952    21888274.010
       231.000         182.000
  21156923.888    -4426129.72949  -3432465.16847  21156923.667    21156933.435
       242.000         203.000
  22070738.096    -7354869.40249  -5708924.51646  22070737.906    22070747.089
       233.000         185.000
  21305263.351     1514903.22949   1174329.30347  21305263.733    21305272.155
       239.000         199.000
 01  9 24 17 20 30.0000000  0  6G29G31G21G25G11G14
  20546383.305      296134.34349    229125.66447  20546383.345    20546392.107
       241.000         209.000
  24856694.109     2578148.08849   1994759.11944  24856695.907    24856710.775
       206.000         129.000
  21896644.751      536267.01549    407995.80046  21896644.798    21896656.949
       231.000         182.000
  21146063.879    -4483199.38949  -3476934.98547  21146063.535    21146073.634
       241.000         203.000
  22059812.371    -7412284.53749  -5753663.56446  22059812.000    22059821.463
       233.000         186.000
  21316196.441     1572356.53849   1219098.00947  21316196.174    21316205.356
       238.000         199.000
 01  9 24 17 21  0.0000000  0  6G29G31G21G25G11G14
  20550427.432      317386.14249    245685.44947  20550427.725    20550436.193
       241.000         209.000
  24871083.108     2653760.38549   2053677.62544  24871084.447    24871100.845
       206.000         131.000
  21905080.891      580598.38049    442539.57546  21905080.508    21905093.399
       230.000         182.000
  21135289.519    -4539818.61049  -3521053.81047  21135289.324    21135299.354
       241.000         203.000
  22048974.446    -7469238.55849  -5798043.30646  22048974.593    22048983.166
       234.000         186.000
  21327164.656     1629994.95649   1264010.95447  21327164.861    21327173.636
       239.000         199.000
 01  9 24 17 21 30.0000000  0  6G29G31G21G25G11G14
  20554518.376      338883.86149    262436.85747  20554518.423    20554527.056
       241.000         209.000
  24885474.020     2729384.42749   2112605.25344  24885473.885    24885490.116
       204.000         131.000
  21913569.920      625207.76949    477299.98346  21913569.731    21913582.273
       230.000         183.000
  21124601.077    -4595986.37449  -3564820.84647  21124600.883    21124610.936
       241.000         204.000
  22038224.449    -7525730.34849  -5842062.86746  22038224.365    22038233.026
       234.000         187.000
  21338167.802     1687815.97949   1309066.18347  21338167.544    21338176.710
       239.000         199.000
 01  9 24 17 22  0.0000000  0  6G29G31G21G25G11G14
  20558656.017      360626.98349    279379.48047  20558656.188    20558664.644
       241.000         209.000
  24899866.549     2805017.85849   2171540.21544  24899864.912    24899882.719
       203.000         128.000
  21922111.945      670096.46649    512278.02946  21922112.168    21922124.426
       230.000         182.000
  21113998.902    -4651701.09249  -3608234.86947  21113998.753    21114008.827
       241.000         204.000
  22027562.850    -7581757.35649  -5885720.26846  22027562.636    22027571.417
       235.000         186.000
  21349205.337     1745818.56749   1354262.89847  21349205.483    21349214.287
       239.000         198.000
 01  9 24 17 22 30.0000000  0  6G29G31G21G25G11G14
  20562839.934      382613.52149    296511.78847  20562840.122    20562848.665
       240.000         209.000
  24914260.521     2880657.43749   2230479.89044  24914261.186    24914277.617
       205.000         128.000
  21930707.134      715263.90649    547473.28446  21930707.937    21930719.646
       231.000         182.000
  21103483.196    -4706961.56449  -3651294.93047  21103482.903    21103492.936
       242.000         204.000
  22016989.926    -7637318.41049  -5929014.57946  22016989.285    22016998.242
       236.000         187.000
  21360277.169     1804000.65549   1399599.47947  21360277.148    21360286.062
       239.000         198.000
 01  9 24 17 23  0.0000000  0  5G29G21G25G11G14
  20567074.449      404865.55049    313850.96447  20567074.720    20567083.074
       241.000         209.000
  21939360.058      760734.05649    582904.40046  21939359.977    21939372.185
       231.000         181.000
  21093058.709    -4761742.56949  -3693981.39747  21093058.609    21093068.098
       242.000         204.000
  22006510.416    -7692388.08649  -5971926.00846  22006510.310    22006518.808
       236.000         187.000
  21371387.282     1862383.89349   1445092.80147  21371386.917    21371395.874
       238.000         198.000
 01  9 24 17 23 30.0000000  0  6G29G21G20G25G11G14
  20571350.384      427335.48949    331359.94447  20571350.450    20571359.030
       240.000         209.000
  21948061.776      806461.26649    618535.84146  21948061.393    21948073.785
       230.000         181.000
  24705543.735    -2878579.82949  -2223677.97945  24705543.518    24705556.667
       199.000         138.000
  21082716.909    -4816088.85149  -3736329.10447  21082716.669    21082726.529
       241.000         204.000
  21996116.044    -7747010.84649  -6014489.19647  21996116.086    21996124.889
       236.000         188.000
  21382526.362     1920920.35049   1490705.52047  21382526.095    21382535.056
       238.000         198.000
 01  9 24 17 24  0.0000000  0  6G29G21G20G25G11G14
  20575671.197      450041.44549    349052.82347  20575671.299    20575679.896
       240.000         208.000
  21956815.997      852465.27149    654382.94846  21956815.843    21956829.138
       230.000         182.000
  24688864.274    -2966231.19549  -2291977.82245  24688864.655    24688878.989
       202.000         141.000
  21072461.878    -4869979.23549  -3778321.58147  21072461.848    21072471.496
       242.000         204.000
  21985810.866    -7801165.30849  -6056687.48147  21985811.140    21985819.653
       236.000         188.000
  21393698.134     1979627.96849   1536451.59047  21393698.041    21393707.304
       238.000         198.000
 01  9 24 17 24 30.0000000  0  6G29G21G20G25G11G14
  20580037.632      472986.92849    366932.36047  20580037.776    20580046.660
       240.000         208.000
  21965624.174      898751.66549    690450.09846  21965624.345    21965637.292
       231.000         182.000
  24672176.380    -3053927.23649  -2360312.45745  24672176.048    24672190.680
       202.000         141.000
  21062294.796    -4923407.30049  -3819953.78847  21062294.777    21062304.533
       242.000         204.000
  21975596.089    -7854844.70849  -6098515.58047  21975595.892    21975604.546
       236.000         189.000
  21404903.065     2038510.01949   1582333.60347  21404903.054    21404912.043
       238.000         198.000
 01  9 24 17 25  0.0000000  0  6G29G21G20G25G11G14
  20584449.556      496171.56449    384998.26047  20584449.642    20584458.488
       240.000         208.000
  21974486.345      945321.75149    726738.31946  21974486.060    21974499.019
       231.000         182.000
  24655480.047    -3141666.41949  -2428680.65245  24655478.657    24655494.320
       200.000         139.000
  21052216.094    -4976371.11749  -3861224.24947  21052215.904    21052225.798
       242.000         205.000
  21965472.243    -7908046.10349  -6139971.20547  21965472.110    21965480.571
       236.000         189.000
  21416141.070     2097565.79749   1628350.98147  21416140.924    21416150.358
       238.000         197.000
 01  9 24 17 25 30.0000000  0  6G29G21G20G25G11G14
  20588906.493      519592.93449    403248.61347  20588906.597    20588915.322
       240.000         208.000
  21983402.279      992174.57449    763246.84846  21983402.397    21983414.816
       230.000         180.000
  24638775.137    -3229449.15049  -2497082.80845  24638773.592    24638791.053
       202.000         141.000
  21042225.878    -5028869.96549  -3902132.39947  21042225.800    21042235.567
       241.000         205.000
  21955439.384    -7960769.21749  -6181054.15547  21955439.166    21955448.138
       236.000         189.000
  21427411.622     2156792.55449   1674501.58147  21427411.322    21427421.232
       237.000         197.000
 01  9 24 17 26  0.0000000  0  6G29G21G20G25G11G14
  20593408.210      543249.48349    421682.22247  20593408.190    20593417.119
       241.000         208.000
  21992372.205     1039311.10449    799976.44246  21992372.877    21992385.364
       229.000         179.000
  24622062.328    -3317274.89949  -2565518.48045  24622062.771    24622075.924
       203.000         141.000
  21032324.325    -5080902.78749  -3942677.40947  21032324.255    21032334.155
       242.000         205.000
  21945497.830    -8013012.21449  -6221762.98347  21945497.508    21945506.670
       237.000         189.000
  21438714.292     2216188.54749   1720784.05447  21438714.487    21438723.890
       239.000         197.000
 01  9 24 17 26 30.0000000  0  6G29G21G20G25G11G14
  20597954.699      567141.43349    440299.26247  20597954.783    20597963.573
       240.000         208.000
  22001396.271     1086732.44049    836927.97246  22001396.540    22001409.526
       229.000         179.000
  24605341.780    -3405141.67349  -2633986.12445  24605341.037    24605355.249
       206.000         140.000
  21022511.995    -5132466.72549  -3982857.05547  21022511.658    21022521.770
       242.000         205.000
  21935648.271    -8064771.74349  -6262095.09047  21935648.037    21935656.923
       237.000         190.000
  21450049.299     2275753.81349   1767198.42547  21450049.430    21450058.430
       238.000         197.000
 01  9 24 17 27  0.0000000  0  6G29G21G20G25G11G14
  20602545.487      591265.69549    459097.32647  20602545.804    20602554.351
       240.000         208.000
  22010474.444     1134437.83749    874100.84846  22010474.765    22010487.604
       229.000         179.000
  24588613.393    -3493050.32249  -2702486.40445  24588614.147    24588625.462
       208.000         141.000
  21012788.891    -5183561.88749  -4022671.41347  21012788.819    21012798.523
       242.000         205.000
  21925890.766    -8116047.82149  -6302050.48447  21925890.482    21925899.789
       236.000         189.000
  21461415.885     2335485.03549   1813742.12347  21461415.701    21461425.413
       238.000         196.000
 01  9 24 17 27 30.0000000  0  6G29G21G20G25G11G14
  20607180.094      615620.36749    478074.93547  20607180.296    20607188.982
       241.000         208.000
  22019606.605     1182427.29449    911495.08946  22019605.664    22019620.101
       228.000         180.000
  24571877.035    -3581000.98049  -2771019.49345  24571876.734    24571890.397
       208.000         142.000
  21003155.200    -5234187.13449  -4062119.60847  21003155.078    21003164.670
       242.000         206.000
  21916225.462    -8166839.10149  -6341628.11447  21916225.143    21916234.157
       236.000         189.000
  21472813.669     2395379.97949   1860413.39147  21472813.241    21472822.936
       238.000         196.000
 01  9 24 17 28  0.0000000  0  6G29G21G20G25G11G14
  20611858.444      640204.92449    497231.67447  20611858.737    20611867.268
       240.000         208.000
  22028793.113     1230701.82349    949111.44546  22028793.224    22028806.454
       228.000         180.000
  24555132.733    -3668992.03949  -2839584.04345  24555132.605    24555147.218
       207.000         142.000
  20993611.213    -5284340.83349  -4101200.36747  20993611.155    20993620.760
       242.000         206.000
  21906652.852    -8217143.53449  -6380826.37247  21906652.530    21906661.387
       236.000         189.000
  21484242.410     2455437.98049   1907211.72347  21484242.199    21484251.963
       237.000         196.000
 01  9 24 17 28 30.0000000  0  6G29G21G20G25G11G14
  20616580.017      665016.52249    516565.32247  20616580.408    20616589.015
       241.000         208.000
  22038033.696     1279260.26849    986949.03346  22038034.146    22038046.500
       228.000         179.000
  24538380.859    -3757024.07249  -2908180.46645  24538380.383    24538394.499
       210.000         144.000
  20984157.114    -5334022.74349  -4139913.50047  20984157.170    20984166.890
       243.000         206.000
  21897173.039    -8266960.54149  -6419644.83047  21897172.733    21897182.092
       236.000         189.000
  21495701.580     2515655.99049   1954134.73347  21495701.735    21495711.328
       237.000         196.000
 01  9 24 17 29  0.0000000  0  6G29G21G20G25G11G14
  20621344.419      690052.96349    536074.17847  20621344.710    20621353.405
       240.000         208.000
  22047328.107     1328101.82649   1025007.22546  22047327.803    22047341.003
       228.000         179.000
  24521621.323    -3845097.38549  -2976809.02345  24521621.954    24521636.646
       213.000         146.000
  20974792.777    -5383232.65049  -4178258.84147  20974792.703    20974802.264
       243.000         207.000
  21887786.091    -8316289.25849  -6458082.79347  21887785.931    21887794.583
       236.000         189.000
  21507190.764     2576031.44549   2001180.42947  21507190.532    21507200.486
       237.000         195.000
 01  9 24 17 29 30.0000000  0  6G29G21G20G25G11G14
  20626152.356      715318.44849    555761.50947  20626152.572    20626161.471
       240.000         208.000
  22056677.422     1377232.54049   1063290.74746  22056677.610    22056689.867
       228.000         179.000
  24504855.229    -3933205.85549  -3045465.03345  24504855.881    24504868.167
       216.000         145.000
  20965519.560    -5431963.67049  -4216231.03547  20965519.463    20965528.928
       243.000         207.000
  21878493.367    -8365122.83549  -6496134.94547  21878493.534    21878502.407
       237.000         190.000
  21518710.570     2636568.19849   2048351.80947  21518710.537    21518720.254
       237.000         195.000
 01  9 24 17 30  0.0000000  0  6G29G21G20G25G11G14
  20631002.978      740808.34949    575623.71047  20631003.184    20631011.712
       240.000         208.000
  22066081.432     1426649.98749   1101797.68546  22066080.930    22066094.864
       228.000         179.000
  24488081.715    -4021351.83649  -3114150.16645  24488081.174    24488095.150
       214.000         145.000
  20956337.056    -5480217.97949  -4253831.76447  20956336.910    20956346.493
       243.000         207.000
  21869294.640    -8413462.62949  -6533802.33047  21869294.343    21869303.744
       237.000         191.000
  21530260.258     2697261.62649   2095645.27647  21530259.861    21530269.968
       237.000         195.000
 01  9 24 17 30 30.0000000  0  6G29G21G20G25G11G14
  20635895.645      766519.38049    595658.21747  20635895.737    20635904.266
       240.000         207.000
  22075539.641     1476352.62149   1140526.84546  22075539.742    22075552.858
       228.000         178.000
  24471300.657    -4109536.95849  -3182865.80845  24471300.141    24471315.666
       215.000         144.000
  20947245.161    -5527996.24649  -4291061.55547  20947244.954    20947254.476
       244.000         207.000
  21860189.828    -8461308.95549  -6571085.19947  21860189.766    21860198.877
       236.000         191.000
  21541839.049     2758108.31549   2143058.16847  21541839.075    21541848.480
       237.000         195.000
 01  9 24 17 31  0.0000000  0  6G29G21G20G25G11G14
  20640830.877      792454.02849    615866.97247  20640830.920    20640839.661
       240.000         207.000
  22085052.827     1526344.09349   1179481.07446  22085053.236    22085066.262
       227.000         177.000
  24454512.776    -4197756.57349  -3251608.34245  24454512.094    24454526.302
       213.000         144.000
  20938244.821    -5575293.22149  -4327916.30547  20938244.645    20938254.248
       243.000         207.000
  21851179.900    -8508656.51849  -6607979.41647  21851179.983    21851189.059
       236.000         190.000
  21553447.475     2819110.26949   2190592.04647  21553447.819    21553456.504
       237.000         194.000
 01  9 24 17 31 30.0000000  0  6G29G21G20G25G11G14
  20645808.014      818608.77349    636247.23347  20645808.254    20645816.998
       240.000         207.000
  22094620.664     1576622.76349   1218659.10246  22094620.123    22094633.437
       227.000         176.000
  24437718.200    -4286011.95449  -3320378.76545  24437717.720    24437733.741
       216.000         145.000
  20929335.925    -5622109.82149  -4364396.73647  20929335.832    20929345.479
       243.000         208.000
  21842264.814    -8555505.68349  -6644485.27247  21842264.635    21842273.732
       237.000         190.000
  21565084.787     2880264.00449   2238244.19447  21565084.832    21565094.014
       237.000         194.000
 01  9 24 17 32  0.0000000  0  6G29G21G20G25G11G14
  20650826.925      844982.96149    656798.49147  20650827.050    20650835.909
       240.000         207.000
  22104243.354     1627189.56949   1258061.65246  22104242.891    22104255.863
       227.000         176.000
  24420917.246    -4374302.11949  -3389176.39345  24420917.621    24420932.669
       216.000         146.000
  20920518.766    -5668444.31349  -4400501.50647  20920518.576    20920528.216
       243.000         207.000
  21833444.974    -8601854.53749  -6680601.27047  21833444.891    21833453.617
       238.000         190.000
  21576750.768     2941568.32449   2286013.68247  21576750.926    21576760.397
       238.000         194.000
 01  9 24 17 32 30.0000000  0  6G29G21G20G25G11G14
  20655887.199      871574.58149    677519.17547  20655887.037    20655896.045
       240.000         207.000
  22113920.660     1678043.90649   1297688.23746  22113920.431    22113934.342
       227.000         177.000
  24404109.837    -4462626.61049  -3458000.80845  24404110.536    24404123.856
       217.000         143.000
  20911793.426    -5714296.06449  -4436230.11247  20911793.267    20911802.777
       243.000         207.000
  21824720.547    -8647701.85849  -6716326.46447  21824720.450    21824729.358
       237.000         189.000
  21588445.025     3003021.40049   2333899.07547  21588445.530    21588454.524
       238.000         194.000
 01  9 24 17 33  0.0000000  0  6G29G21G20G25G11G14
  20660988.814      898383.47149    698409.15647  20660989.115    20660997.851
       241.000         207.000
  22123653.174     1729187.83549   1337540.47846  22123652.534    22123666.748
       227.000         177.000
  24387296.300    -4550983.61349  -3526850.45345  24387297.126    24387309.630
       217.000         144.000
  20903160.409    -5759662.72349  -4471580.72947  20903159.963    20903169.778
       243.000         207.000
  21816091.976    -8693045.40549  -6751659.10647  21816091.944    21816100.783
       236.000         190.000
  21600167.503     3064622.58949   2381899.87047  21600167.535    21600176.947
       237.000         194.000
 01  9 24 17 33 30.0000000  0  6G29G21G20G25G11G14
  20666131.332      925406.98749    719466.38047  20666131.635    20666140.376
       240.000         207.000
  22133440.512     1780619.94949   1377617.27246  22133440.698    22133453.391
       226.000         177.000
  24370476.452    -4639373.59249  -3595725.71445  24370475.621    24370489.260
       216.000         145.000
  20894619.665    -5804544.50049  -4506553.51247  20894619.446    20894629.251
       243.000         207.000
  21807559.340    -8737884.56049  -6786598.71047  21807558.921    21807568.209
       236.000         190.000
  21611917.571     3126369.24349   2430014.02347  21611917.241    21611927.005
       238.000         194.000
 01  9 24 17 34  0.0000000  0  6G29G21G20G25G11G14
  20671314.734      952645.61549    740691.22147  20671314.866    20671323.885
       241.000         207.000
  22143283.043     1832342.23149   1417920.18346  22143283.634    22143296.574
       227.000         177.000
  24353650.512    -4727793.90649  -3664624.60145  24353649.020    24353664.678
       213.000         145.000
  20886171.676    -5848938.77449  -4541146.42247  20886171.504    20886181.130
       243.000         207.000
  21799123.220    -8782216.14349  -6821142.80247  21799123.001    21799132.600
       236.000         189.000
  21623695.538     3188261.66249   2478241.75147  21623695.457    21623704.919
       237.000         194.000
 01  9 24 17 34 30.0000000  0  6G29G21G20G25G11G14
  20676538.591      980096.91849    762081.78747  20676538.750    20676547.621
       240.000         207.000
  22153180.756     1884353.80949   1458448.51146  22153180.382    22153193.441
       227.000         177.000
  24336818.750    -4816244.99749  -3733547.42145  24336818.071    24336831.898
       216.000         145.000
  20877816.536    -5892845.22549  -4575359.21147  20877816.378    20877825.768
       243.000         208.000
  21790783.747    -8826039.78349  -6855291.10347  21790783.614    21790792.654
       236.000         189.000
  21635500.581     3250297.04049   2526580.88847  21635500.475    21635510.521
       237.000         193.000
 01  9 24 17 35  0.0000000  0  6G29G21G20G25G11G14
  20681802.910     1007760.81249    783638.00147  20681803.016    20681812.088
       240.000         207.000
  22163133.782     1936656.53749   1499203.71946  22163134.241    22163147.766
       228.000         177.000
  24319981.661    -4904724.93849  -3802492.72845  24319981.187    24319995.006
       216.000         145.000
  20869554.736    -5936261.40749  -4609189.97047  20869554.518    20869564.013
       243.000         207.000
  21782541.632    -8869352.56949  -6889041.33547  21782541.750    21782550.992
       236.000         190.000
  21647332.875     3312475.31149   2575031.35847  21647332.683    21647342.520
       236.000         193.000
 01  9 24 17 35 30.0000000  0  7G29G30G21G20G25G11G14
  20687105.784     1035627.38449    805352.15047  20687105.595    20687114.836
       240.000         207.000
  24580522.967    -4709123.94849  -3658827.05345  24580523.648    24580542.615
       210.000         143.000
  22173140.532     1989242.00949   1540179.24546  22173139.965    22173154.187
       227.000         177.000
  24303137.578    -4993241.57349  -3871466.64345  24303137.798    24303150.230
       216.000         147.000
  20861384.669    -5979195.40749  -4642645.00547  20861384.394    20861393.993
       243.000         208.000
  21774395.335    -8912162.00749  -6922399.35447  21774395.130    21774404.363
       237.000         190.000
  21659190.354     3374786.42449   2623585.34147  21659190.464    21659200.076
       237.000         193.000
 01  9 24 17 36  0.0000000  0  7G29G30G21G20G25G11G14
  20692447.947     1063700.57249    827227.30047  20692448.046    20692457.051
       240.000         206.000
  24574103.925    -4742857.62249  -3685113.01545  24574102.453    24574123.571
       206.000         145.000
  22183202.153     2042115.48849   1581379.19846  22183202.139    22183216.623
       227.000         176.000
  24286287.695    -5081788.84749  -3940464.43345  24286287.813    24286300.943
       216.000         148.000
  20853307.603    -6021640.46649  -4675719.04447  20853307.356    20853316.981
       243.000         208.000
  21766346.150    -8954461.30149  -6955359.84547  21766346.032    21766354.866
       237.000         190.000
  21671073.880     3437234.08449   2672245.72547  21671073.578    21671083.480
       236.000         193.000
 01  9 24 17 36 30.0000000  0  7G29G30G21G20G25G11G14
  20697830.206     1091984.13449    849266.37547  20697830.400    20697839.422
       240.000         206.000
  24567761.040    -4776190.93349  -3711086.97445  24567760.194    24567780.827
       208.000         145.000
  22193319.600     2095282.55949   1622807.90146  22193319.924    22193332.757
       226.000         175.000
  24269432.912    -5170360.93749  -4009481.58645  24269432.102    24269446.263
       214.000         150.000
  20845324.759    -6063590.54349  -4708407.39247  20845324.482    20845334.341
       243.000         208.000
  21758395.228    -8996243.89449  -6987917.72847  21758395.206    21758404.022
       237.000         190.000
  21682983.960     3499821.71949   2721015.17647  21682983.883    21682993.806
       237.000         192.000
 01  9 24 17 37  0.0000000  0  7G29G30G21G20G25G11G14
  20703252.575     1120478.32349    871469.58147  20703252.626    20703261.747
       240.000         206.000
  24561495.375    -4809120.41749  -3736746.31645  24561495.041    24561514.403
       211.000         147.000
  22203493.356     2148744.97749   1664466.75946  22203493.921    22203506.777
       226.000         173.000
  24252573.637    -5258955.37049  -4078516.05845  24252571.444    24252586.663
       209.000         149.000
  20837436.581    -6105043.25849  -4740708.18947  20837436.313    20837445.973
       244.000         208.000
  21750543.174    -9037506.84949  -7020070.69047  21750543.342    21750552.287
       238.000         191.000
  21694920.769     3562549.35749   2769893.71747  21694920.449    21694930.565
       237.000         192.000
 01  9 24 17 37 30.0000000  0  7G29G30G21G20G25G11G14
  20708714.374     1149180.19849    893834.61347  20708714.605    20708723.358
       240.000         206.000
  24555306.203    -4841645.19449  -3762090.31145  24555304.297    24555325.362
       206.000         146.000
  22213722.968     2202501.13949   1706354.52146  22213722.600    22213735.995
       226.000         172.000
  24235709.648    -5347573.04449  -4147568.63145  24235707.879    24235724.080
       209.000         148.000
  20829642.944    -6145999.07149  -4772621.79947  20829642.788    20829652.224
       244.000         209.000
  21742789.906    -9078250.46549  -7051818.97147  21742789.720    21742798.677
       237.000         190.000
  21706883.609     3625414.18249   2818879.15847  21706883.487    21706893.192
       238.000         192.000
 01  9 24 17 38  0.0000000  0  7G29G30G21G20G25G11G14
  20714215.356     1178087.47149    916359.70247  20714215.287    20714224.295
       240.000         206.000
  24549193.488    -4873764.44949  -3787118.33445  24549193.627    24549213.328
       203.000         143.000
  22224008.248     2256550.02449   1748470.36346  22224007.969    22224020.946
       227.000         172.000
  24218841.810    -5436213.89949  -4216639.34545  24218842.664    24218855.174
       213.000         149.000
  20821943.867    -6186457.93049  -4804148.16947  20821943.668    20821953.107
       244.000         209.000
  21735135.579    -9118474.28149  -7083162.21747  21735135.629    21735144.315
       237.000         190.000
  21718872.173     3688413.73449   2867969.58247  21718872.068    21718881.853
       237.000         192.000
 01  9 24 17 38 30.0000000  0  7G29G30G21G20G25G11G14
  20719755.059     1207198.50049    939043.56047  20719754.822    20719764.223
       240.000         206.000
  24543159.360    -4905476.37449  -3811828.90845  24543160.813    24543178.533
       210.000         142.000
  22234349.400     2310891.82349   1790814.43646  22234349.940    22234363.027
       228.000         173.000
  24201969.921    -5524877.79249  -4285728.03545  24201970.285    24201982.571
       215.000         150.000
  20814339.437    -6226419.44949  -4835287.00047  20814339.193    20814348.815
       244.000         209.000
  21727580.416    -9158177.38749  -7114099.71447  21727580.109    21727589.149
       238.000         191.000
  21730886.014     3751546.21649   2917163.59547  21730885.651    21730896.175
       237.000         191.000
 01  9 24 17 39  0.0000000  0  7G29G30G21G20G25G11G14
  20725332.842     1236509.85049    961883.50947  20725333.240    20725342.080
       240.000         206.000
  24537203.860    -4936781.12649  -3836222.21945  24537202.648    24537220.391
       212.000         142.000
  22244746.019     2365524.90449   1833385.48646  22244746.203    22244759.709
       228.000         174.000
  24185093.415    -5613565.84749  -4354835.52345  24185093.498    24185105.549
       215.000         152.000
  20806829.421    -6265884.79049  -4866039.19947  20806829.182    20806838.823
       243.000         209.000
  21720124.194    -9197360.67849  -7144632.15547  21720124.031    21720132.623
       238.000         192.000
  21742924.395     3814808.00149   2966458.35647  21742924.237    21742933.974
       236.000         191.000
 01  9 24 17 39 30.0000000  0  7G29G30G21G20G25G11G14
  20730948.627     1266020.51249    984878.77347  20730948.773    20730957.645
       240.000         206.000
  24531325.075    -4967676.36349  -3860296.41645  24531320.330    24531341.826
       203.000         140.000
  22255197.963     2420449.21349   1876183.47146  22255197.897    22255211.109
       227.000         174.000
  24168212.045    -5702277.19549  -4423961.18845  24168210.866    24168223.427
       211.000         149.000
  20799414.045    -6304852.73949  -4896403.81347  20799413.785    20799423.370
       244.000         209.000
  21712767.132    -9236022.59949  -7174758.33347  21712766.794    21712775.450
       238.000         192.000
  21754987.073     3878197.75749   3015852.84047  21754987.046    21754997.178
       237.000         190.000
 01  9 24 17 40  0.0000000  0  7G29G30G21G20G25G11G14
  20736602.890     1295733.52349   1008031.70847  20736602.709    20736611.846
       240.000         206.000
  24525523.304    -4998155.53648  -3884046.40945  24525521.145    24525541.699
       191.000         139.000
  22265705.922     2475668.98449   1919211.69146  22265705.533    22265719.837
       228.000         174.000
  24151327.339    -5791006.06849  -4493100.45945  24151325.985    24151340.177
       212.000         146.000
  20792094.306    -6343318.29649  -4926376.96147  20792094.053    20792103.511
       244.000         209.000
  21705510.338    -9274157.30649  -7204473.69847  21705510.048    21705519.185
       238.000         192.000
  21767074.858     3941718.60449   3065349.47747  21767074.528    21767085.203
       237.000         190.000
 01  9 24 17 40 30.0000000  0  7G29G30G21G20G25G11G14
  20742295.299     1325647.07349   1031340.90247  20742295.468    20742304.604
       240.000         206.000
  24519801.755    -5028217.21949  -3907471.09245  24519802.874    24519821.855
       205.000         144.000
  22276270.251     2531184.30949   1962470.20846  22276269.799    22276282.963
       226.000         173.000
  24134439.611    -5879752.25649  -4562253.25245  24134439.275    24134452.281
       213.000         149.000
  20784870.285    -6381280.73149  -4955958.06147  20784870.254    20784879.510
       244.000         209.000
  21698353.970    -9311764.25849  -7233777.83647  21698353.702    21698362.666
       238.000         192.000
  21779187.143     4005368.54149   3114946.69047  21779187.522    21779197.014
       237.000         190.000
 01  9 24 17 41  0.0000000  0  7G29G30G21G20G25G11G14
  20748024.955     1355756.16449   1054802.47147  20748024.891    20748033.869
       240.000         206.000
  24514161.052    -5057863.25349  -3930571.84245  24514160.900    24514180.954
       205.000         144.000
  22286890.238     2586991.93449   2005956.50146  22286889.378    22286903.519
       226.000         173.000
  24117547.920    -5968518.83849  -4631421.91945  24117546.210    24117560.534
       209.000         149.000
  20777741.399    -6418743.19949  -4985149.56747  20777741.279    20777750.581
       243.000         209.000
  21691297.582    -9348845.74849  -7262672.50647  21691297.008    21691306.244
       238.000         192.000
  21791323.096     4069142.58049   3164640.61547  21791323.061    21791332.605
       236.000         190.000
 01  9 24 17 41 30.0000000  0  7G29G30G21G20G25G11G14
  20753791.635     1386060.18549   1078415.92247  20753791.939    20753800.746
       240.000         206.000
  24508598.765    -5087091.26749  -3953346.81145  24508596.092    24508617.530
       200.000         142.000
  22297565.947     2643092.24549   2049670.83946  22297566.366    22297579.826
       224.000         172.000
  24100652.439    -6057304.31449  -4700605.26845  24100650.957    24100665.064
       211.000         150.000
  20770707.948    -6455704.31349  -5013950.40847  20770707.758    20770717.123
       244.000         209.000
  21684341.510    -9385400.25149  -7291156.55147  21684341.283    21684350.365
       239.000         193.000
  21803482.373     4133039.72749   3214430.47047  21803482.403    21803492.141
       236.000         189.000
 01  9 24 17 42  0.0000000  0  7G29G30G21G20G25G11G14
  20759595.768     1416560.56749   1102182.39347  20759595.921    20759604.857
       241.000         206.000
  24503116.246    -5115896.20249  -3975792.17645  24503116.276    24503135.753
       202.000         143.000
  22308297.796     2699487.74849   2093615.20546  22308298.246    22308311.993
       224.000         171.000
  24083753.922    -6146105.00449  -4769800.54945  24083751.776    24083767.908
       212.000         153.000
  20763770.604    -6492160.26549  -5042357.61247  20763770.381    20763780.049
       244.000         209.000
  21677486.572    -9421423.64949  -7319226.73747  21677486.558    21677495.197
       240.000         193.000
  21815665.366     4197061.35049   3264317.32947  21815665.549    21815675.504
       235.000         189.000
 01  9 24 17 42 30.0000000  0  7G29G30G21G20G25G11G14
  20765436.804     1447255.09049   1126100.13747  20765436.657    20765445.771
       240.000         206.000
  24497714.508    -5144277.15649  -3997907.24545  24497715.994    24497735.549
       202.000         145.000
  22319085.781     2756178.60249   2137789.71746  22319086.188    22319099.677
       224.000         170.000
  24066852.556    -6234921.14949  -4839007.86245  24066851.186    24066866.169
       211.000         152.000
  20756929.282    -6528111.45849  -5070371.50647  20756929.147    20756938.617
       244.000         209.000
  21670732.744    -9456915.95349  -7346883.07947  21670732.534    21670740.862
       240.000         193.000
  21827871.549     4261205.28349   3314299.48847  21827871.629    21827881.703
       235.000         189.000
 01  9 24 17 43  0.0000000  0  7G29G30G21G20G25G11G14
  20771314.457     1478142.18549   1150167.93947  20771314.718    20771323.665
       241.000         206.000
  24492395.405    -5172232.57949  -4019690.62645  24492396.267    24492415.495
       204.000         142.000
  22329929.820     2813163.96449   2182193.70846  22329930.221    22329944.678
       224.000         170.000
  24049948.678    -6323751.72149  -4908226.39045  24049948.437    24049961.433
       214.000         153.000
  20750184.157    -6563557.26249  -5097991.58947  20750183.817    20750193.469
       245.000         209.000
  21664080.074    -9491875.96749  -7374124.65747  21664079.300    21664088.750
       239.000         193.000
  21840100.837     4325469.67249   3364375.49947  21840100.613    21840111.282
       236.000         188.000
 01  9 24 17 43 30.0000000  0  7G29G30G21G20G25G11G14
  20777228.135     1509218.34149   1174383.05247  20777228.364    20777237.276
       241.000         206.000
  24487157.739    -5199762.66749  -4041142.54645  24487156.824    24487177.127
       207.000         139.000
  22340829.380     2870441.32249   2226825.23846  22340829.146    22340843.602
       225.000         170.000
  24033041.902    -6412598.15149  -4977457.22245  24033041.162    24033055.258
       215.000         157.000
  20743534.874    -6598499.55149  -5125219.32547  20743534.720    20743544.157
       244.000         210.000
  21657528.463    -9526304.88249  -7400952.41347  21657528.055    21657537.113
       239.000         193.000
  21852352.315     4389850.87249   3414542.53846  21852352.171    21852362.577
       235.000         187.000
 01  9 24 17 44  0.0000000  0  7G29G30G21G20G25G11G14
  20783177.810     1540483.50749   1198745.46047  20783177.656    20783187.076
       240.000         206.000
  24482000.793    -5226864.29649  -4062260.67145  24482000.154    24482018.771
       202.000         140.000
  22351784.940     2928012.51749   2271685.72546  22351784.701    22351798.922
       225.000         171.000
  24016132.280    -6501458.41849  -5046698.87145  24016131.188    24016144.727
       213.000         157.000
  20736981.861    -6632935.92749  -5152052.83047  20736981.706    20736991.204
       244.000         210.000
  21651078.345    -9560200.39749  -7427364.51147  21651078.230    21651087.326
       240.000         193.000
  21864625.961     4454349.01149   3464800.71246  21864625.555    21864636.382
       235.000         187.000
 01  9 24 17 44 30.0000000  0  7G29G30G21G20G25G11G14
  20789163.643     1571939.03149   1223256.18347  20789164.001    20789172.592
       240.000         206.000
  24476925.253    -5253533.16149  -4083041.56845  24476924.967    24476944.636
       201.000         141.000
  22362797.014     2985880.34349   2316777.35446  22362796.798    22362811.533
       225.000         171.000
  23999220.517    -6590329.09149  -5115948.68945  23999219.956    23999232.698
       216.000         155.000
  20730525.587    -6666863.53249  -5178489.90447  20730525.346    20730534.808
       244.000         210.000
  21644730.503    -9593558.88249  -7453358.14847  21644730.245    21644738.773
       240.000         193.000
  21876922.077     4518965.04249   3515150.73446  21876921.962    21876932.427
       234.000         187.000
 01  9 24 17 45  0.0000000  0  7G29G30G21G20G25G11G14
  20795185.115     1603581.62149   1247912.66947  20795185.063    20795194.242
       240.000         205.000
  24471932.743    -5279769.66249  -4103485.50945  24471932.524    24471951.450
       205.000         142.000
  22373865.144     3044042.24449   2362098.12346  22373864.746    22373879.651
       225.000         172.000
  23982306.848    -6679211.08849  -5185207.34245  23982306.475    23982320.071
       218.000         158.000
  20724165.885    -6700283.88549  -5204531.72147  20724165.639    20724175.119
       244.000         210.000
  21638484.619    -9626381.37849  -7478934.13647  21638484.459    21638493.137
       240.000         193.000
  21889239.910     4583695.61249   3565590.01146  21889239.925    21889250.513
       235.000         186.000
 01  9 24 17 45 30.0000000  0  7G29G30G21G20G25G11G14
  20801242.126     1635411.17549   1272714.84947  20801242.220    20801251.147
       240.000         205.000
  24467022.971    -5305570.41149  -4123589.92945  24467022.343    24467041.919
       207.000         145.000
  22384989.519     3102500.08049   2407649.49546  22384989.744    22385004.339
       225.000         172.000
  23965391.604    -6768102.29249  -5254473.12545  23965391.585    23965404.028
       219.000         158.000
  20717903.159    -6733194.63249  -5230176.44447  20717902.914    20717912.451
       244.000         210.000
  21632341.172    -9658665.58149  -7504090.67447  21632340.602    21632349.976
       238.000         193.000
  21901579.655     4648540.69349   3616118.51546  21901579.202    21901589.625
       233.000         186.000
 01  9 24 17 46  0.0000000  0  7G29G30G21G20G25G11G14
  20807334.251     1667425.12149   1297660.70147  20807334.422    20807343.379
       240.000         205.000
  24462196.362    -5330935.27049  -4143354.74145  24462196.854    24462216.238
       207.000         145.000
  22396169.865     3161252.60749   2453430.48846  22396170.354    22396183.903
       224.000         172.000
  23948474.663    -6857003.18649  -5323746.43845  23948474.596    23948486.917
       221.000         159.000
  20711737.291    -6765596.72949  -5255424.81347  20711737.143    20711746.460
       245.000         210.000
  21626300.050    -9690411.85849  -7528828.04947  21626299.754    21626308.768
       238.000         193.000
  21913940.517     4713497.34449   3666733.95646  21913940.185    21913950.838
       234.000         186.000
 01  9 24 17 46 30.0000000  0  7G29G30G21G20G25G11G14
  20813461.462     1699623.40749   1322750.19647  20813461.341    20813470.463
       241.000         205.000
  24457453.426    -5355861.23949  -4162777.50345  24457452.128    24457472.385
       205.000         143.000
  22407406.232     3220300.20249   2499441.40746  22407406.845    22407421.114
       224.000         171.000
  23931556.057    -6945911.61949  -5393025.69845  23931554.340    23931567.947
       218.000         159.000
  20705668.569    -6797488.28549  -5280275.35847  20705668.324    20705677.793
       244.000         210.000
  21620361.633    -9721618.06649  -7553144.60847  21620361.195    21620370.220
       238.000         193.000
  21926322.671     4778565.31949   3717436.14146  21926322.663    21926332.861
       235.000         186.000
 01  9 24 17 47  0.0000000  0  7G29G30G21G20G25G11G14
  20819623.721     1732006.25049   1347983.50647  20819623.904    20819633.001
       240.000         205.000
  24452793.790    -5380344.93049  -4181855.63645  24452792.814    24452813.306
       203.000         142.000
  22418699.269     3279645.05849   2545683.96146  22418698.738    22418714.307
       223.000         170.000
  23914635.917    -7034825.09549  -5462308.84045  23914633.843    23914648.725
       213.000         156.000
  20699697.336    -6828867.13949  -5304726.39947  20699696.998    20699706.489
       244.000         210.000
  21614526.562    -9752281.53749  -7577038.24547  21614526.275    21614535.199
       238.000         193.000
  21938726.123     4843745.10449   3768225.46346  21938726.006    21938735.810
       233.000         186.000
 01  9 24 17 47 30.0000000  0  7G29G30G21G20G25G11G14
  20825820.599     1764570.62249   1373358.27147  20825820.315    20825829.709
       240.000         205.000
  24448218.079    -5404386.18849  -4200589.06545  24448219.720    24448238.013
       202.000         142.000
  22430048.594     3339285.26649   2592156.63846  22430048.521    22430063.692
       221.000         169.000
  23897714.742    -7123744.33749  -5531596.47445  23897713.227    23897727.306
       218.000         156.000
  20693823.396    -6859734.61749  -5328778.95947  20693823.224    20693832.627
       244.000         210.000
  21608794.649    -9782403.05649  -7600509.57647  21608794.753    21608803.037
       239.000         193.000
  21951150.255     4909033.50849   3819099.41646  21951150.125    21951160.640
       233.000         186.000
 01  9 24 17 48  0.0000000  0  7G29G30G21G20G25G11G14
  20832051.797     1797315.81349   1398873.92747  20832051.921    20832061.160
       240.000         205.000
  24443728.201    -5427983.20449  -4218976.27945  24443727.719    24443747.170
       208.000         142.000
  22441454.149     3399221.04549   2638859.62946  22441454.035    22441468.911
       220.000         168.000
  23880793.098    -7212668.04249  -5600887.65445  23880791.802    23880804.358
       218.000         156.000
  20688046.936    -6890090.12349  -5352432.59647  20688046.823    20688056.271
       244.000         211.000
  21603166.120    -9811981.49849  -7623557.72647  21603166.089    21603174.385
       238.000         193.000
  21963594.788     4974429.52449   3870057.22546  21963594.600    21963605.803
       233.000         186.000
 01  9 24 17 48 30.0000000  0  7G29G30G21G20G25G11G14
  20838317.128     1830239.99049   1424529.05547  20838317.253    20838326.537
       239.000         204.000
  24439323.253    -5451134.63449  -4237016.28145  24439322.209    24439342.613
       206.000         144.000
  22452915.865     3459452.06549   2685792.67746  22452916.120    22452930.575
       221.000         168.000
  23863870.801    -7301595.75549  -5670181.90845  23863870.706    23863883.050
       220.000         156.000
  20682367.922    -6919933.62949  -5375687.27347  20682367.645    20682377.229
       245.000         211.000
  21597640.924    -9841016.40849  -7646182.35247  21597640.824    21597649.473
       238.000         193.000
  21976059.526     5039931.36449   3921097.49746  21976059.191    21976070.236
       232.000         185.000
 01  9 24 17 49  0.0000000  0  7G29G30G21G20G25G11G14
  20844616.577     1863343.65949   1450324.05047  20844616.762    20844625.992
       240.000         204.000
  24435002.622    -5473837.13249  -4254706.50745  24435001.720    24435022.499
       202.000         145.000
  22464434.083     3519979.81449   2732956.94446  22464434.266    22464449.122
       223.000         168.000
  23846948.247    -7390524.69449  -5739477.14645  23846948.651    23846960.439
       222.000         159.000
  20676786.838    -6949262.52649  -5398540.95047  20676786.738    20676796.151
       244.000         211.000
  21592219.651    -9869505.18749  -7668381.42547  21592219.617    21592228.335
       237.000         192.000
  21988544.381     5105539.47649   3972220.57546  21988544.407    21988555.260
       234.000         185.000
 01  9 24 17 49 30.0000000  0  7G29G30G21G20G25G11G14
  20850949.646     1896623.61949   1476256.40847  20850949.848    20850958.889
       239.000         205.000
  24430767.995    -5496090.89349  -4272047.08145  24430768.861    24430785.946
       206.000         143.000
  22476008.468     3580802.31649   2780350.88946  22476008.443    22476024.060
       223.000         168.000
  23830025.273    -7479455.74949  -5808774.03945  23830024.347    23830037.823
       218.000         159.000
  20671303.335    -6978078.33549  -5420994.82447  20671303.295    20671312.601
       244.000         211.000
  21586902.113    -9897448.99649  -7690155.85047  21586902.109    21586910.989
       238.000         193.000
  22001048.970     5171250.53649   4023423.86146  22001049.231    22001059.397
       233.000         185.000
 01  9 24 17 50  0.0000000  0  7G29G30G21G20G25G11G14
  20857315.893     1930078.29649   1502324.92347  20857315.941    20857325.339
       240.000         204.000
  24426619.731    -5517894.70049  -4289036.98845  24426618.294    24426637.212
       208.000         142.000
  22487638.827     3641919.50149   2827974.46646  22487639.071    22487653.837
       224.000         169.000
  23813101.697    -7568388.45749  -5878072.20945  23813101.003    23813115.230
       216.000         157.000
  20665917.521    -7006381.10549  -5443048.91547  20665917.193    20665926.751
       245.000         211.000
  21581688.399    -9924847.37149  -7711505.24347  21581687.998    21581697.322
       238.000         193.000
  22013572.746     5237063.08149   4074706.25046  22013571.831    22013583.427
       233.000         185.000
 01  9 24 17 50 30.0000000  0  7G29G30G21G20G25G11G14
  20863716.098     1963711.26549   1528532.36447  20863716.150    20863725.370
       240.000         204.000
  24422557.133    -5539242.25149  -4305671.44045  24422554.547    24422575.340
       204.000         141.000
  22499326.080     3703335.67049   2875831.02146  22499326.181    22499341.189
       224.000         170.000
  23796179.219    -7657316.94149  -5947367.08645  23796179.488    23796191.991
       220.000         159.000
  20660630.276    -7034165.81349  -5464699.34147  20660630.263    20660639.378
       245.000         211.000
  21576579.520    -9951694.72349  -7732425.28047  21576579.415    21576588.875
       238.000         193.000
  22026116.584     5302980.40649   4126070.25546  22026116.377    22026127.060
       234.000         185.000
 01  9 24 17 51  0.0000000  0  7G29G30G21G20G25G11G14
  20870149.307     1997517.58749   1554874.88447  20870149.156    20870158.567
       239.000         204.000
  24418580.310    -5560135.44849  -4321951.91145  24418580.439    24418599.973
       204.000         142.000
  22511069.573     3765047.51449   2923917.97046  22511069.321    22511084.390
       224.000         170.000
  23779257.191    -7746243.60449  -6016660.54645  23779256.563    23779269.463
       216.000         158.000
  20655441.037    -7061435.53649  -5485948.47247  20655440.856    20655450.351
       245.000         211.000
  21571574.995    -9977993.87049  -7752918.14547  21571575.129    21571584.108
       238.000         193.000
  22038679.359     5368997.51749   4177512.03446  22038679.150    22038689.807
       231.000         185.000
 01  9 24 17 51 30.0000000  0  7G29G30G21G20G25G11G14
  20876615.485     2031497.62049   1581352.76147  20876615.410    20876625.080
       239.000         204.000
  24414692.325    -5580571.20649  -4337875.84645  24414692.250    24414710.414
       212.000         144.000
  22522869.537     3827055.89849   2972235.98346  22522870.081    22522884.514
       224.000         170.000
  23762335.627    -7835166.12749  -6085950.78245  23762334.478    23762348.821
       221.000         157.000
  20650350.115    -7088188.63249  -5506795.03847  20650349.930    20650359.162
       245.000         212.000
  21566675.186   -10003742.64849  -7772982.16047  21566675.411    21566683.626
       238.000         193.000
  22051260.981     5435114.72249   4229031.79646  22051260.540    22051271.670
       233.000         185.000
 01  9 24 17 52  0.0000000  0  7G29G30G21G20G25G11G14
  20883113.972     2065647.09449   1607962.67247  20883114.071    20883123.592
       240.000         204.000
  24410891.126    -5600551.21449  -4353444.67545  24410889.893    24410909.975
       206.000         146.000
  22534725.364     3889357.94749   3020782.83046  22534725.944    22534740.131
       224.000         170.000
  23745414.703    -7924086.45149  -6155239.32345  23745413.472    23745426.719
       221.000         157.000
  20645356.969    -7114427.82949  -5527241.16147  20645356.827    20645366.189
       245.000         212.000
  21561879.664   -10028943.18049  -7792618.95747  21561879.332    21561888.455
       238.000         193.000
  22063861.061     5501327.75949   4280626.23446  22063860.397    22063871.851
       233.000         185.000
 01  9 24 17 52 30.0000000  0  7G29G30G21G20G25G11G14
  20889645.432     2099969.66549   1634707.45947  20889645.349    20889654.788
       240.000         204.000
  24407175.907    -5620068.70249  -4368653.19645  24407175.434    24407194.736
       201.000         146.000
  22546638.030     3951958.47649   3069562.24546  22546638.017    22546653.054
       225.000         170.000
  23728495.098    -8012998.67949  -6224521.54445  23728493.606    23728507.176
       216.000         155.000
  20640462.679    -7140147.49949  -5547282.44647  20640462.475    20640471.969
       245.000         212.000
  21557189.535   -10053589.86849  -7811824.19547  21557189.378    21557198.294
       238.000         193.000
  22076480.043     5567640.29849   4332298.21746  22076479.801    22076490.429
       233.000         185.000
 01  9 24 17 53  0.0000000  0  7G29G30G21G20G25G11G14
  20896208.961     2134461.00349   1661583.75647  20896209.006    20896218.585
       240.000         204.000
  24403550.069    -5639125.49249  -4383502.65345  24403550.404    24403568.525
       213.000         146.000
  22558606.910     4014854.06949   3118571.58346  22558607.651    22558622.893
       224.000         169.000
  23711576.920    -8101904.83749  -6293799.05345  23711577.546    23711589.230
       222.000         156.000
  20635666.627    -7165350.75949  -5566921.32547  20635666.156    20635675.943
       244.000         212.000
  21552604.346   -10077685.23549  -7830599.83547  21552604.233    21552613.463
       238.000         193.000
  22089117.024     5634047.60549   4384044.03446  22089116.473    22089128.645
       233.000         185.000
 01  9 24 17 53 30.0000000  0  7G29G30G21G20G25G11G14
  20902804.499     2169120.34549   1688590.97147  20902804.619    20902814.194
       240.000         204.000
  24400013.261    -5657719.65149  -4397991.55945  24400011.354    24400032.194
       211.000         147.000
  22570632.005     4078045.01449   3167811.05346  22570631.547    22570647.445
       222.000         169.000
  23694660.264    -8190803.34349  -6363070.57645  23694659.179    23694672.487
       218.000         156.000
  20630968.988    -7190036.84049  -5586157.21147  20630968.798    20630978.371
       246.000         212.000
  21548124.425   -10101228.00549  -7848944.87747  21548124.074    21548133.324
       239.000         194.000
  22101772.006     5700549.32849   4435863.43246  22101771.702    22101783.116
       233.000         185.000
 01  9 24 17 54  0.0000000  0  7G29G30G21G20G25G11G14
  20909431.910     2203947.66549   1715729.07247  20909432.101    20909441.493
       239.000         204.000
  24396562.463    -5675848.37949  -4412117.92145  24396560.263    24396580.150
       201.000         144.000
  22582713.396     4141532.68249   3217281.73446  22582713.273    22582729.122
       220.000         168.000
  23677745.098    -8279692.01649  -6432334.41145  23677743.809    23677758.165
       214.000         156.000
  20626370.030    -7214204.54449  -5604989.17447  20626369.981    20626378.994
       245.000         212.000
  21543749.945   -10124216.51149  -7866858.03147  21543749.862    21543758.662
       239.000         194.000
  22114444.920     5767145.18049   4487756.16146  22114444.708    22114455.549
       232.000         184.000
 01  9 24 17 54 30.0000000  0  7G29G30G21G20G25G11G14
  20916091.265     2238942.35149   1742997.58347  20916091.451    20916101.010
       240.000         204.000
  24393201.365    -5693509.90549  -4425880.23445  24393200.549    24393217.130
       211.000         141.000
  22594851.199     4205316.91749   3266983.50346  22594851.930    22594866.568
       220.000         167.000
  23660832.053    -8368569.29049  -6501589.36645  23660831.587    23660844.317
       218.000         154.000
  20621869.977    -7237852.71349  -5623416.30547  20621870.036    20621879.028
       245.000         212.000
  21539481.047   -10146649.90649  -7884338.62747  21539480.818    21539489.866
       238.000         194.000
  22127135.567     5833834.50649   4539721.73546  22127135.103    22127147.334
       232.000         184.000
 01  9 24 17 55  0.0000000  0  7G29G30G21G20G25G11G14
  20922781.930     2274101.63049   1770394.36447  20922782.009    20922791.623
       240.000         204.000
  24389930.707    -5710704.05849  -4439278.25545  24389929.213    24389946.049
       212.000         142.000
  22607045.041     4269395.85649   3316914.91046  22607044.849    22607060.816
       220.000         166.000
  23643921.220    -8457435.51249  -6570835.69845  23643919.665    23643934.549
       213.000         154.000
  20617468.473    -7260982.86349  -5641439.76847  20617468.184    20617477.396
       246.000         212.000
  21535317.656   -10168528.73649  -7901387.09347  21535317.390    21535326.336
       239.000         194.000
  22139843.451     5900614.54849   4591757.99446  22139843.545    22139854.690
       233.000         184.000
 01  9 24 17 55 30.0000000  0  7G29G30G21G20G25G11G14
  20929504.246     2309427.23949   1797920.73647  20929504.406    20929513.946
       240.000         204.000
  24386747.745    -5727426.72349  -4452308.92345  24386744.938    24386767.038
       200.000         145.000
  22619295.721     4333772.68649   3367078.43146  22619296.587    22619311.570
       222.000         166.000
  23627013.089    -8546286.76249  -6640070.36445  23627012.779    23627025.995
       218.000         156.000
  20613166.145    -7283591.60749  -5659056.95247  20613165.742    20613175.341
       244.000         212.000
  21531260.398   -10189849.69949  -7918000.86447  21531260.179    21531269.083
       239.000         194.000
  22152568.899     5967486.78549   4643866.08146  22152568.866    22152580.241
       231.000         184.000
 01  9 24 17 56  0.0000000  0  7G29G30G21G20G25G11G14
  20936257.731     2344916.82649   1825574.89447  20936257.710    20936267.511
       239.000         204.000
  24383653.935    -5743677.50249  -4464971.97345  24383656.026    24383674.216
       209.000         147.000
  22631602.899     4398446.26949   3417473.20446  22631602.378    22631618.179
       222.000         165.000
  23610108.094    -8635123.16249  -6709293.44045  23610107.243    23610121.237
       215.000         156.000
  20608962.707    -7305680.30749  -5676268.89647  20608962.322    20608971.942
       244.000         212.000
  21527309.225   -10210613.30649  -7934180.32447  21527308.824    21527317.963
       238.000         194.000
  22165311.534     6034449.10249   4696044.38146  22165311.184    22165323.377
       232.000         184.000
 01  9 24 17 56 30.0000000  0  7G29G30G21G20G25G11G14
  20943042.057     2380568.36349   1853355.22847  20943042.134    20943051.572
       239.000         203.000
  24380653.011    -5759456.19949  -4477267.02145  24380652.855    24380670.261
       215.000         146.000
  22643966.230     4463415.15849   3468098.07246  22643966.538    22643981.551
       223.000         166.000
  23593206.005    -8723944.44849  -6778504.75945  23593205.813    23593218.549
       218.000         155.000
  20604858.191    -7327249.60049  -5693076.12347  20604858.104    20604867.498
       245.000         212.000
  21523464.030   -10230820.12749  -7949925.95047  21523464.076    21523473.308
       238.000         194.000
  22178070.827     6101499.25649   4748291.10546  22178070.891    22178082.243
       232.000         184.000
 01  9 24 17 57  0.0000000  0  7G29G30G21G20G25G11G14
  20949856.263     2416376.89249   1881257.89647  20949856.506    20949865.823
       239.000         203.000
  24377740.593    -5774765.09449  -4489195.98045  24377736.864    24377757.718
       209.000         148.000
  22656385.115     4528675.44549   3518950.00946  22656384.871    22656401.162
       222.000         166.000
  23576306.440    -8812753.16349  -6847706.29945  23576306.243    23576319.184
       220.000         158.000
  20600851.863    -7348303.13249  -5709481.45348  20600851.887    20600861.068
       245.000         213.000
  21519724.179   -10250473.20049  -7965240.07147  21519724.015    21519733.271
       239.000         194.000
  22190845.960     6168632.21249   4800602.35146  22190846.157    22190857.817
       232.000         183.000
 01  9 24 17 57 30.0000000  0  7G29G30G21G20G25G11G14
  20956701.608     2452349.10949   1909288.13147  20956701.607    20956711.202
       239.000         203.000
  24374916.924    -5789594.86849  -4500751.66645  24374915.277    24374936.787
       203.000         148.000
  22668860.945     4594234.79249   3570034.97546  22668861.844    22668876.770
       224.000         166.000
  23559410.870    -8901540.43649  -6916891.11145  23559409.670    23559422.093
       217.000         158.000
  20596945.250    -7368832.71749  -5725478.51648  20596944.992    20596954.150
       245.000         213.000
  21516091.292   -10269564.29849  -7980116.27347  21516091.160    21516100.237
       238.000         194.000
  22203638.054     6235854.82149   4852983.45746  22203638.361    22203649.399
       231.000         183.000
 01  9 24 17 58  0.0000000  0  7G29G30G21G20G25G11G14
  20963577.684     2488482.78349   1937444.16947  20963577.677    20963587.199
       239.000         203.000
  24372185.769    -5803945.37749  -4511933.87345  24372186.386    24372203.528
       214.000         145.000
  22681393.399     4660091.62849   3621351.75346  22681392.719    22681407.422
       223.000         166.000
  23542519.420    -8990306.02049  -6986059.06145  23542517.924    23542530.231
       217.000         156.000
  20593138.012    -7388839.74549  -5741068.38848  20593137.687    20593146.870
       245.000         213.000
  21512565.195   -10288094.03449  -7994555.04547  21512564.941    21512573.921
       238.000         194.000
  22216446.710     6303164.49649   4905432.41346  22216446.814    22216458.445
       231.000         183.000
 01  9 24 17 58 30.0000000  0  7G29G30G21G20G25G11G14
  20970483.316     2524771.87149   1965721.30047  20970483.726    20970492.749
       239.000         203.000
  24369546.546    -5817820.23649  -4522745.40745  24369543.896    24369563.420
       211.000         143.000
  22693981.537     4726240.99149   3672896.47346  22693980.914    22693997.733
       223.000         165.000
  23525631.083    -9079053.74749  -7055213.04145  23525629.326    23525643.529
       216.000         157.000
  20589429.274    -7408329.28649  -5756255.03548  20589429.045    20589438.294
       245.000         213.000
  21509145.141   -10306066.86749  -8008559.89047  21509144.969    21509154.037
       239.000         194.000
  22229271.017     6370555.61449   4957944.83046  22229271.306    22229281.747
       231.000         182.000
 01  9 24 17 59  0.0000000  0  7G29G30G21G20G25G11G14
  20977418.787     2561217.46449   1994120.39447  20977418.915    20977428.438
       239.000         203.000
  24366996.295    -5831215.62849  -4533183.40645  24366995.780    24367013.345
       198.000         143.000
  22706625.647     4792685.10849   3724670.88646  22706626.370    22706642.394
       223.000         164.000
  23508746.887    -9167780.24649  -7124350.48045  23508746.184    23508759.405
       217.000         160.000
  20585819.442    -7427298.69449  -5771036.37148  20585819.064    20585828.716
       245.000         213.000
  21505831.574   -10323480.12549  -8022128.69647  21505831.123    21505840.687
       239.000         195.000
  22242110.900     6438029.05449   5010521.39246  22242111.057    22242122.013
       231.000         182.000
 01  9 24 17 59 30.0000000  0  7G29G30G21G20G25G11G14
  20984384.619     2597822.81149   2022643.96447  20984384.533    20984394.190
       239.000         203.000
  24364538.990    -5844126.41749  -4543243.74345  24364541.349    24364557.111
       214.000         144.000
  22719326.493     4859427.70249   3776677.87546  22719326.118    22719341.290
       222.000         163.000
  23491867.766    -9256479.89649  -7193467.04045  23491867.119    23491880.124
       219.000         161.000
  20582309.530    -7445743.52649  -5785408.95048  20582309.454    20582318.789
       245.000         213.000
  21502625.356   -10340329.16449  -8035257.85447  21502625.052    21502634.430
       239.000         195.000
  22254967.034     6505588.01149   5063164.60346  22254966.457    22254978.291
       231.000         181.000
 01  9 24 18  0  0.0000000  0  7G29G30G21G20G25G11G14
  20991379.510     2634581.19549   2051286.77247  20991379.380    20991389.066
       239.000         203.000
  24362175.494    -5856556.77849  -4552929.60645  24362174.218    24362193.657
       214.000         147.000
  22732083.041     4926462.77149   3828912.75345  22732082.737    22732098.148
       222.000         162.000
  23474992.853    -9345157.14149  -7262566.09645  23474991.412    23475005.273
       218.000         161.000
  20578898.379    -7463669.30649  -5799377.08048  20578898.325    20578907.590
       245.000         213.000
  21499525.455   -10356619.18349  -8047951.41247  21499525.228    21499534.621
       239.000         195.000
  22267838.222     6573225.78749   5115869.21746  22267838.316    22267849.466
       231.000         181.000
 01  9 24 18  0 30.0000000  0  7G29G30G21G20G25G11G14
  20998403.975     2671494.51249   2080050.30747  20998404.087    20998413.775
       239.000         202.000
  24359901.637    -5868502.48249  -4562237.95545  24359898.793    24359920.504
       201.000         146.000
  22744895.710     4993793.12249   3881377.71445  22744896.526    22744911.038
       220.000         161.000
  23458123.333    -9433807.73049  -7331644.41246  23458122.989    23458136.347
       220.000         165.000
  20575586.532    -7481073.13749  -5812938.50848  20575586.488    20575595.718
       245.000         213.000
  21496532.603   -10372346.97449  -8060206.87747  21496532.700    21496541.835
       239.000         195.000
  22280724.737     6640944.16949   5168636.64446  22280724.925    22280736.238
       230.000         181.000
 01  9 24 18  1  0.0000000  0  7G29G30G21G20G25G11G14
  21005457.796     2708562.25349   2108934.17847  21005457.904    21005467.509
       239.000         202.000
  24357720.150    -5879961.61449  -4571167.14945  24357720.951    24357737.172
       210.000         145.000
  22757764.669     5061419.33749   3934073.22345  22757764.068    22757780.916
       219.000         161.000
  23441258.915    -9522429.96049  -7400700.59945  23441257.835    23441271.532
       219.000         162.000
  20572374.068    -7497954.55649  -5826092.86048  20572373.732    20572383.115
       245.000         213.000
  21493647.047   -10387511.19149  -8072023.19647  21493647.078    21493655.826
       240.000         195.000
  22293626.391     6708742.77649   5221466.57646  22293626.224    22293637.703
       231.000         180.000
 01  9 24 18  1 30.0000000  0  7G29G30G21G20G25G11G14
  21012540.591     2745782.33849   2137936.75347  21012540.831    21012550.544
       239.000         202.000
  24355633.559    -5890934.14149  -4579717.02845  24355631.637    24355651.909
       215.000         147.000
  22770689.579     5129339.64849   3986997.89645  22770689.680    22770706.593
       218.000         160.000
  23424400.149    -9611023.39449  -7469734.37946  23424400.505    23424412.407
       222.000         163.000
  20569260.851    -7514314.27849  -5838840.69748  20569260.717    20569269.816
       245.000         213.000
  21490868.561   -10402112.61749  -8083400.97247  21490868.421    21490877.251
       239.000         195.000
  22306543.022     6776619.31949   5274357.24746  22306542.842    22306554.118
       231.000         180.000
 01  9 24 18  2  0.0000000  0  7G29G30G21G20G25G11G14
  21019651.907     2783152.25549   2167056.08747  21019651.938    21019661.624
       239.000         202.000
  24353637.631    -5901420.07749  -4587887.83645  24353634.240    24353658.533
       205.000         147.000
  22783670.227     5197552.94549   4040150.86245  22783670.453    22783686.712
       217.000         159.000
  23407547.114    -9699588.12049  -7538745.79446  23407545.543    23407558.875
       220.000         164.000
  20566246.677    -7530153.80849  -5851183.18848  20566246.604    20566255.523
       245.000         213.000
  21488196.890   -10416152.39649  -8094341.09647  21488196.551    21488205.577
       239.000         195.000
  22319474.039     6844571.42749   5327306.78446  22319474.329    22319485.254
       232.000         180.000
 01  9 24 18  2 30.0000000  0  8G29G30G21G 1G20G25G11G14
  21026791.999     2820673.41649   2196293.27047  21026791.945    21026801.571
       239.000         202.000
  24351734.320    -5911416.05449  -4595676.93345  24351734.605    24351751.746
       212.000         144.000
  22796707.085     5266061.72849   4093534.06945  22796706.688    22796723.631
       216.000         159.000
                   -321614.67349   -229062.65543
       207.000          74.000
  23390699.734    -9788120.82049  -7607732.23746  23390698.466    23390710.947
       222.000         164.000
  20563331.950    -7545471.11649  -5863118.75848  20563331.722    20563341.202
       245.000         213.000
  21485632.545   -10429628.15949  -8104841.72347  21485632.516    21485641.390
       239.000         194.000
  22332419.684     6912600.35849   5380316.19646  22332419.728    22332431.286
       231.000         180.000
 01  9 24 18  3  0.0000000  0  8G29G30G21G 1G20G25G11G14
  21033960.563     2858344.07549   2225646.94647  21033960.732    21033970.363
       239.000         202.000
  24349926.481    -5920921.58649  -4603083.74345  24349924.998    24349942.349
       215.000         142.000
  22809799.926     5334863.95549   4147145.92245  22809799.554    22809816.762
       215.000         159.000
                   -395925.37949   -286966.99044                  24508470.626
       209.000         101.000
  23373858.766    -9876620.57249  -7676693.01946  23373857.985    23373871.466
       221.000         166.000
  20560516.454    -7560266.87849  -5874647.93848  20560516.371    20560525.487
       246.000         214.000
  21483175.544   -10442540.09449  -8114903.00947  21483175.297    21483184.495
       240.000         195.000
  22345379.681     6980704.48649   5433384.18746  22345379.276    22345391.262
       230.000         179.000
 01  9 24 18  3 30.0000000  0  8G29G30G21G 1G20G25G11G14
  21041156.838     2896160.39249   2255114.12347  21041156.890    21041167.042
       239.000         202.000
  24348210.331    -5929938.29549  -4610109.73545  24348208.986    24348229.693
       208.000         146.000
  22822948.060     5403957.02449   4200984.41845  22822947.252    22822965.447
       216.000         159.000
  24494340.396     -470108.54349   -344772.00144  24494339.612    24494355.090
       211.000         128.000
  23357023.540    -9965088.84649  -7745629.24046  23357021.341    23357035.188
       219.000         165.000
  20557799.648    -7574543.93649  -5885772.91648  20557799.562    20557808.934
       246.000         214.000
  21480825.393   -10454890.63849  -8124526.85447  21480825.434    21480834.383
       240.000         195.000
  22358353.094     7048880.03349   5486507.83646  22358352.824    22358364.504
       230.000         178.000
 01  9 24 18  4  0.0000000  0  8G29G30G21G 1G20G25G11G14
  21048380.730     2934121.73849   2284694.30147  21048380.839    21048390.692
       239.000         202.000
  24346587.349    -5938464.78749  -4616753.74245  24346588.547    24346607.609
       216.000         150.000
  22836151.533     5473340.99049   4255049.57845  22836152.001    22836169.166
       216.000         159.000
  24480247.741     -544164.08049   -402477.57545  24480246.668    24480262.745
       212.000         132.000
  23340194.572   -10053524.35949  -7814539.96246  23340193.151    23340206.610
       222.000         166.000
  20555181.499    -7588302.45849  -5896493.84848  20555181.444    20555190.708
       245.000         214.000
  21478582.096   -10466679.45749  -8133712.99147  21478582.207    21478590.792
       240.000         195.000
  22371339.861     7117126.28049   5539686.57946  22371339.744    22371351.760
       230.000         177.000
 01  9 24 18  4 30.0000000  0  8G29G30G21G 1G20G25G11G14
  21055632.440     2972229.27049   2314388.39947  21055632.699    21055642.477
       240.000         202.000
  24345059.757    -5946497.72949  -4623013.06345  24345057.477    24345076.865
       213.000         148.000
  22849410.813     5543017.53349   4309342.72645  22849410.982    22849427.482
       217.000         160.000
  24466179.906     -618089.60249   -460081.80744  24466177.858    24466196.601
       208.000         131.000
  23323372.825   -10141923.20949  -7883422.07546  23323372.545    23323385.513
       223.000         166.000
  20552662.451    -7601540.14949  -5906808.92648  20552662.258    20552671.384
       245.000         213.000
  21476446.156   -10477903.92649  -8142459.37947  21476445.886    21476454.927
       239.000         195.000
  22384340.544     7185444.26149   5592921.21846  22384341.083    22384351.933
       231.000         177.000
 01  9 24 18  5  0.0000000  0  8G29G30G21G 1G20G25G11G14
  21062912.244     3010484.20649   2344197.36247  21062912.769    21062922.577
       240.000         202.000
  24343624.912    -5954033.58349  -4628885.19045  24343622.911    24343641.316
       206.000         146.000
  22862726.183     5612988.68949   4363865.43845  22862726.174    22862743.268
       218.000         161.000
  24452137.212     -691882.89049   -517582.97445  24452135.879    24452153.288
       212.000         132.000
  23306558.662   -10230281.83849  -7952272.87546  23306557.336    23306569.115
       222.000         165.000
  20550242.937    -7614254.81849  -5916716.45948  20550242.753    20550251.909
       245.000         213.000
  21474418.074   -10488561.63649  -8150764.12947  21474417.970    21474427.146
       239.000         195.000
  22397355.112     7253835.41149   5646212.86646  22397354.594    22397366.488
       230.000         177.000
 01  9 24 18  5 30.0000000  0  8G29G30G21G 1G20G25G11G14
  21070220.230     3048887.34449   2374121.80147  21070220.150    21070230.067
       240.000         202.000
  24342285.375    -5961069.86549  -4634368.03945  24342286.706    24342305.629
       216.000         148.000
  22876097.769     5683255.78749   4418618.75046  22876097.757    22876114.964
       220.000         163.000
  24438120.192     -765542.43549   -574979.95945  24438119.262    24438135.308
       213.000         132.000
  23289752.601   -10318597.38149  -8021090.11346  23289751.511    23289763.994
       223.000         164.000
  20547923.280    -7626444.78049  -5926215.13348  20547923.199    20547932.168
       246.000         213.000
  21472498.214   -10498650.80949  -8158625.86947  21472498.219    21472507.167
       240.000         195.000
  22410383.542     7322300.31149   5699561.99946  22410383.245    22410394.485
       230.000         177.000
 01  9 24 18  6  0.0000000  0  8G29G30G21G 1G20G25G11G14
  21077555.490     3087433.84549   2404157.95547  21077555.562    21077565.280
       240.000         202.000
  24341042.011    -5967609.21649  -4639463.52945  24341039.779    24341061.230
       210.000         148.000
  22889524.844     5753814.62749   4473599.41046  22889525.131    22889541.552
       222.000         164.000
  24424127.870     -839071.96649   -632275.69144  24424127.918    24424141.755
       213.000         129.000
  23272954.595   -10406872.17049  -8089875.58646  23272954.919    23272966.380
       225.000         168.000
  20545702.783    -7638113.89049  -5935307.94648  20545702.486    20545711.990
       245.000         213.000
  21470685.859   -10508175.08349  -8166047.42947  21470685.973    21470695.005
       240.000         196.000
  22423425.122     7390834.26149   5752964.91346  22423425.595    22423437.522
       229.000         177.000
 01  9 24 18  6 30.0000000  0  8G29G30G21G 1G20G25G11G14
  21084918.185     3126124.67849   2434306.57547  21084918.225    21084927.962
       240.000         202.000
  24339891.861    -5973648.53349  -4644169.47945  24339891.004    24339909.288
       207.000         148.000
  22903007.738     5824666.60549   4528808.48746  22903007.758    22903024.801
       224.000         166.000
  24410160.719     -912469.80949   -689468.75344  24410159.298    24410175.224
       208.000         127.000
  23256165.051   -10495102.65749  -8158626.52546  23256164.922    23256175.167
       224.000         167.000
  20543581.622    -7649260.71449  -5943993.78848  20543581.365    20543590.704
       245.000         213.000
  21468981.454   -10517132.21349  -8173027.04647  21468980.994    21468990.137
       240.000         196.000
  22436480.251     7459438.25249   5806422.40546  22436480.298    22436492.156
       230.000         177.000
 01  9 24 18  7  0.0000000  0  8G29G30G21G 1G20G25G11G14
  21092307.904     3164957.59249   2464565.90947  21092308.139    21092317.727
       240.000         202.000
  24338837.211    -5979188.35049  -4648486.23845  24338839.272    24338854.204
       220.000         149.000
  22916546.280     5895810.40549   4584244.95646  22916547.374    22916563.316
       224.000         168.000
  24396218.227     -985737.34349   -746560.27944  24396216.461    24396232.269
       204.000         122.000
  23239383.786   -10583288.97949  -8227343.05246  23239382.990    23239396.540
       224.000         167.000
  20541559.467    -7659887.14549  -5952274.13248  20541559.204    20541568.587
       246.000         214.000
  21467384.625   -10525523.68949  -8179565.90047  21467384.299    21467393.709
       240.000         195.000
  22449548.260     7528109.85449   5859932.59646  22449548.581    22449559.207
       230.000         177.000
 01  9 24 18  7 30.0000000  0  8G29G30G21G 1G20G25G11G14
  21099724.586     3203932.01749   2494935.51347  21099724.764    21099734.451
       239.000         201.000
  24337879.530    -5984227.06849  -4652412.46145  24337877.358    24337898.976
       215.000         148.000
  22930140.352     5967246.04449   4639908.82746  22930140.264    22930157.458
       225.000         168.000
  24382300.783    -1058873.96149   -803549.79144  24382300.185    24382315.098
       203.000         122.000
  23222611.105   -10671429.36749  -8296023.78346  23222610.351    23222622.903
       221.000         167.000
  20539636.507    -7669992.25949  -5960148.27048  20539636.516    20539645.919
       246.000         214.000
  21465895.471   -10533349.05149  -8185663.62347  21465895.290    21465904.536
       238.000         195.000
  22462628.982     7596849.00549   5913495.41946  22462629.185    22462642.117
       230.000         177.000
 01  9 24 18  8  0.0000000  0  8G29G30G21G 1G20G25G11G14
  21107167.721     3243045.93749   2525413.83147  21107167.592    21107177.308
       239.000         201.000
  24337014.632    -5988764.90049  -4655948.43445  24337014.346    24337033.512
       207.000         149.000
  22943789.615     6038972.00549   4695798.93146  22943790.115    22943807.111
       225.000         169.000
  24368408.009    -1131881.09149   -860438.34344  24368406.213    24368422.686
       201.000         125.000
  23205847.117   -10759523.46649  -8364668.43746  23205846.497    23205858.942
       223.000         166.000
  20537812.433    -7679577.86449  -5967617.57848  20537812.099    20537821.463
       246.000         214.000
  21464513.887   -10540609.18249  -8191320.89747  21464513.517    21464522.705
       239.000         194.000
  22475722.137     7665653.13049   5967108.87346  22475722.141    22475733.810
       230.000         178.000
 01  9 24 18  8 30.0000000  0  8G29G30G21G 1G20G25G11G14
  21114637.588     3282300.07249   2556001.39547  21114637.491    21114647.598
       239.000         201.000
  24336247.019    -5992799.29349  -4659092.05945  24336248.616    24336265.744
       220.000         150.000
  22957494.302     6110989.07949   4751915.88446  22957495.007    22957511.045
       224.000         169.000
  24354539.985    -1204757.14349   -917224.80044  24354538.324    24354554.630
       202.000         127.000
  23189092.920   -10847568.04449  -8433274.54646  23189092.535    23189104.429
       225.000         166.000
  20536087.529    -7688642.42049  -5974680.87948  20536087.572    20536096.670
       246.000         214.000
  21463240.224   -10547302.35549  -8196536.39747  21463240.148    21463249.053
       239.000         195.000
  22488827.873     7734523.18449   6020773.68646  22488827.898    22488839.405
       230.000         177.000
 01  9 24 18  9  0.0000000  0  8G29G30G21G 1G20G25G11G14
  21122133.652     3321692.09549   2586696.39947  21122133.621    21122143.752
       238.000         201.000
  24335575.916    -5996330.58049  -4661843.62345  24335573.363    24335594.535
       206.000         148.000
  22971254.031     6183295.67549   4808258.41846  22971253.742    22971270.501
       225.000         169.000
  24340696.731    -1277503.24749   -973909.99944  24340695.617    24340713.626
       201.000         130.000
  23172348.154   -10935562.90849  -8501841.88246  23172348.047    23172358.738
       225.000         167.000
  20534461.504    -7697187.39949  -5981339.31148  20534461.498    20534470.456
       246.000         214.000
  21462074.277   -10553429.85349  -8201311.12747  21462074.105    21462083.612
       240.000         195.000
  22501945.548     7803456.86149   6074488.09746  22501944.988    22501958.005
       228.000         176.000
 01  9 24 18  9 30.0000000  0  8G29G30G21G 1G20G25G11G14
  21129656.080     3361222.85049   2617499.50347  21129656.014    21129666.023
       238.000         201.000
  24334998.055    -5999356.25149  -4664201.33345  24334998.601    24335017.906
       206.000         145.000
  22985069.124     6255893.49349   4864827.87446  22985069.168    22985086.843
       224.000         169.000
  24326878.399    -1350117.99349  -1030492.83745  24326877.073    24326893.337
       202.000         132.000
  23155613.315   -11023505.15949  -8570368.23346  23155612.403    23155625.127
       222.000         166.000
  20532934.506    -7705211.66649  -5987591.99848  20532934.445    20532943.635
       245.000         214.000
  21461016.260   -10558990.25049  -8205643.95847  21461016.527    21461025.504
       240.000         196.000
  22515075.313     7872454.90849   6128252.65646  22515075.028    22515087.529
       227.000         176.000
 01  9 24 18 10  0.0000000  0  8G29G30G21G 1G20G25G11G14
  21137204.743     3400890.96749   2648409.65247  21137204.848    21137214.675
       238.000         201.000
  24334518.676    -6001875.83049  -4666164.58745  24334520.552    24334538.183
       218.000         148.000
  22998939.445     6328781.93149   4921623.79746  22998939.845    22998956.043
       223.000         168.000
  24313084.820    -1422601.96749  -1086973.74645  24313083.652    24313101.653
       205.000         135.000
  23138888.434   -11111393.71549  -8638852.71346  23138886.832    23138900.362
       222.000         164.000
  20531506.447    -7712715.92349  -5993439.48848  20531506.324    20531515.225
       245.000         214.000
  21460066.100   -10563983.71749  -8209535.01147  21460066.035    21460075.157
       240.000         196.000
  22528217.350     7941516.10849   6182066.42046  22528217.599    22528230.088
       228.000         175.000
 01  9 24 18 10 30.0000000  0  8G29G30G21G 1G20G25G11G14
  21144779.275     3440694.88349   2679425.62647  21144779.194    21144789.278
       238.000         201.000
  24334135.839    -6003889.14749  -4667733.36145  24334135.439    24334156.304
       209.000         151.000
  23012864.761     6401958.93449   4978644.57346  23012864.695    23012881.961
       224.000         167.000
  24299316.234    -1494955.67549  -1143353.19145  24299315.024    24299333.037
       203.000         137.000
  23122173.964   -11199227.57049  -8707294.57946  23122171.903    23122184.961
       221.000         164.000
  20530177.206    -7719701.10149  -5998882.48848  20530176.984    20530186.224
       245.000         214.000
  21459223.594   -10568411.02649  -8212984.89547  21459223.139    21459232.959
       239.000         196.000
  22541371.170     8010638.86149   6235928.15146  22541371.533    22541382.969
       229.000         176.000
 01  9 24 18 11  0.0000000  0  8G29G30G21G 1G20G25G11G14
  21152379.382     3480633.35849   2710546.44747  21152379.233    21152389.814
       238.000         201.000
  24333848.487    -6005395.50249  -4668907.15045  24333850.336    24333869.425
       214.000         151.000
  23026845.136     6475424.31349   5035890.04746  23026844.797    23026862.488
       222.000         166.000
  24285572.186    -1567179.61249  -1199631.46845  24285570.439    24285588.463
       204.000         140.000
  23105470.085   -11287005.84749  -8775693.14146  23105469.446    23105482.053
       223.000         165.000
  20528946.580    -7726168.16949  -6003921.77448  20528946.516    20528955.905
       245.000         214.000
  21458488.718   -10572272.68049  -8215994.01747  21458488.528    21458497.832
       239.000         195.000
  22554536.375     8079822.04349   6289836.98146  22554536.979    22554549.194
       229.000         176.000
 01  9 24 18 11 30.0000000  0  8G29G30G21G 1G20G25G11G14
  21160004.653     3520703.72449   2741770.03447  21160004.694    21160014.624
       238.000         201.000
  24333659.080    -6006396.30849  -4669686.92145  24333659.248    24333679.142
       215.000         151.000
  23040879.876     6549175.94749   5093358.58046  23040880.271    23040897.585
       222.000         164.000
  24271852.524    -1639275.78549  -1255810.17645  24271851.817    24271869.405
       204.000         139.000
  23088777.104   -11374728.80349  -8844048.62046  23088776.343    23088788.410
       224.000         166.000
  20527814.135    -7732119.14049  -6008558.90248  20527814.020    20527823.349
       245.000         214.000
  21457861.140   -10575570.63949  -8218563.89847  21457860.942    21457870.634
       240.000         196.000
  22567712.745     8149062.94249   6343790.76646  22567713.367    22567725.232
       229.000         176.000
 01  9 24 18 12  0.0000000  0  8G29G30G21G 1G20G25G11G14
  21167655.767     3560910.36849   2773099.82547  21167656.027    21167665.791
       238.000         201.000
  24333565.394    -6006885.08749  -4670067.79945  24333565.293    24333584.387
       205.000         149.000
  23054969.963     6623218.13949   5151053.53145  23054970.036    23054986.464
       221.000         162.000
  24258158.179    -1711239.23349  -1311885.48345  24258157.777    24258174.512
       206.000         138.000
  23072095.825   -11462389.68149  -8912355.73046  23072096.010    23072106.728
       224.000         165.000
  20526780.833    -7737549.14249  -6012790.07348  20526780.725    20526789.963
       245.000         214.000
  21457341.844   -10578299.90349  -8220690.63147  21457341.851    21457351.517
       240.000         196.000
  22580900.858     8218365.67149   6397792.75946  22580901.357    22580913.418
       228.000         176.000
 01  9 24 18 12 30.0000000  0  8G29G30G21G 1G20G25G11G14
  21175332.307     3601250.30549   2804533.48047  21175332.362    21175342.650
       238.000         201.000
  24333569.255    -6006863.30849  -4670050.80145  24333570.660    24333590.316
       215.000         148.000
  23069114.876     6697548.56149   5208973.07345  23069114.934    23069132.237
       219.000         161.000
  24244488.892    -1783071.78649  -1367858.80545  24244489.189    24244504.365
       204.000         138.000
  23055426.205   -11549988.88149  -8980614.72246  23055425.001    23055438.307
       226.000         167.000
  20525846.255    -7742460.61649  -6016617.19848  20525846.152    20525855.413
       246.000         214.000
  21456930.342   -10580462.48349  -8222375.80947  21456929.937    21456939.829
       239.000         196.000
  22594100.010     8287727.89549   6451841.09446  22594099.690    22594113.060
       227.000         175.000
 01  9 24 18 13  0.0000000  0  8G29G30G21G 1G20G25G11G14
  21183033.713     3641721.43649   2836069.35747  21183033.491    21183043.828
       238.000         200.000
  24333671.345    -6006331.27549  -4669636.17645  24333671.690    24333691.721
       213.000         147.000
  23083314.156     6772165.89949   5267116.17045  23083314.334    23083331.528
       218.000         159.000
  24230844.204    -1854774.61049  -1423731.06845  24230844.046    24230861.884
       199.000         133.000
  23038768.429   -11637525.94049  -9048825.33346  23038767.813    23038780.254
       225.000         167.000
  20525009.974    -7746855.29749  -6020041.63048  20525010.001    20525019.007
       245.000         214.000
  21456626.413   -10582059.79549  -8223620.52447  21456626.247    21456635.972
       239.000         196.000
  22607310.191     8357147.20549   6505933.88946  22607310.315    22607323.124
       226.000         174.000
 01  9 24 18 13 30.0000000  0  8G29G30G21G 1G20G25G11G14
  21190760.128     3682324.00049   2867707.65247  21190759.862    21190770.172
       238.000         200.000
  24333869.495    -6005287.37549  -4668822.81145  24333871.261    24333888.595
       214.000         149.000
  23097567.943     6847070.17549   5325482.84945  23097568.296    23097584.901
       216.000         156.000
  24217224.252    -1926347.11549  -1479501.70844  24217223.275    24217239.477
       201.000         131.000
  23022122.833   -11724998.79149  -9116985.90146  23022122.586    23022134.407
       225.000         168.000
  20524272.130    -7750732.72049  -6023063.00648  20524271.912    20524281.160
       246.000         214.000
  21456430.152   -10583091.24949  -8224424.30347  21456430.302    21456439.434
       240.000         196.000
  22620531.210     8426623.58249   6560071.17446  22620530.503    22620543.204
       226.000         173.000
 01  9 24 18 14  0.0000000  0  8G29G30G21G 1G20G25G11G14
  21198511.248     3723056.22649   2899446.97047  21198511.686    21198521.441
       239.000         200.000
  24334166.133    -6003731.72449  -4667610.58245  24334166.077    24334185.667
       215.000         149.000
  23111876.453     6922260.31749   5384072.28145  23111876.851    23111895.018
       214.000         154.000
  24203629.168    -1997790.18749  -1535171.49445  24203629.036    24203646.928
       200.000         132.000
  23005489.609   -11812406.22849  -9185095.48646  23005487.702    23005501.602
       223.000         169.000
  20523632.531    -7754094.04849  -6025682.22548  20523632.395    20523641.637
       246.000         215.000
  21456341.517   -10583557.47949  -8224787.65247  21456341.594    21456350.916
       240.000         196.000
  22633762.826     8496155.87049   6614252.01446  22633762.982    22633775.815
       226.000         172.000
 01  9 24 18 14 30.0000000  0  8G29G30G21G 1G20G25G11G14
  21206286.848     3763916.78049   2931286.29147  21206286.683    21206297.177
       238.000         201.000
  24334559.363    -6001664.20249  -4665999.46945  24334558.086    24334581.061
       207.000         151.000
  23126239.017     6997735.25149   5442883.64945  23126238.528    23126257.186
       215.000         152.000
  24190058.644    -2069104.45849  -1590740.97845  24190059.200    24190074.704
       201.000         133.000
  22988868.775   -11899747.53549  -9253153.57446  22988867.748    22988879.845
       223.000         168.000
  20523090.881    -7756940.40349  -6027900.16248  20523090.790    20523100.048
       245.000         215.000
  21456360.252   -10583459.55749  -8224711.39547  21456360.181    21456369.450
       239.000         196.000
  22647004.805     8565742.29449   6668475.05746  22647003.885    22647017.048
       226.000         171.000
 01  9 24 18 15  0.0000000  0  8G29G30G21G 1G20G25G11G14
  21214087.056     3804907.23349   2963226.83247  21214087.283    21214097.537
       237.000         200.000
  24335049.980    -5999081.83449  -4663987.26345  24335051.155    24335070.494
       215.000         152.000
  23140656.025     7073496.45049   5501918.05745  23140655.008    23140673.904
       213.000         150.000
  24176513.094    -2140287.64349  -1646208.28545  24176512.239    24176529.016
       203.000         136.000
  22972261.381   -11987018.75549  -9321157.02646  22972260.295    22972273.399
       223.000         168.000
  20522647.564    -7759269.96649  -6029715.40148  20522647.337    20522656.885
       246.000         215.000
  21456486.676   -10582795.35449  -8224193.89047  21456486.603    21456495.724
       240.000         196.000
  22660257.379     8635384.59049   6722741.62146  22660256.991    22660268.583
       226.000         171.000
 01  9 24 18 15 30.0000000  0  8G29G30G21G 1G20G25G11G14
  21221911.388     3846024.10649   2995265.87047  21221911.446    21221921.564
       237.000         200.000
  24335639.946    -5995986.46849  -4661575.25245  24335640.427    24335659.334
       215.000         151.000
  23155127.155     7149541.37049   5561173.55145  23155126.440    23155145.050
       214.000         148.000
  24162991.848    -2211342.55949  -1701575.64245  24162990.400    24163007.802
       204.000         138.000
  22955667.286   -12074220.69249  -9389106.52646  22955665.703    22955678.305
       224.000         168.000
  20522301.934    -7761086.15249  -6031130.61948  20522301.736    20522311.230
       245.000         214.000
  21456720.354   -10581567.57549  -8223237.23147  21456719.752    21456729.407
       239.000         196.000
  22673520.042     8705079.34649   6777049.06946  22673520.079    22673532.302
       226.000         171.000
 01  9 24 18 16  0.0000000  0  8G29G30G21G 1G20G25G11G14
  21229760.108     3887269.56349   3027405.11647  21229760.223    21229770.398
       237.000         200.000
  24336326.895    -5992374.71449  -4658760.86445  24336324.583    24336346.680
       203.000         148.000
  23169652.684     7225872.40049   5620651.99745  23169652.763    23169668.981
       211.000         147.000
  24149495.542    -2282266.46949  -1756840.88945  24149495.062    24149512.085
       208.000         143.000
  22939087.331   -12161349.06949  -9456998.70046  22939087.600    22939099.233
       226.000         171.000
  20522054.504    -7762386.35549  -6032143.77748  20522054.347    20522063.785
       246.000         215.000
  21457061.697   -10579773.81149  -8221839.54447  21457061.485    21457071.005
       239.000         196.000
  22686792.957     8774828.78149   6831399.10046  22686793.839    22686805.332
       226.000         171.000
 01  9 24 18 16 30.0000000  0  8G29G30G21G 1G20G25G11G14
  21237633.024     3928641.29449   3059642.75047  21237633.252    21237643.110
       238.000         199.000
  24337111.411    -5988247.19249  -4655544.61545  24337112.917    24337132.258
       210.000         147.000
  23184232.203     7302487.23549   5680351.58245  23184232.270    23184249.892
       212.000         145.000
  24136023.789    -2353060.76949  -1812005.16845  24136022.599    24136039.272
       206.000         144.000
  22922521.562   -12248403.59949  -9524833.32146  22922521.668    22922533.648
       226.000         173.000
  20521904.940    -7763172.50349  -6032756.36648  20521904.871    20521914.203
       246.000         215.000
  21457510.402   -10577415.85949  -8220002.23647  21457510.365    21457520.256
       240.000         196.000
  22700076.075     8844630.55649   6885789.94046  22700076.204    22700089.410
       227.000         171.000
 01  9 24 18 17  0.0000000  0  8G29G30G21G 1G20G25G11G14
  21245529.581     3970137.82049   3091977.63947  21245529.306    21245539.828
       236.000         199.000
  24337995.633    -5983604.18849  -4651926.67445  24337997.275    24338014.538
       213.000         148.000
  23198865.381     7379384.58649   5740271.30445  23198863.851    23198883.402
       212.000         145.000
  24122576.473    -2423726.34849  -1867069.16045  24122575.918    24122591.764
       210.000         145.000
  22905969.933   -12335383.51549  -9592609.77946  22905969.887    22905981.822
       227.000         173.000
  20521852.928    -7763446.14149  -6032969.59948  20521852.887    20521862.048
       246.000         215.000
  21458066.356   -10574494.75549  -8217726.11047  21458066.510    21458075.869
       240.000         197.000
  22713368.742     8914483.22149   6940220.42646  22713368.462    22713381.399
       224.000         171.000
 01  9 24 18 17 30.0000000  0  8G29G30G21G 1G20G25G11G14
  21253450.164     4011760.48749   3124410.81547  21253450.572    21253460.728
       237.000         199.000
  24338977.540    -5978442.82849  -4647904.87045  24338978.196    24338997.321
       210.000         148.000
  23213552.575     7456566.18849   5800412.51845  23213552.902    23213571.034
       212.000         145.000
  24109154.097    -2494261.12749  -1922031.20745  24109153.161    24109169.682
       208.000         147.000
  22889433.212   -12422285.06749  -9660325.19146  22889431.896    22889444.808
       227.000         173.000
  20521898.761    -7763205.48649  -6032782.07848  20521898.845    20521907.929
       246.000         215.000
  21458729.830   -10571008.77449  -8215009.82447  21458729.890    21458738.989
       240.000         197.000
  22726671.188     8984388.39849   6994691.83246  22726671.303    22726684.034
       224.000         170.000
 01  9 24 18 18  0.0000000  0  8G29G30G21G 1G20G25G11G14
  21261394.382     4053506.98049   3156940.47847  21261394.443    21261404.560
       237.000         199.000
  24340058.280    -5972764.42049  -4643480.12745  24340060.357    24340079.670
       212.000         147.000
  23228293.624     7534029.38849   5860773.15845  23228294.147    23228311.398
       213.000         145.000
  24095756.173    -2564666.91649  -1976892.75345  24095755.615    24095772.109
       204.000         145.000
  22872911.253   -12509108.15449  -9727979.47946  22872910.574    22872922.919
       228.000         173.000
  20522042.011    -7762452.89749  -6032195.64548  20522041.936    20522050.841
       247.000         215.000
  21459500.390   -10566959.86849  -8211854.88447  21459500.417    21459509.769
       240.000         197.000
  22739983.302     9054343.46649   7049202.10346  22739983.047    22739995.919
       224.000         170.000
 01  9 24 18 18 30.0000000  0  8G29G30G21G 1G20G25G11G14
  21269361.805     4095375.83849   3189565.48547  21269362.087    21269372.236
       238.000         199.000
  24341237.537    -5966568.80549  -4638652.34745  24341237.102    24341257.464
       206.000         147.000
  23243088.170     7611773.47649   5921352.67045  23243089.024    23243106.313
       214.000         145.000
  24082382.864    -2634944.12949  -2031654.09145  24082382.923    24082398.947
       209.000         143.000
  22856404.581   -12595851.46149  -9795571.61946  22856403.581    22856415.578
       228.000         173.000
  20522282.360    -7761189.72449  -6031211.35848  20522282.100    20522291.459
       246.000         215.000
  21460377.880   -10562348.94949  -8208262.00147  21460377.580    21460386.920
       240.000         196.000
  22753304.780     9124347.33049   7103750.38546  22753305.135    22753317.429
       224.000         170.000
 01  9 24 18 19  0.0000000  0  8G29G30G21G 1G20G25G11G14
  21277352.421     4137366.71849   3222285.58147  21277352.096    21277362.772
       237.000         199.000
  24342513.942    -5959855.26449  -4633421.06745  24342515.297    24342534.434
       208.000         149.000
  23257935.935     7689797.95249   5982150.67345  23257935.496    23257955.160
       215.000         145.000
  24069034.117    -2705092.77049  -2086315.23945  24069034.124    24069049.381
       209.000         142.000
  22839913.271   -12682513.29549  -9863100.24846  22839911.608    22839923.926
       228.000         173.000
  20522619.891    -7759416.03649  -6029829.25948  20522619.636    20522629.015
       246.000         215.000
  21461362.228   -10557176.34549  -8204231.44647  21461362.398    21461371.418
       241.000         196.000
  22766635.433     9194399.42049   7158336.25346  22766634.747    22766649.404
       224.000         170.000
 01  9 24 18 19 30.0000000  0  8G29G30G21G 1G20G25G11G14
  21285366.237     4179479.35849   3255100.54647  21285366.507    21285376.615
       237.000         198.000
  24343891.056    -5952622.81049  -4627785.35945  24343893.293    24343912.544
       214.000         150.000
  23272837.091     7768102.79749   6043167.11645  23272836.531    23272855.303
       212.000         145.000
  24055709.712    -2775112.44149  -2140875.95145  24055707.960    24055724.445
       210.000         142.000
  22823438.008   -12769091.35249  -9930563.60746  22823437.893    22823448.595
       228.000         173.000
  20523054.525    -7757131.85349  -6028049.37348  20523054.545    20523063.594
       246.000         215.000
  21462453.541   -10551441.83549  -8199763.05647  21462453.583    21462463.096
       240.000         196.000
  22779975.185     9264499.59049   7212959.57146  22779975.151    22779988.937
       223.000         171.000
 01  9 24 18 20  0.0000000  0  8G29G30G21G 1G20G25G11G14
  21293403.108     4221712.73349   3288009.59947  21293403.044    21293413.959
       237.000         198.000
  24345366.448    -5944871.32949  -4621745.24445  24345365.334    24345387.068
       209.000         149.000
  23287791.193     7846686.59449   6104400.94645  23287791.797    23287809.511
       214.000         145.000
  24042409.784    -2845003.59549  -2195336.47445  24042409.436    24042424.678
       213.000         145.000
  22806979.113   -12855584.37849  -9997960.70046  22806979.587    22806989.792
       229.000         175.000
  20523586.114    -7754338.52049  -6025872.74448  20523586.167    20523595.283
       246.000         215.000
  21463651.625   -10545146.46749  -8194857.62047  21463651.493    21463660.646
       242.000         197.000
  22793323.810     9334646.76549   7267619.53246  22793323.980    22793336.866
       225.000         170.000
 01  9 24 18 20 30.0000000  0  8G29G30G21G 1G20G25G11G14
  21301463.196     4264068.50149   3321014.01847  21301463.294    21301473.652
       237.000         198.000
  24346940.516    -5936597.78949  -4615298.41045  24346942.093    24346959.108
       215.000         149.000
  23302799.007     7925551.77649   6165853.99745  23302799.498    23302817.071
       213.000         146.000
  24029134.791    -2914763.96549  -2249695.09845  24029134.087    24029149.557
       214.000         147.000
  22790537.057   -12941987.98349 -10065288.12646  22790537.109    22790547.356
       228.000         174.000
  20524214.927    -7751034.26549  -6023298.00648  20524214.772    20524224.017
       246.000         215.000
  21464956.794   -10538288.00549  -8189513.42947  21464956.640    21464965.965
       241.000         196.000
  22806682.020     9404842.76949   7322317.51846  22806681.713    22806695.040
       224.000         170.000
 01  9 24 18 21  0.0000000  0  8G29G30G21G 1G20G25G11G14
  21309545.681     4306542.38149   3354110.47447  21309545.818    21309556.290
       237.000         198.000
  24348614.555    -5927805.44449  -4608447.19045  24348614.575    24348634.355
       210.000         149.000
  23317859.588     8004694.24649   6227523.13945  23317859.122    23317878.075
       214.000         147.000
  24015883.920    -2984397.24449  -2303954.71945  24015883.500    24015899.468
       215.000         149.000
  22774111.601   -13028304.03949 -10132547.32146  22774110.911    22774121.849
       227.000         174.000
  20524940.190    -7747223.19149  -6020328.33148  20524939.850    20524949.233
       246.000         215.000
  21466368.272   -10530870.61249  -8183733.69547  21466367.883    21466377.567
       240.000         195.000
  22820048.521     9475083.43449   7377050.32646  22820048.199    22820061.216
       223.000         169.000
 01  9 24 18 21 30.0000000  0  8G29G30G21G 1G20G25G11G14
  21317650.884     4349135.11149   3387299.53547  21317651.187    21317661.606
       237.000         198.000
  24350385.974    -5918492.51449  -4601190.45645  24350387.667    24350407.276
       208.000         149.000
  23332973.159     8084114.88549   6289409.03945  23332973.129    23332992.470
       215.000         147.000
  24002657.547    -3053902.35649  -2358114.42945  24002656.717    24002672.695
       216.000         153.000
  22757703.104   -13114529.75549 -10199736.12446  22757702.011    22757713.722
       227.000         173.000
  20525761.891    -7742904.96349  -6016963.48048  20525761.791    20525770.926
       246.000         215.000
  21467886.218   -10522893.64549  -8177517.93547  21467886.032    21467895.301
       240.000         195.000
  22833423.461     9545369.44749   7431818.47346  22833423.350    22833435.963
       222.000         168.000
 01  9 24 18 22  0.0000000  0  8G29G30G21G 1G20G25G11G14
  21325779.010     4391848.14249   3420582.33547  21325779.280    21325789.662
       237.000         198.000
  24352258.672    -5908656.45249  -4593525.99145  24352259.452    24352276.559
       217.000         148.000
  23348139.859     8163814.58049   6351512.36045  23348139.779    23348160.685
       214.000         147.000
  23989455.891    -3123277.12049  -2412172.54945  23989454.756    23989470.905
       214.000         153.000
  22741312.789   -13200660.81949 -10266851.18046  22741312.507    22741324.456
       227.000         175.000
  20526680.527    -7738077.59649  -6013201.89548  20526680.175    20526689.696
       247.000         215.000
  21469511.101   -10514355.22849  -8170864.69147  21469510.937    21469520.424
       241.000         195.000
  22846807.627     9615702.45549   7486623.23646  22846808.394    22846819.504
       224.000         167.000
 01  9 24 18 22 30.0000000  0  8G29G30G21G 1G20G25G11G14
  21333929.123     4434676.98249   3453955.37947  21333929.138    21333939.903
       237.000         198.000
  24354229.913    -5898300.84349  -4585456.66545  24354227.229    24354247.741
       209.000         147.000
  23363358.781     8243789.15349   6413829.88845  23363357.874    23363377.597
       213.000         146.000
  23976278.225    -3192525.71649  -2466132.39045  23976277.139    23976292.297
       211.000         151.000
  22724940.180   -13286699.64149 -10333894.36546  22724940.061    22724952.183
       227.000         175.000
  20527695.008    -7732746.40249  -6009047.71948  20527694.913    20527704.027
       247.000         215.000
  21471241.925   -10505260.24949  -8163777.74947  21471241.819    21471251.381
       242.000         196.000
  22860199.862     9686077.63949   7541460.87746  22860199.913    22860213.280
       222.000         166.000
 01  9 24 18 23  0.0000000  0  8G29G30G21G 1G20G25G11G14
  21342101.755     4477624.08549   3487420.57147  21342101.780    21342112.258
       236.000         198.000
  24356299.224    -5887422.08549  -4576979.78245  24356300.744    24356319.458
       216.000         149.000
  23378630.406     8324041.50049   6476363.84245  23378630.711    23378649.257
       211.000         146.000
  23963125.045    -3261645.09749  -2519991.60045  23963124.104    23963140.361
       212.000         150.000
  22708586.123   -13372641.33349 -10400861.85746  22708585.453    22708596.943
       227.000         175.000
  20528805.873    -7726908.80749  -6004498.95248  20528805.674    20528814.950
       246.000         215.000
  21473079.193   -10495605.90149  -8156254.94447  21473079.037    21473088.631
       240.000         196.000
  22873600.194     9756497.58349   7596333.39446  22873600.696    22873613.133
       223.000         166.000
 01  9 24 18 23 30.0000000  0  8G29G30G21G 1G20G25G11G14
  21350296.592     4520687.92549   3520976.72747  21350296.517    21350307.415
       237.000         197.000
  24358469.867    -5876020.65649  -4568095.55045  24358470.012    24358487.226
       216.000         151.000
  23393954.578     8404569.46549   6539112.58245  23393955.681    23393974.408
       212.000         146.000
  23949996.438    -3330635.74749  -2573750.44545  23949995.233    23950011.059
       214.000         150.000
  22692250.504   -13458484.57349 -10467752.62446  22692250.422    22692261.818
       227.000         174.000
  20530012.847    -7720566.20149  -5999556.66548  20530012.758    20530021.810
       246.000         215.000
  21475022.581   -10485393.42849  -8148297.24747  21475021.992    21475032.364
       240.000         196.000
  22887009.288     9826961.22549   7651239.93546  22887009.093    22887022.220
       222.000         166.000
 01  9 24 18 24  0.0000000  0  9G29G22G30G21G 1G20G25G11G14
  21358512.245     4563860.86949   3554617.89547  21358512.360    21358523.065
       237.000         198.000
  24531761.363    -2926882.72949  -1469436.62945  24531758.387    24531782.315
       205.000         140.000
  24360737.102    -5864103.13049  -4558809.20145  24360736.833    24360754.997
       212.000         149.000
  23409329.823     8485365.45049   6602070.17145  23409330.208    23409349.938
       212.000         147.000
  23936891.006    -3399505.05549  -2627414.77445  23936890.106    23936906.023
       211.000         148.000
  22675932.680   -13544234.74549 -10534570.86646  22675931.339    22675944.162
       225.000         173.000
  20531314.455    -7713726.58549  -5994227.10348  20531314.427    20531323.505
       246.000         215.000
  21477070.584   -10474630.73949  -8139910.80447  21477070.144    21477079.934
       240.000         195.000
  22900424.958     9897460.70749   7706174.42646  22900424.596    22900436.936
       222.000         166.000
 01  9 24 18 24 30.0000000  0  9G29G22G30G21G 1G20G25G11G14
  21366750.175     4607150.88349   3588350.29147  21366749.997    21366760.664
       237.000         197.000
  24512908.331    -3025952.07849  -1546633.07745  24512907.467    24512928.746
       206.000         140.000
  24363104.827    -5851660.78249  -4549113.85245  24363105.583    24363123.334
       214.000         149.000
  23424757.636     8566437.94849   6665243.20945  23424758.097    23424777.373
       213.000         148.000
  23923810.255    -3468244.44649  -2680977.78545  23923810.221    23923825.168
       216.000         146.000
  22659634.449   -13629881.38349 -10601308.45046  22659633.602    22659646.066
       224.000         173.000
  20532712.054    -7706382.07949  -5988504.11848  20532711.789    20532721.137
       246.000         215.000
  21479224.913   -10463309.71649  -8131089.28947  21479224.992    21479234.428
       240.000         195.000
  22913848.921     9968004.14249   7761143.16846  22913849.092    22913861.962
       223.000         166.000
 01  9 24 18 25  0.0000000  0  9G29G22G30G21G 1G20G25G11G14
  21375010.192     4650557.40349   3622173.46647  21375009.819    21375020.531
       236.000         197.000
  24494037.177    -3125118.96849  -1623905.57045  24494035.592    24494058.515
       208.000         141.000
  24365572.470    -5838693.47849  -4539009.47845  24365573.385    24365590.784
       211.000         150.000
  23440237.797     8647785.76849   6728630.78945  23440238.840    23440257.002
       212.000         148.000
  23910754.304    -3536854.33949  -2734439.96645  23910754.169    23910768.470
       216.000         147.000
  22643356.349   -13715423.10749 -10667964.27046  22643355.441    22643368.546
       226.000         175.000
  20534205.457    -7698534.09149  -5982388.80748  20534205.176    20534214.481
       246.000         215.000
  21481485.299   -10451431.49849  -8121833.60947  21481485.187    21481494.559
       241.000         195.000
  22927281.381    10038590.69049   7816145.50646  22927280.694    22927295.119
       223.000         166.000
 01  9 24 18 25 30.0000000  0  9G29G22G30G21G 1G20G25G11G14
  21383292.026     4694078.37449   3656085.83047  21383292.305    21383302.656
       237.000         197.000
  24475147.947    -3224381.54249  -1701252.62645  24475146.089    24475168.725
       208.000         141.000
  24368139.837    -5825201.97449  -4528496.65045  24368140.987    24368158.798
       217.000         150.000
  23455770.083     8729407.25749   6792231.60645  23455770.548    23455789.902
       211.000         148.000
  23897722.785    -3605335.78049  -2787802.08845  23897722.161    23897737.112
       217.000         147.000
  22627098.629   -13800858.83849 -10734537.48846  22627097.996    22627109.447
       227.000         176.000
  20535794.429    -7690183.96049  -5975882.21948  20535794.225    20535803.365
       247.000         215.000
  21483851.476   -10438997.53749  -8112144.85947  21483851.359    21483860.742
       240.000         195.000
  22940721.627    10109218.85749   7871180.26746  22940721.259    22940734.303
       222.000         166.000
 01  9 24 18 26  0.0000000  0  9G29G22G30G21G 1G20G25G11G14
  21391595.372     4737712.30349   3690086.20447  21391595.537    21391605.896
       237.000         197.000
  24456240.790    -3323738.36149  -1778673.12645  24456237.909    24456261.942
       207.000         142.000
  24370807.170    -5811187.39349  -4517576.17345  24370804.673    24370825.073
       209.000         148.000
  23471354.022     8811300.70149   6856044.34945  23471354.359    23471374.065
       207.000         146.000
  23884715.278    -3673690.05249  -2841065.08045  23884714.316    23884729.869
       213.000         147.000
  22610861.221   -13886187.93549 -10801027.61446  22610859.468    22610871.893
       226.000         175.000
  20537478.561    -7681333.88649  -5968986.06848  20537478.280    20537487.611
       246.000         215.000
  21486323.013   -10426009.88249  -8102024.64947  21486323.088    21486332.572
       240.000         194.000
  22954169.300    10179886.85749   7926246.06346  22954169.139    22954183.693
       223.000         166.000
 01  9 24 18 26 30.0000000  0  9G29G22G30G21G 1G20G25G11G14
  21399920.258     4781459.56249   3724174.88647  21399919.994    21399930.899
       236.000         196.000
  24437316.118    -3423185.54849  -1856164.03945  24437314.589    24437336.816
       206.000         143.000
  24373572.669    -5796648.39749  -4506247.10745  24373573.826    24373591.762
       204.000         145.000
  23486989.806     8893465.63649   6920068.61745  23486989.256    23487009.496
       207.000         144.000
  23871732.005    -3741916.38649  -2894228.33745  23871731.234    23871745.814
       213.000         145.000
  22594644.370   -13971407.81349 -10867432.65146  22594644.263    22594654.574
       228.000         174.000
  20539257.727    -7671984.09049  -5961700.52648  20539257.488    20539266.816
       246.000         215.000
  21488899.985   -10412468.25849  -8091472.79447  21488899.744    21488909.665
       239.000         194.000
  22967624.960    10250594.96049   7981343.09446  22967624.724    22967638.415
       223.000         167.000
 01  9 24 18 27  0.0000000  0  9G29G22G30G21G 1G20G25G11G14
  21408266.502     4825319.53549   3758351.40747  21408266.246    21408276.731
       235.000         196.000
  24418374.672    -3522720.47449  -1933723.34145  24418373.102    24418395.400
       206.000         143.000
  24376438.685    -5781584.87849  -4494509.29545  24376440.561    24376459.691
       206.000         145.000
  23502677.047     8975901.94749   6984304.33045  23502677.725    23502696.777
       207.000         143.000
  23858773.098    -3810015.02949  -2947292.10045  23858772.106    23858788.031
       209.000         143.000
  22578448.783   -14056516.30349 -10933750.88646  22578447.646    22578458.478
       228.000         176.000
  20541131.935    -7662135.19149  -5954026.06948  20541131.850    20541141.028
       246.000         215.000
  21491582.207   -10398373.43149  -8080489.87847  21491581.688    21491591.895
       239.000         194.000
  22981087.844    10321342.69849   8036471.03046  22981087.174    22981101.949
       221.000         165.000
 01  9 24 18 27 30.0000000  0  9G29G22G30G21G 1G20G25G11G14
  21416633.978     4869290.81249   3792614.64447  21416634.293    21416644.683
       235.000         196.000
  24399417.337    -3622340.93649  -2011349.33345  24399414.587    24399438.313
       207.000         144.000
  24379404.759    -5765997.40749  -4482363.28145  24379407.457    24379426.568
       216.000         149.000
  23518415.879     9058608.21249   7048750.39845  23518415.390    23518435.025
       206.000         144.000
  23845838.236    -3877986.70449  -3000256.97045  23845836.811    23845852.657
       208.000         142.000
  22562274.474   -14141512.41649 -10999981.55946  22562273.093    22562284.926
       227.000         176.000
  20543100.810    -7651788.67449  -5945963.86148  20543100.647    20543109.865
       246.000         215.000
  21494369.349   -10383727.11949  -8069077.27447  21494369.368    21494378.765
       240.000         194.000
  22994557.999    10392128.90649   8091628.92546  22994559.038    22994572.218
       223.000         164.000
 01  9 24 18 28  0.0000000  0  9G29G22G30G21G 1G20G25G11G14
  21425022.596     4913372.60649   3826964.01347  21425022.576    21425033.207
       237.000         196.000
  24380444.246    -3722044.50749  -2089040.08845  24380441.981    24380464.764
       206.000         143.000
  24382472.284    -5749886.31749  -4469809.18145  24382473.675    24382490.991
       219.000         151.000
  23534205.803     9141583.13149   7113405.81445  23534206.808    23534225.941
       205.000         143.000
  23832927.621    -3945831.81549  -3053123.16945  23832927.118    23832942.017
       207.000         142.000
  22546121.723   -14226394.67449 -11066123.49346  22546120.815    22546133.936
       228.000         176.000
  20545164.053    -7640946.24249  -5937515.21448  20545163.789    20545173.063
       246.000         215.000
  21497261.221   -10368530.52249  -8057235.85847  21497261.046    21497270.810
       239.000         195.000
  23008035.567    10462952.73149   8146816.14246  23008035.339    23008048.337
       221.000         164.000
 01  9 24 18 28 30.0000000  0  9G29G22G30G21G 1G20G25G11G14
  21433432.006     4957563.87249   3861398.67947  21433431.994    21433442.690
       239.000         196.000
  24361455.479    -3821828.61549  -2166793.59745  24361453.936    24361476.523
       207.000         144.000
  24385638.176    -5733251.54149  -4456847.06645  24385637.894    24385656.541
       210.000         149.000
  23550046.836     9224826.09149   7178270.09945  23550047.272    23550067.995
       208.000         144.000
  23820041.058    -4013550.96349  -3105891.22145  23820041.049    23820056.248
       213.000         144.000
  22529991.146   -14311161.23649 -11132175.28746  22529990.812    22530002.045
       231.000         177.000
  20547321.485    -7629609.09349  -5928681.07448  20547321.335    20547330.698
       248.000         215.000
  21500257.562   -10352784.59549  -8044966.38147  21500256.902    21500267.075
       241.000         194.000
  23021519.939    10533813.37349   8202032.05946  23021519.134    23021533.855
       224.000         163.000
 01  9 24 18 29  0.0000000  0  9G29G22G30G21G 1G20G25G11G14
  21441861.912     5001862.92049   3895917.32547  21441862.098    21441872.755
       236.000         196.000
  24342451.986    -3921691.64749  -2244608.62245  24342450.182    24342473.492
       206.000         142.000
  24388902.710    -5716094.43149  -4443477.92045  24388902.694    24388922.005
       209.000         144.000
  23565938.432     9308334.80849   7243341.46045  23565938.430    23565958.633
       204.000         143.000
  23807178.195    -4081145.52749  -3158562.21545  23807178.004    23807193.038
       213.000         145.000
  22513882.743   -14395811.72449 -11198136.65046  22513882.663    22513893.400
       230.000         177.000
  20549572.657    -7617779.13149  -5919462.93248  20549572.477    20549581.671
       246.000         215.000
  21503358.041   -10336491.44449  -8032270.50247  21503357.925    21503368.026
       239.000         193.000
  23035010.975    10604708.88649   8257275.15145  23035011.413    23035024.724
       222.000         162.000
 01  9 24 18 29 30.0000000  0  9G29G22G30G21G 1G20G25G11G14
  21450312.985     5046273.60649   3930522.95747  21450313.067    21450324.056
       236.000         196.000
  24323434.603    -4021626.40349  -2322479.55245  24323433.238    24323456.110
       207.000         141.000
  24392267.535    -5698410.57049  -4429698.32445  24392266.365    24392285.015
       203.000         142.000
  23581881.016     9392112.65549   7308622.52845  23581881.303    23581900.888
       207.000         143.000
  23794339.902    -4148611.16949  -3211132.72545  23794339.122    23794355.595
       211.000         144.000
  22497797.639   -14480339.84149 -11264002.63046  22497796.849    22497808.140
       228.000         177.000
  20551918.214    -7605453.16049  -5909858.28948  20551918.023    20551927.279
       246.000         215.000
  21506563.349   -10319647.65049  -8019145.52847  21506563.516    21506573.049
       240.000         193.000
  23048509.579    10675643.23849   8312548.46445  23048508.580    23048523.456
       218.000         160.000
 01  9 24 18 30  0.0000000  0  9G29G22G30G21G 1G20G25G11G14
  21458784.622     5090791.88349   3965212.42947  21458784.842    21458795.662
       237.000         195.000
  24304403.654    -4121633.53149  -2400406.86845  24304402.502    24304425.040
       208.000         140.000
  24395731.948    -5680203.10449  -4415510.73545  24395733.375    24395751.397
       214.000         145.000
  23597874.162     9476155.46549   7374110.07145  23597873.612    23597894.838
       205.000         142.000
  23781525.294    -4215951.43249  -3263605.53845  23781525.662    23781539.911
       207.000         140.000
  22481735.235   -14564747.00449 -11329774.35646  22481733.460    22481745.839
       227.000         177.000
  20554357.328    -7592635.68349  -5899870.65448  20554357.255    20554366.403
       246.000         215.000
  21509872.650   -10302257.55549  -8005594.85447  21509872.115    21509882.246
       239.000         193.000
  23062014.448    10746612.53049   8367849.03645  23062013.780    23062028.932
       219.000         160.000
 01  9 24 18 30 30.0000000  0  9G29G22G30G21G 1G20G25G11G14
  21467276.919     5135418.52149   3999986.34547  21467276.734    21467287.969
       236.000         195.000
  24285359.841    -4221708.61749  -2478387.15145  24285358.366    24285379.509
       208.000         138.000
  24399297.720    -5661471.00749  -4400914.30045  24399296.019    24399316.122
       212.000         147.000
  23613917.446     9560463.48449   7439804.26345  23613918.444    23613937.979
       204.000         142.000
  23768734.829    -4283165.08449  -3315979.69645  23768732.589    23768748.858
       206.000         138.000
  22465696.519   -14649029.87949 -11395449.23446  22465694.923    22465706.630
       229.000         178.000
  20556889.980    -7579326.17149  -5889499.61548  20556889.781    20556898.989
       246.000         215.000
  21513285.942   -10284320.91549  -7991618.29147  21513285.942    21513295.354
       240.000         193.000
  23075526.681    10817617.86149   8423177.66445  23075527.825    23075539.868
       221.000         160.000
 01  9 24 18 31  0.0000000  0  9G29G22G30G21G 1G20G25G11G14
  21475789.498     5180152.15949   4034843.63947  21475789.730    21475800.298
       236.000         195.000
  24266303.421    -4321849.90149  -2556419.01545  24266302.418    24266322.763
       207.000         136.000
  24402961.769    -5642215.12749  -4385909.81845  24402963.350    24402978.996
       217.000         147.000
  23630011.037     9645035.38649   7505704.06545  23630011.334    23630031.653
       203.000         141.000
  23755968.002    -4350253.54749  -3368256.29545  23755966.587    23755983.664
       205.000         136.000
  22449681.728   -14733187.75049 -11461026.70846  22449679.860    22449691.670
       228.000         179.000
  20559515.902    -7565526.93649  -5878746.97748  20559515.723    20559524.831
       246.000         215.000
  21516802.910   -10265839.60949  -7977217.32447  21516802.538    21516812.219
       240.000         193.000
  23089045.338    10888657.46449   8478533.02845  23089044.657    23089058.694
       220.000         159.000
 01  9 24 18 31 30.0000000  0  9G29G22G30G21G 1G20G25G11G14
  21484322.228     5224991.49749   4069783.29547  21484322.453    21484333.197
       236.000         195.000
  24247234.664    -4422055.01949  -2634500.62445  24247233.010    24247253.967
       206.000         135.000
  24406726.810    -5622436.21449  -4370497.70045  24406725.955    24406745.622
       213.000         147.000
  23646154.813     9729869.65049   7571808.33745  23646154.528    23646175.078
       207.000         141.000
  23743225.018    -4417217.45949  -3420435.87645  23743222.709    23743239.517
       204.000         136.000
  22433690.893   -14817219.14949 -11526505.63546  22433690.489    22433702.013
       230.000         179.000
  20562234.713    -7551239.32349  -5867613.78848  20562234.571    20562243.937
       246.000         215.000
  21520423.154   -10246815.18749  -7962393.18347  21520423.101    21520433.045
       238.000         193.000
  23102570.109    10959730.48549   8533914.42245  23102569.824    23102584.239
       218.000         159.000
 01  9 24 18 32  0.0000000  0  9G29G22G30G21G 1G20G25G11G14
  21492875.299     5269937.98349   4104806.43747  21492875.382    21492886.535
       237.000         195.000
  24228154.593    -4522319.30049  -2712628.37645  24228153.139    24228173.680
       208.000         135.000
  24410589.498    -5602132.19749  -4354676.52645  24410588.301    24410608.263
       202.000         146.000
  23662348.800     9814967.48949   7638117.96845  23662348.987    23662368.359
       204.000         141.000
  23730506.062    -4484055.00949  -3472516.97745  23730503.564    23730520.466
       205.000         136.000
  22417724.904   -14901120.41049 -11591883.16546  22417724.113    22417736.623
       231.000         180.000
  20565046.630    -7536462.57149  -5856099.45348  20565046.505    20565055.703
       246.000         215.000
  21524146.857   -10227246.87349  -7947145.23047  21524146.733    21524156.992
       239.000         193.000
  23116101.531    11030838.23349   8589322.86045  23116102.275    23116115.767
       220.000         160.000
 01  9 24 18 32 30.0000000  0  9G29G22G30G21G 1G20G25G11G14
  21501448.686     5314991.03749   4139912.61747  21501448.667    21501459.700
       236.000         195.000
  24209063.936    -4622639.83049  -2790799.96645  24209061.905    24209084.172
       209.000         136.000
  24414552.888    -5581303.69049  -4338446.52545  24414552.247    24414570.341
       211.000         145.000
  23678592.544     9900327.80949   7704632.13545  23678591.532    23678615.005
       204.000         139.000
  23717811.237    -4550766.40549  -3524499.73845  23717810.232    23717826.710
       209.000         139.000
  22401784.191   -14984889.28449 -11657157.52846  22401783.788    22401795.980
       231.000         180.000
  20567951.412    -7521198.24749  -5844205.19448  20567951.344    20567960.520
       247.000         215.000
  21527973.973   -10207135.72649  -7931474.28447  21527974.274    21527983.927
       240.000         193.000
  23129639.758    11101980.15249   8644757.91745  23129640.303    23129653.744
       221.000         162.000
 01  9 24 18 33  0.0000000  0  9G29G22G30G21G 1G20G25G11G14
  21510041.599     5360146.88649   4175098.89247  21510041.618    21510053.079
       236.000         195.000
  24189962.849    -4723016.85249  -2869015.57945  24189961.288    24189982.930
       209.000         138.000
  24418615.667    -5559953.39849  -4321809.98545  24418613.686    24418635.928
       202.000         146.000
  23694885.459     9985947.01149   7771348.00445  23694885.372    23694907.918
       201.000         137.000
  23705139.844    -4617355.06249  -3576386.85845  23705139.443    23705155.468
       211.000         145.000
  22385868.586   -15068527.15349 -11722329.82546  22385867.656    22385879.501
       229.000         180.000
  20570948.171    -7505450.31749  -5831934.10948  20570948.159    20570957.461
       247.000         215.000
  21531903.610   -10186486.00549  -7915383.66147  21531903.953    21531913.910
       240.000         194.000
  23143183.621    11173152.45549   8700216.67746  23143183.847    23143197.610
       221.000         163.000
 01  9 24 18 33 30.0000000  0  9G29G22G30G21G 1G20G25G11G14
  21518654.655     5405408.36249   4210367.48647  21518654.715    21518665.693
       236.000         195.000
  24170851.913    -4823444.46449  -2947270.61145  24170851.258    24170872.681
       211.000         141.000
  24422777.895    -5538078.71949  -4304764.91845  24422780.951    24422798.278
       214.000         148.000
  23711227.943    10071826.87549   7838266.97445  23711228.738    23711250.041
       200.000         135.000
  23692492.272    -4683818.24949  -3628176.22545  23692491.649    23692507.108
       212.000         149.000
  22369978.537   -15152029.13349 -11787396.19846  22369977.067    22369989.429
       230.000         180.000
  20574037.353    -7489216.85049  -5819284.67948  20574037.130    20574046.535
       247.000         215.000
  21535936.083   -10165295.90749  -7898871.96547  21535935.652    21535946.065
       241.000         194.000
  23156733.990    11244357.76249   8755701.13645  23156735.066    23156748.083
       221.000         162.000
 01  9 24 18 34  0.0000000  0  9G29G22G30G21G 1G20G25G11G14
  21527287.287     5450772.62749   4245716.18347  21527287.539    21527298.811
       236.000         195.000
  24151731.380    -4923921.77949  -3025564.38745  24151730.015    24151752.172
       213.000         143.000
  24427041.013    -5515681.93849  -4287312.92545  24427039.532    24427057.916
       205.000         146.000
  23727619.695    10157964.30749   7905386.64445  23727620.430    23727641.164
       202.000         133.000
  23679868.106    -4750158.09049  -3679869.49545  23679867.179    23679883.649
       210.000         149.000
  22354114.504   -15235395.22149 -11852356.70246  22354113.579    22354124.812
       230.000         179.000
  20577218.199    -7472501.07949  -5806259.42948  20577218.048    20577227.484
       246.000         215.000
  21540070.777   -10143568.32049  -7881941.45947  21540070.959    21540080.514
       239.000         194.000
  23170289.771    11315593.88549   8811209.61345  23170288.083    23170303.738
       217.000         160.000
 01  9 24 18 34 30.0000000  0  9G29G22G30G21G 1G20G25G11G14
  21535939.824     5496241.03649   4281146.03047  21535939.699    21535951.002
       235.000         194.000
  24132602.392    -5024444.15549  -3103893.25845  24132601.548    24132622.952
       215.000         145.000
  24431401.244    -5492761.27549  -4269452.80045  24431402.112    24431421.162
       204.000         142.000
  23744060.857    10244360.18549   7972707.72245  23744060.569    23744082.418
       202.000         133.000
  23667267.670    -4816373.01049  -3731465.39845  23667266.302    23667281.912
       208.000         146.000
  22338276.862   -15318621.83549 -11917208.53646  22338276.923    22338287.004
       232.000         180.000
  20580491.034    -7455302.40549  -5792857.89048  20580491.003    20580500.397
       247.000         215.000
  21544307.792   -10121302.74349  -7864591.71747  21544307.656    21544317.284
       239.000         193.000
  23183851.379    11386861.96249   8866742.98445  23183851.863    23183864.623
       220.000         160.000
 01  9 24 18 35  0.0000000  0  9G29G22G30G21G 1G20G25G11G14
  21544611.790     5541812.61649   4316656.26447  21544612.005    21544622.785
       236.000         194.000
  24113465.405    -5125009.06549  -3182255.26745  24113463.936    24113485.158
       215.000         146.000
  24435863.043    -5469317.64349  -4251185.03045  24435863.294    24435883.238
       212.000         142.000
  23760550.589    10331013.02749   8040229.03445  23760550.473    23760570.916
       206.000         133.000
  23654690.811    -4882463.67849  -3782964.48245  23654689.080    23654705.733
       209.000         143.000
  22322466.086   -15401707.36149 -11981950.43546  22322465.359    22322477.264
       230.000         181.000
  20583855.428    -7437622.66249  -5779081.49948  20583855.393    20583864.576
       246.000         215.000
  21548646.867   -10098500.66349  -7846823.93047  21548646.702    21548656.789
       239.000         193.000
  23197419.548    11458161.08249   8922300.52345  23197420.260    23197434.277
       219.000         160.000
 01  9 24 18 35 30.0000000  0  9G29G22G30G21G 1G20G25G11G14
  21553303.290     5587486.12549   4352245.91847  21553303.019    21553314.521
       235.000         194.000
  24094320.794    -5225614.24549  -3260648.65945  24094319.490    24094341.217
       216.000         147.000
  24440423.716    -5445351.75449  -4232510.38545  24440423.917    24440442.009
       208.000         142.000
  23777089.094    10417921.62849   8107949.63445  23777088.494    23777111.417
       208.000         133.000
  23642137.590    -4948430.99349  -3834367.49245  23642136.619    23642151.113
       209.000         142.000
  22306682.421   -15484650.51349 -12046581.39646  22306680.836    22306692.573
       227.000         181.000
  20587310.927    -7419463.92849  -5764931.86148  20587310.891    20587320.148
       246.000         215.000
  21553087.685   -10075164.29049  -7828639.80047  21553087.468    21553097.467
       239.000         193.000
  23210993.069    11529490.06549   8977881.35545  23210992.434    23211008.043
       217.000         158.000
 01  9 24 18 36  0.0000000  0  9G29G22G30G21G 1G20G25G11G14
  21562014.048     5633261.67849   4387915.08847  21562013.938    21562025.354
       234.000         193.000
  24075169.210    -5326256.24649  -3339070.74045  24075167.728    24075189.112
       214.000         145.000
  24445084.471    -5420863.62849  -4213428.72945  24445083.561    24445103.114
       207.000         143.000
  23793676.093    10505085.67349   8175869.29045  23793677.270    23793698.324
       209.000         132.000
  23629607.915    -5014274.57649  -3885674.02045  23629607.783    23629622.486
       211.000         146.000
  22290926.330   -15567448.61849 -12111099.32746  22290924.914    22290937.361
       230.000         180.000
  20590857.540    -7400826.42749  -5750409.15448  20590857.286    20590866.828
       246.000         215.000
  21557630.068   -10051294.23049  -7810039.84247  21557630.103    21557639.665
       239.000         193.000
  23224572.244    11600849.17749   9033485.68245  23224572.463    23224586.448
       216.000         156.000
 01  9 24 18 36 30.0000000  0  9G29G22G30G21G 1G20G25G11G14
  21570744.231     5679139.18649   4423663.70547  21570744.225    21570755.416
       235.000         193.000
  24056011.088    -5426931.86549  -3417519.00745  24056009.012    24056031.245
       212.000         144.000
  24449843.140    -5395853.01248  -4193939.92445  24449839.408    24449865.497
       183.000         140.000
  23810311.725    10592504.37849   8243987.39344  23810310.535    23810333.467
       209.000         131.000
  23617101.691    -5079994.39249  -3936884.04145  23617100.861    23617116.232
       216.000         151.000
  22275198.538   -15650099.54549 -12175502.58346  22275197.741    22275208.315
       231.000         180.000
  20594495.033    -7381711.32549  -5735514.29548  20594494.848    20594504.342
       246.000         215.000
  21562273.914   -10026891.33049  -7791024.69447  21562273.978    21562283.647
       240.000         193.000
  23238157.327    11672238.17949   9089113.27145  23238158.158    23238172.101
       217.000         156.000
 01  9 24 18 37  0.0000000  0  9G29G22G30G21G 1G20G25G11G14
  21579494.182     5725119.84249   4459492.68847  21579494.627    21579505.748
       235.000         193.000
  24036847.732    -5527636.19549  -3495989.65645  24036845.768    24036866.523
       211.000         142.000
  24454699.725    -5370318.46649  -4174043.02645  24454699.794    24454717.983
       199.000         136.000
  23826995.900    10680178.45449   8312304.50744  23826996.024    23827015.469
       210.000         131.000
  23604619.526    -5145588.69049  -3987996.37945  23604619.152    23604634.812
       217.000         156.000
  22259499.268   -15732599.44949 -12239788.16846  22259499.229    22259509.543
       232.000         180.000
  20598223.583    -7362117.73749  -5720246.58848  20598223.487    20598233.023
       246.000         215.000
  21567019.202   -10001955.20449  -7771594.03447  21567019.213    21567028.901
       239.000         193.000
  23251748.517    11743658.56149   9144765.31245  23251748.230    23251763.018
       216.000         156.000
 01  9 24 18 37 30.0000000  0  9G29G22G30G21G 1G20G25G11G14
  21588263.087     5771200.75949   4495399.81447  21588263.196    21588274.172
       235.000         193.000
  24017678.679    -5628368.79749  -3574482.33145  24017677.848    24017697.886
       210.000         141.000
  24459659.375    -5344262.94449  -4153739.99045  24459660.759    24459680.428
       208.000         140.000
  23843727.942    10768104.21649   8380817.70944  23843727.771    23843749.099
       211.000         130.000
  23592160.600    -5211060.33049  -4039013.08745  23592159.898    23592175.684
       215.000         157.000
  22243828.597   -15814948.91549 -12303956.52346  22243827.878    22243839.141
       231.000         181.000
  20602042.446    -7342049.53649  -5704609.04748  20602042.333    20602051.651
       246.000         215.000
  21571865.159    -9976489.63549  -7751750.82847  21571865.268    21571875.471
       239.000         193.000
  23265344.580    11815107.29449   9200439.45645  23265345.047    23265359.770
       218.000         157.000
 01  9 24 18 38  0.0000000  0  9G29G22G30G21G 1G20G25G11G14
  21597050.974     5817380.63949   4531384.03547  21597051.103    21597062.083
       235.000         192.000
  23998504.472    -5729127.45749  -3652995.33145  23998502.702    23998524.687
       208.000         142.000
  24464717.377    -5317687.48449  -4133031.89745  24464718.888    24464739.041
       211.000         146.000
  23860507.611    10856280.07249   8449525.78545  23860509.223    23860529.789
       213.000         132.000
  23579724.804    -5276410.22549  -4089934.92345  23579724.357    23579739.230
       212.000         156.000
  22228186.880   -15897146.68549 -12368006.67246  22228185.218    22228197.258
       230.000         180.000
  20605951.215    -7321509.12949  -5688603.56048  20605951.057    20605960.521
       247.000         215.000
  21576811.474    -9950496.58049  -7731496.59647  21576811.424    21576821.904
       239.000         193.000
  23278946.489    11886583.36849   9256134.87545  23278947.170    23278961.723
       220.000         158.000
 01  9 24 18 38 30.0000000  0  9G29G22G30G21G 1G20G25G11G14
  21605858.043     5863661.59549   4567447.02447  21605858.136    21605869.366
       235.000         192.000
  23979326.282    -5829906.82449  -3731524.47745  23979325.009    23979345.889
       208.000         142.000
  24469873.827    -5290590.07549  -4111917.12545  24469873.399    24469892.580
       202.000         146.000
  23877335.042    10944707.47049   8518429.87145  23877335.764    23877357.051
       213.000         136.000
  23567312.483    -5341636.22849  -4140760.22245  23567312.109    23567327.212
       212.000         153.000
  22212574.864   -15979188.15749 -12431935.05246  22212573.735    22212584.615
       230.000         180.000
  20609950.079    -7300495.30149  -5672229.17348  20609949.929    20609959.367
       247.000         215.000
  21581858.389    -9923974.97949  -7710830.49047  21581858.460    21581868.482
       240.000         193.000
  23292553.848    11958088.65049   9311853.06645  23292553.011    23292567.287
       217.000         159.000
 01  9 24 18 39  0.0000000  0  9G29G22G30G21G 1G20G25G11G14
  21614683.600     5910039.71649   4603585.72347  21614683.816    21614694.622
       236.000         192.000
  23960144.556    -5930707.14549  -3810069.95845  23960143.658    23960164.106
       210.000         144.000
  24475127.657    -5262974.30049  -4090398.43745  24475128.311    24475148.734
       196.000         143.000
  23894209.569    11033382.34849   8587526.81045  23894210.242    23894232.586
       213.000         138.000
  23554923.188    -5406741.69449  -4191491.57845  23554923.156    23554937.894
       215.000         153.000
  22196992.186   -16061074.62449 -12495742.63146  22196991.543    22197002.564
       231.000         181.000
  20614038.205    -7279012.41049  -5655489.28748  20614038.048    20614047.467
       247.000         215.000
  21587005.100    -9896929.45549  -7689756.12547  21587005.057    21587015.249
       239.000         193.000
  23306165.570    12029619.49749   9367591.20545  23306165.357    23306180.276
       218.000         159.000
 01  9 24 18 39 30.0000000  0  9G29G22G30G21G 1G20G25G11G14
  21623528.331     5956518.50649   4639802.86147  21623528.773    21623539.429
       236.000         192.000
  23940960.163    -6031521.68349  -3888626.50845  23940958.529    23940980.176
       212.000         147.000
  24480481.785    -5234837.21049  -4068473.45645  24480482.305    24480502.142
       196.000         139.000
  23911131.592    11122307.01949   8656818.38745  23911132.597    23911154.549
       214.000         139.000
  23542557.588    -5471723.16949  -4242126.36345  23542557.467    23542571.459
       219.000         153.000
  22181440.305   -16142800.40849 -12559425.01146  22181440.258    22181450.773
       231.000         182.000
  20618215.971    -7257058.25549  -5638382.17548  20618215.776    20618225.064
       246.000         214.000
  21592251.910    -9869357.61949  -7668271.63847  21592251.875    21592261.927
       239.000         192.000
  23319783.204    12101179.38349   9423351.95545  23319783.340    23319798.215
       220.000         159.000
 01  9 24 18 40  0.0000000  0  9G29G22G30G21G 1G20G25G11G14
  21632391.477     6003093.74949   4676095.16647  21632391.507    21632403.132
       235.000         192.000
  23921772.957    -6132350.91149  -3967194.49845  23921771.482    23921793.135
       212.000         149.000
  24485934.576    -5206182.52049  -4046145.10345  24485933.671    24485955.082
       200.000         138.000
  23928100.474    11211477.71549   8726301.67245  23928101.510    23928122.113
       214.000         138.000
  23530214.872    -5536584.75149  -4292667.78345  23530214.202    23530228.375
       217.000         153.000
  22165918.757   -16224366.95949 -12622983.28846  22165917.365    22165929.210
       231.000         183.000
  20622482.449    -7234637.80749  -5620911.72248  20622482.363    20622491.715
       246.000         214.000
  21597597.927    -9841264.38749  -7646380.88047  21597597.924    21597607.753
       238.000         191.000
  23333405.551    12172764.21449   9479132.15245  23333405.310    23333419.820
       218.000         160.000
 01  9 24 18 40 30.0000000  0  9G29G22G30G21G 1G20G25G11G14
  21641273.358     6049767.86949   4712464.50847  21641273.368    21641284.210
       235.000         192.000
  23902584.006    -6233189.29949  -4045769.63945  23902581.857    23902603.719
       213.000         150.000
  24491487.377    -5177008.09949  -4023411.82945  24491490.804    24491507.749
       207.000         142.000
  23945116.465    11300896.07149   8795977.94445  23945117.250    23945140.147
       213.000         138.000
  23517895.520    -5601323.45049  -4343113.39045  23517894.800    23517909.516
       215.000         153.000
  22150428.462   -16305769.55149 -12686413.82246  22150428.437    22150438.852
       233.000         183.000
  20626837.883    -7211749.72349  -5603076.87348  20626837.627    20626846.756
       246.000         214.000
  21603043.366    -9812648.71849  -7624083.02247  21603043.564    21603053.276
       238.000         192.000
  23347032.873    12244376.48049   9534933.72245  23347033.635    23347047.482
       218.000         160.000
 01  9 24 18 41  0.0000000  0  9G29G22G30G21G 1G20G25G11G14
  21650173.507     6096538.17549   4748908.79147  21650173.397    21650185.291
       234.000         192.000
  23883393.423    -6334035.94949  -4124351.19445  23883391.602    23883413.115
       215.000         151.000
  24497137.516    -5147316.37048  -4000275.48845  24497135.746    24497159.525
       192.000         141.000
  23962178.812    11390557.98549   8865843.99345  23962180.118    23962201.454
       210.000         139.000
  23505598.874    -5665941.96449  -4393465.33045  23505597.853    23505613.277
       213.000         154.000
  22134969.210   -16387008.30349 -12749716.67946  22134968.140    22134979.970
       232.000         183.000
  20631281.608    -7188397.74249  -5584880.55048  20631281.391    20631291.054
       246.000         214.000
  21608587.548    -9783514.32049  -7601380.96947  21608587.596    21608597.574
       239.000         192.000
  23360665.334    12316013.42649   9590754.50845  23360665.378    23360680.337
       218.000         160.000
 01  9 24 18 41 30.0000000  0  9G29G22G30G21G 1G20G25G11G14
  21659092.059     6143405.87349   4785428.97347  21659092.043    21659103.660
       233.000         191.000
  23864201.924    -6434886.03749  -4202935.42545  23864199.848    23864220.783
       214.000         151.000
  24502886.630    -5117106.82349  -3976735.69345  24502889.603    24502904.133
       203.000         137.000
  23979287.568    11480463.94249   8935900.21145  23979287.385    23979310.100
       210.000         139.000
  23493325.286    -5730438.95349  -4443722.59945  23493324.320    23493340.320
       212.000         154.000
  22119541.768   -16468079.70149 -12812889.12846  22119540.281    22119552.398
       232.000         183.000
  20635813.694    -7164581.43649  -5566322.41348  20635813.444    20635822.923
       247.000         214.000
  21614230.477    -9753861.10949  -7578274.65147  21614230.620    21614240.283
       240.000         193.000
  23374302.625    12387676.36449   9646595.55645  23374302.007    23374317.147
       217.000         160.000
 01  9 24 18 42  0.0000000  0  9G29G22G30G21G 1G20G25G11G14
  21668028.962     6190369.82849   4822024.15847  21668029.156    21668040.696
       233.000         191.000
  23845010.323    -6535737.59449  -4281520.79645  23845009.234    23845028.810
       214.000         151.000
  24508735.076    -5086380.52548  -3952793.06845  24508729.290    24508753.827
       193.000         134.000
  23996442.535    11570612.17049   9006145.20345  23996442.738    23996465.730
       210.000         141.000
  23481074.746    -5794815.61249  -4493886.07745  23481073.601    23481090.171
       210.000         155.000
  22104146.263   -16548982.48749 -12875930.19346  22104145.369    22104157.547
       232.000         184.000
  20640433.761    -7140302.99049  -5547404.17648  20640433.635    20640442.876
       246.000         214.000
  21619971.711    -9723691.17249  -7554765.67147  21619971.555    21619981.204
       239.000         192.000
  23387944.152    12459364.03949   9702455.89845  23387944.153    23387959.284
       217.000         159.000
 01  9 24 18 42 30.0000000  0  9G29G22G30G21G 1G20G25G11G14
  21676984.744     6237431.75649   4858695.68347  21676984.946    21676996.137
       234.000         191.000
  23825819.427    -6636585.17149  -4360103.05745  23825817.959    23825839.078
       213.000         151.000
  24514679.513    -5055135.69949  -3928446.55645  24514681.159    24514700.400
       204.000         139.000
  24013643.680    11661003.88149   9076579.91345  24013643.511    24013666.542
       209.000         143.000
  23468847.483    -5859069.68749  -4543954.04345  23468847.285    23468862.895
       215.000         157.000
  22088783.817   -16629712.13949 -12938836.34846  22088783.074    22088793.935
       231.000         184.000
  20645141.889    -7115561.64349  -5528125.23248  20645141.666    20645151.120
       246.000         214.000
  21625811.373    -9693003.71049  -7530853.43247  21625810.943    21625821.356
       238.000         191.000
  23401591.263    12531078.46749   9758337.08645  23401592.175    23401606.140
       220.000         159.000
 01  9 24 18 43  0.0000000  0  9G29G22G30G21G 1G20G25G11G14
  21685958.646     6284589.31149   4895441.73547  21685958.573    21685969.911
       234.000         191.000
  23806629.514    -6737427.64749  -4438681.33145  23806627.495    23806648.605
       212.000         151.000
  24520723.841    -5023375.13649  -3903698.08345  24520724.106    24520742.210
       203.000         141.000
  24030890.840    11751636.03949   9147201.97745  24030891.290    24030915.029
       205.000         144.000
  23456643.223    -5923203.33149  -4593928.20045  23456642.284    23456658.095
       218.000         158.000
  22073454.439   -16710268.49449 -13001607.46546  22073454.056    22073464.516
       234.000         184.000
  20649937.513    -7090360.83449  -5508488.26748  20649937.266    20649946.878
       246.000         214.000
  21631748.783    -9661802.30649  -7506540.75147  21631748.422    21631758.623
       237.000         191.000
  23415243.109    12602817.43749   9814237.38545  23415242.085    23415257.721
       216.000         160.000
 01  9 24 18 43 30.0000000  0  9G29G22G30G21G 1G20G25G11G14
  21694950.660     6331842.07049   4932261.95947  21694951.028    21694962.034
       234.000         191.000
  23787441.076    -6838262.18549  -4517253.42745  23787440.358    23787459.961
       213.000         151.000
  24526865.197    -4991099.28049  -3878548.09245  24526865.594    24526887.723
       207.000         143.000
  24048183.683    11842508.22049   9218011.06045  24048184.009    24048206.707
       207.000         143.000
  23444461.815    -5987216.84549  -4643808.76345  23444461.567    23444476.596
       221.000         159.000
  22058158.482   -16790649.63249 -13064242.04046  22058158.165    22058169.056
       234.000         186.000
  20654820.194    -7064702.09849  -5488494.48648  20654820.046    20654829.454
       246.000         214.000
  21637783.711    -9630088.70249  -7481828.95747  21637783.694    21637794.085
       238.000         190.000
  23428898.843    12674580.39849   9870156.39345  23428898.651    23428914.408
       218.000         161.000
 01  9 24 18 44  0.0000000  0  9G29G22G30G21G 1G20G25G11G14
  21703960.801     6379190.20649   4969156.50947  21703960.811    21703972.793
       233.000         191.000
  23768254.994    -6939084.99249  -4595816.36945  23768252.681    23768275.161
       212.000         151.000
  24533105.324    -4958308.54649  -3852996.90845  24533105.205    24533125.369
       204.000         143.000
  24065521.873    11933619.26549   9289006.25845  24065522.296    24065544.416
       205.000         142.000
  23432303.352    -6051109.98149  -4693595.48845  23432302.824    23432317.511
       218.000         159.000
  22042896.294   -16870852.96649 -13126738.05846  22042895.521    22042906.819
       233.000         186.000
  20659789.925    -7038586.24449  -5468144.50048  20659789.885    20659799.292
       246.000         214.000
  21643915.942    -9597863.88149  -7456718.77847  21643916.189    21643926.051
       238.000         191.000
  23442559.948    12746367.50649   9926094.16845  23442561.093    23442573.710
       220.000         161.000
 01  9 24 18 44 30.0000000  0  8G29G22G21G 1G20G25G11G14
  21712989.686     6426636.59449   5006127.61147  21712990.110    21713001.737
       233.000         191.000
  23749072.163    -7039889.97049  -4674365.42045  23749069.921    23749091.085
       212.000         153.000
  24082905.660    12024971.05549   9360189.06845  24082906.151    24082928.501
       205.000         141.000
  23420168.210    -6114879.86049  -4743286.17245  23420167.256    23420182.506
       217.000         158.000
  22027668.822   -16950873.24449 -13189091.44146  22027668.013    22027679.295
       233.000         186.000
  20664846.898    -7012011.68549  -5447437.08548  20664846.694    20664856.251
       246.000         214.000
  21650145.886    -9565126.11849  -7431208.89447  21650146.116    21650156.331
       237.000         191.000
  23456226.078    12818181.77049   9982053.13545  23456225.993    23456241.336
       217.000         160.000
 01  9 24 18 45  0.0000000  0  8G29G22G21G 1G20G25G11G14
  21722036.609     6474178.18449   5043172.89547  21722036.737    21722048.411
       234.000         191.000
  23729892.953    -7140676.53749  -4752900.11545  23729891.538    23729911.868
       214.000         154.000
  24100335.037    12116559.71949   9431556.45445  24100335.155    24100358.493
       206.000         142.000
  23408055.924    -6178529.55049  -4792883.17545  23408054.981    23408070.404
       215.000         156.000
  22012476.203   -17030711.03549 -13251302.63746  22012475.101    22012486.330
       233.000         186.000
  20669990.353    -6984982.62449  -5426375.51548  20669990.293    20669999.669
       245.000         214.000
  21656472.488    -9531879.91149  -7405302.83747  21656472.276    21656483.091
       237.000         191.000
  23469896.363    12890020.18049  10038030.92245  23469895.509    23469911.387
       218.000         160.000
 01  9 24 18 45 30.0000000  0  8G29G22G21G 1G20G25G11G14
  21731101.010     6521811.04749   5080289.30947  21731100.812    21731112.434
       233.000         191.000
  23710717.061    -7241445.21749  -4831420.88145  23710715.493    23710736.146
       214.000         154.000
  24117808.455    12208380.88649   9503105.01745  24117808.589    24117832.278
       206.000         142.000
  23395965.871    -6242062.60349  -4842389.28445  23395965.250    23395979.847
       215.000         155.000
  21997317.968   -17110367.67849 -13313372.67846  21997316.695    21997328.457
       233.000         186.000
  20675219.469    -6957503.76049  -5404963.44648  20675219.573    20675228.464
       246.000         214.000
  21662894.821    -9498130.44949  -7379004.61947  21662894.430    21662904.712
       237.000         190.000
  23483570.944    12961879.03249  10094024.62445  23483571.172    23483585.850
       219.000         159.000
 01  9 24 18 46  0.0000000  0  8G29G22G21G 1G20G25G11G14
  21740183.220     6569538.26949   5117479.24447  21740183.384    21740194.904
       232.000         190.000
  23691546.059    -7342189.30649  -4909922.46645  23691544.785    23691564.689
       213.000         155.000
  24135326.561    12300437.36049   9574836.95645  24135325.912    24135349.175
       206.000         142.000
  23383898.696    -6305475.77449  -4891802.03845  23383898.964    23383912.444
       217.000         155.000
  21982195.198   -17189837.54649 -13375297.18146  21982194.803    21982205.498
       234.000         187.000
  20680534.425    -6929573.87549  -5383199.93148  20680534.384    20680543.775
       246.000         214.000
  21669413.325    -9463875.73249  -7352312.72047  21669413.267    21669423.393
       236.000         190.000
  23497250.017    13033761.35049  10150036.60045  23497249.173    23497264.787
       216.000         158.000
 01  9 24 18 46 30.0000000  0  8G29G22G21G 1G20G25G11G14
  21749282.930     6617357.63349   5154740.98547  21749282.295    21749294.855
       233.000         189.000
  23672379.769    -7442907.83449  -4988404.14145  23672378.693    23672398.823
       213.000         154.000
  24152888.986    12392725.67249   9646749.54045  24152889.283    24152912.025
       203.000         142.000
  23371853.983    -6368771.35549  -4941123.16045  23371853.213    23371868.207
       215.000         153.000
  21967108.148   -17269120.64649 -13437076.15147  21967107.538    21967118.258
       234.000         188.000
  20685934.582    -6901196.14649  -5361087.44948  20685934.306    20685944.048
       247.000         214.000
  21676027.217    -9429119.39749  -7325229.95047  21676027.109    21676037.818
       237.000         190.000
  23510932.416    13105664.81549  10206065.09445  23510932.180    23510948.127
       218.000         158.000
 01  9 24 18 47  0.0000000  0  8G29G22G21G 1G20G25G11G14
  21758400.366     6665269.61349   5192074.88647  21758400.393    21758412.043
       233.000         189.000
  23653219.270    -7543596.54749  -5066862.57645  23653217.488    23653237.136
       215.000         154.000
  24170494.994    12485245.10249   9718842.23945  24170495.524    24170518.150
       204.000         142.000
  23359831.731    -6431948.42249  -4990351.95045  23359830.816    23359845.764
       215.000         152.000
  21952057.162   -17348213.82849 -13498707.13246  21952056.338    21952067.344
       235.000         187.000
  20691419.909    -6872370.71649  -5338626.11448  20691419.548    20691429.393
       246.000         214.000
  21682736.451    -9393862.47249  -7297757.10647  21682736.224    21682746.792
       237.000         190.000
  23524619.779    13177590.21449  10262110.63345  23524621.034    23524635.160
       217.000         157.000
 01  9 24 18 47 30.0000000  0  8G29G22G21G 1G20G25G11G14
  21767535.121     6713272.79849   5229479.85947  21767535.039    21767546.964
       233.000         188.000
  23634064.595    -7644253.69849  -5145296.39545  23634061.919    23634082.587
       212.000         153.000
  24188144.805    12577993.30449   9791113.18245  24188145.475    24188167.831
       206.000         143.000
  23347831.815    -6495008.52949  -5039489.59045  23347831.832    23347845.272
       214.000         150.000
  21937042.608   -17427115.98049 -13560189.26647  21937041.712    21937052.718
       234.000         188.000
  20696989.859    -6843100.33249  -5315818.06148  20696989.632    20696999.366
       246.000         214.000
  21689540.471    -9358107.73349  -7269896.35847  21689540.464    21689550.970
       237.000         191.000
  23538310.893    13249536.12449  10318172.16245  23538310.637    23538326.409
       214.000         158.000
 01  9 24 18 48  0.0000000  0  8G29G22G21G 1G20G25G11G14
  21776687.795     6761369.62949   5266957.80447  21776687.793    21776699.377
       233.000         188.000
  23614916.948    -7744873.35849  -5223701.01145  23614914.925    23614934.144
       214.000         152.000
  24205838.422    12670972.12049   9863563.83045  24205837.457    24205861.749
       205.000         144.000
  23335854.457    -6557949.60149  -5088534.50345  23335853.025    23335867.246
       212.000         148.000
  21922065.311   -17505822.31449 -13621518.80847  21922064.740    21922076.003
       236.000         189.000
  20702644.620    -6813384.24249  -5292662.70248  20702644.617    20702653.910
       247.000         214.000
  21696439.432    -9321854.21349  -7241646.96447  21696439.318    21696449.535
       237.000         190.000
  23552005.714    13321504.86749  10374251.51045  23552005.516    23552022.203
       219.000         158.000
 01  9 24 18 48 30.0000000  0  8G29G22G21G 1G20G25G11G14
  21785858.160     6809559.69549   5304508.38647  21785858.234    21785869.235
       232.000         188.000
  23595777.226    -7845452.36949  -5302073.94845  23595775.485    23595794.922
       215.000         151.000
  24223575.605    12764180.63949   9936193.43345  24223575.757    24223599.223
       203.000         144.000
  23323899.689    -6620771.57149  -5137486.55845  23323899.101    23323913.192
       214.000         148.000
  21907125.632   -17584330.67549 -13682694.09747  21907125.303    21907136.000
       235.000         189.000
  20708384.011    -6783223.91249  -5269161.18448  20708383.994    20708393.570
       246.000         214.000
  21703432.817    -9285103.77649  -7213010.36447  21703432.276    21703443.462
       236.000         190.000
  23565705.653    13393496.03949  10430348.30345  23565706.691    23565721.593
       220.000         158.000
 01  9 24 18 49  0.0000000  0  8G29G22G21G 1G20G25G11G14
  21795045.785     6857840.90549   5342129.99747  21795046.154    21795057.456
       232.000         188.000
  23576645.548    -7945989.33249  -5380414.11745  23576644.499    23576663.376
       215.000         151.000
  24241355.827    12857615.24749  10008999.22645  24241355.249    24241380.052
       206.000         144.000
  23311967.336    -6683476.40349  -5186347.32545  23311967.391    23311979.970
       216.000         150.000
  21892223.654   -17662640.78349 -13743714.89447  21892222.440    21892233.866
       235.000         189.000
  20714207.224    -6752622.91949  -5245316.28348  20714206.863    20714216.641
       245.000         214.000
  21710520.168    -9247859.76449  -7183989.16347  21710519.760    21710530.899
       236.000         189.000
  23579409.555    13465507.77049  10486461.13245  23579409.065    23579424.968
       216.000         157.000
 01  9 24 18 49 30.0000000  0  8G29G22G21G 1G20G25G11G14
  21804251.032     6906214.32949   5379823.45047  21804251.371    21804262.879
       233.000         188.000
  23557522.649    -8046479.76749  -5458718.03545  23557521.937    23557540.340
       214.000         151.000
  24259179.466    12951276.56549  10081981.67145  24259179.709    24259203.466
       205.000         143.000
  23300057.560    -6746062.99349  -5235116.00745  23300057.416    23300071.183
       218.000         154.000
  21877360.008   -17740749.07749 -13804578.43747  21877358.850    21877370.229
       234.000         189.000
  20720114.189    -6721581.46749  -5221128.17448  20720113.794    20720123.458
       245.000         213.000
  21717701.292    -9210122.64549  -7154583.69247  21717701.048    21717711.380
       236.000         189.000
  23593116.765    13537541.38149  10542591.03045  23593116.685    23593132.720
       216.000         156.000
 01  9 24 18 50  0.0000000  0  7G29G22G 1G20G25G11G14
  21813473.524     6954678.03949   5417587.26347  21813473.437    21813484.961
       232.000         188.000
  23538408.924    -8146922.27049  -5536984.59345  23538406.480    23538426.247
       216.000         151.000
  23288169.881    -6808533.29249  -5283794.06845  23288169.176    23288183.581
       218.000         155.000
  21862534.949   -17818655.00449 -13865284.29147  21862534.203    21862545.034
       235.000         189.000
  20726104.337    -6690102.85149  -5196599.41848  20726104.247    20726113.704
       246.000         213.000
  21724975.681    -9171895.87349  -7124796.67447  21724975.303    21724986.079
       237.000         189.000
  23606828.451    13609594.49649  10598736.09445  23606828.922    23606844.441
       218.000         156.000
 01  9 24 18 50 30.0000000  0  7G29G22G 1G20G25G11G14
  21822713.169     7003232.56649   5455421.83847  21822713.400    21822725.089
       231.000         188.000
  23519304.917    -8247312.80949  -5615210.65745  23519303.135    23519322.149
       216.000         151.000
  23276304.215    -6870886.72349  -5332381.00645  23276303.091    23276318.676
       214.000         154.000
  21847748.944   -17896355.63549 -13925830.16647  21847748.259    21847759.349
       235.000         189.000
  20732177.687    -6658187.54049  -5171730.37548  20732177.532    20732187.218
       245.000         213.000
  21732343.096    -9133180.58349  -7094629.00647  21732343.182    21732353.961
       236.000         189.000
  23620544.166    13681667.97749  10654897.01645  23620544.098    23620559.358
       214.000         156.000
 01  9 24 18 51  0.0000000  0  7G29G22G 1G20G25G11G14
  21831970.404     7051879.52349   5493328.43447  21831970.541    21831983.181
       232.000         188.000
  23500211.742    -8347646.21149  -5693392.18645  23500210.553    23500228.528
       216.000         151.000
  23264461.109    -6933121.82049  -5380875.75445  23264460.179    23264474.217
       214.000         153.000
  21833002.849   -17973846.83249 -13986212.87047  21833001.917    21833012.867
       235.000         189.000
  20738334.099    -6625835.44249  -5146520.98048  20738333.980    20738343.627
       246.000         213.000
  21739803.474    -9093976.81649  -7064080.73947  21739803.068    21739814.020
       236.000         189.000
  23634262.864    13753763.40749  10711075.05645  23634262.031    23634279.273
       214.000         154.000
 01  9 24 18 51 30.0000000  0  7G29G22G 1G20G25G11G14
  21841245.088     7100617.83049   5531306.21347  21841245.520    21841257.771
       232.000         189.000
  23481130.044    -8447920.04949  -5771527.31045  23481128.673    23481146.911
       218.000         152.000
  23252640.482    -6995239.37249  -5429278.94645  23252638.913    23252653.069
       215.000         151.000
  21818296.825   -18051127.14249 -14046431.23747  21818295.838    21818307.046
       234.000         190.000
  20744573.095    -6593049.28749  -5120973.35748  20744573.021    20744582.674
       245.000         213.000
  21747356.267    -9054287.03649  -7033153.73547  21747355.709    21747367.214
       235.000         188.000
  23647986.241    13825879.91249  10767269.50945  23647987.609    23648001.746
       218.000         154.000
 01  9 24 18 52  0.0000000  0  7G29G22G 1G20G25G11G14
  21850536.853     7149445.86349   5569353.91247  21850536.658    21850548.861
       232.000         189.000
  23462060.048    -8548132.58449  -5849614.65245  23462058.485    23462077.620
       218.000         152.000
  23240841.858    -7057241.11849  -5477591.89345  23240840.491    23240855.886
       216.000         151.000
  21803631.097   -18128195.76849 -14106484.65247  21803630.141    21803641.798
       235.000         190.000
  20750894.253    -6559831.68549  -5095089.54848  20750894.145    20750903.841
       246.000         213.000
  21755000.751    -9014114.68849  -7001850.71147  21755000.656    21755011.817
       235.000         188.000
  23661713.903    13898015.67349  10823478.97845  23661714.026    23661729.529
       214.000         153.000
 01  9 24 18 52 30.0000000  0  7G29G22G 1G20G25G11G14
  21859845.623     7198363.29549   5607471.28347  21859845.784    21859857.783
       232.000         188.000
  23443002.239    -8648280.58249  -5927651.72445  23442999.689    23443019.255
       219.000         152.000
  23229065.261    -7119127.26849  -5525814.75445  23229064.253    23229078.372
       217.000         152.000
  21789006.077   -18205050.53049 -14166371.41847  21789005.246    21789016.627
       235.000         190.000
  20757297.202    -6526184.39549  -5068870.91948  20757297.112    20757306.529
       246.000         213.000
  21762736.795    -8973461.64149  -6970173.10747  21762736.741    21762747.159
       236.000         188.000
  23675444.455    13970170.68449  10879703.45545  23675444.191    23675461.019
       211.000         152.000
 01  9 24 18 53  0.0000000  0  7G29G22G 1G20G25G11G14
  21869171.753     7247372.23449   5645659.96347  21869172.057    21869183.690
       231.000         188.000
  23423957.617    -8748358.67149  -6005634.29445  23423956.692    23423974.536
       220.000         152.000
  23217311.074    -7180895.91049  -5573946.05645  23217310.620    23217324.411
       217.000         153.000
  21774422.587   -18281687.03649 -14226088.10447  21774421.632    21774432.528
       236.000         190.000
  20763782.021    -6492106.83249  -5042317.00448  20763781.833    20763791.308
       245.000         213.000
  21770564.453    -8932327.68449  -6938120.77347  21770564.532    21770575.078
       237.000         189.000
  23689179.186    14042346.90649  10935944.42145  23689179.362    23689195.449
       215.000         151.000
 01  9 24 18 53 30.0000000  0  7G29G22G 1G20G25G11G14
  21878514.740     7296469.08449   5683917.14347  21878515.239    21878527.247
       232.000         188.000
  23404926.443    -8848366.83749  -6083562.40145  23404925.507    23404942.764
       220.000         152.000
  23205578.545    -7242550.34649  -5621988.35745  23205577.433    23205591.272
       214.000         153.000
  21759880.514   -18358106.24349 -14285635.47447  21759879.569    21759890.789
       235.000         190.000
  20770347.719    -6457603.82449  -5015431.58148  20770347.558    20770357.247
       245.000         213.000
  21778482.762    -8890717.80349  -6905697.57747  21778482.800    21778493.217
       236.000         189.000
  23702917.882    14114540.86749  10992199.21245  23702918.341    23702934.566
       213.000         152.000
 01  9 24 18 54  0.0000000  0  7G29G22G 1G20G25G11G14
  21887874.751     7345655.44649   5722244.07846  21887874.580    21887887.213
       232.000         187.000
  23385909.530    -8948300.10349  -6161432.12445  23385908.113    23385926.188
       221.000         152.000
  23193867.989    -7304089.27449  -5669940.65545  23193866.340    23193881.114
       216.000         153.000
  21745380.421   -18434304.13349 -14345010.39347  21745379.387    21745390.162
       235.000         190.000
  20776994.308    -6422675.92049  -4988215.07048  20776994.016    20777003.569
       245.000         213.000
  21786491.490    -8848632.27049  -6872903.75547  21786491.935    21786502.483
       236.000         188.000
  23716659.332    14186753.89949  11048468.90345  23716659.478    23716675.711
       213.000         152.000
 01  9 24 18 54 30.0000000  0  7G29G22G 1G20G25G11G14
  21897252.212     7394933.68949   5760642.60746  21897252.298    21897264.099
       231.000         187.000
  23366907.965    -9048152.60449  -6239238.91645  23366905.468    23366925.222
       221.000         153.000
  23182179.860    -7365510.15649  -5717801.00445  23182179.291    23182193.575
       218.000         154.000
  21730923.344   -18510275.92849 -14404209.13447  21730922.046    21730933.196
       235.000         190.000
  20783721.936    -6387321.80749  -4960666.44948  20783721.419    20783731.254
       245.000         213.000
  21794590.692    -8806070.65349  -6839738.95146  21794590.439    21794601.551
       234.000         187.000
  23730405.098    14258988.70249  11104755.54245  23730405.532    23730421.672
       217.000         152.000
 01  9 24 18 55  0.0000000  0  7G29G22G 1G20G25G11G14
  21906645.985     7444297.91549   5799108.14846  21906646.174    21906657.945
       231.000         187.000
  23347921.257    -9147926.78349  -6316984.67645  23347919.282    23347937.736
       222.000         154.000
  23170513.161    -7426819.10549  -5765574.12045  23170512.448    23170525.755
       217.000         155.000
  21716508.672   -18586025.24449 -14463234.51547  21716507.964    21716518.899
       236.000         190.000
  20790529.321    -6351548.53149  -4932791.20747  20790529.136    20790538.949
       244.000         212.000
  21802779.014    -8763040.42449  -6806209.02246  21802778.670    21802790.432
       234.000         186.000
  23744154.571    14331239.47749  11161054.59945  23744155.093    23744171.068
       215.000         152.000
 01  9 24 18 55 30.0000000  0  7G29G22G 1G20G25G11G14
  21916056.528     7493750.24049   5837642.33846  21916056.480    21916068.691
       231.000         186.000
  23328950.589    -9247617.05649  -6394665.06545  23328948.655    23328966.569
       221.000         155.000
  23158868.131    -7488013.72049  -5813258.13945  23158866.920    23158881.059
       217.000         154.000
  21702137.299   -18661547.22949 -14522082.74947  21702136.334    21702147.627
       236.000         191.000
  20797416.565    -6315355.79149  -4904589.11647  20797416.538    20797426.392
       245.000         212.000
  21811056.718    -8719541.03549  -6772313.51646  21811056.660    21811067.506
       235.000         187.000
  23757906.930    14403508.28549  11217367.73345  23757906.843    23757922.413
       215.000         153.000
 01  9 24 18 56  0.0000000  0  7G29G22G 1G20G25G11G14
  21925484.150     7543292.47949   5876246.58146  21925484.023    21925496.418
       230.000         186.000
  23309996.996    -9347218.08749  -6472275.91845  23309994.786    23310014.084
       222.000         156.000
  23147244.973    -7549092.38649  -5860851.81445  23147244.416    23147257.808
       217.000         153.000
  21687809.976   -18736837.65949 -14580750.54747  21687809.372    21687820.397
       236.000         192.000
  20804383.680    -6278743.67149  -4876060.23747  20804383.805    20804393.554
       246.000         212.000
  21819423.779    -8675572.87049  -6738052.72546  21819424.437    21819434.750
       236.000         187.000
  23771662.974    14475796.97449  11273696.37745  23771663.480    23771679.682
       219.000         154.000
 01  9 24 18 56 30.0000000  0  7G29G22G 1G20G25G11G14
  21934928.361     7592922.47849   5914919.20546  21934928.355    21934940.096
       231.000         186.000
  23291060.556    -9446728.53849  -6549816.17245  23291059.745    23291076.434
       223.000         157.000
  23135643.548    -7610057.23249  -5908356.75645  23135642.208    23135655.847
       217.000         154.000
  21673526.750   -18811896.18849 -14639237.64447  21673525.700    21673537.537
       237.000         192.000
  20811429.992    -6241715.43149  -4847207.10847  20811429.947    20811439.745
       245.000         212.000
  21827879.378    -8631139.56549  -6703429.44747  21827878.974    21827890.251
       236.000         188.000
  23785423.053    14548103.52549  11330038.90345  23785422.844    23785438.594
       220.000         154.000
 01  9 24 18 57  0.0000000  0  7G29G22G 1G20G25G11G14
  21944389.595     7642640.98949   5953660.79646  21944389.745    21944401.516
       231.000         185.000
  23272142.157    -9546144.65149  -6627282.92645  23272140.412    23272158.632
       221.000         157.000
  23124064.011    -7670907.73449  -5955772.60145  23124062.874    23124076.886
       219.000         157.000
  21659288.263   -18886720.08749 -14697541.92347  21659287.657    21659298.326
       237.000         192.000
  20818555.267    -6204272.08349  -4818030.51947  20818554.964    20818564.997
       245.000         212.000
  21836423.015    -8586242.69649  -6668444.92146  21836422.729    21836433.864
       235.000         187.000
  23799186.495    14620428.43649  11386395.75645  23799186.286    23799202.325
       216.000         154.000
 01  9 24 18 57 30.0000000  0  7G29G22G 1G20G25G11G14
  21953867.279     7692445.75849   5992469.61146  21953867.024    21953878.997
       231.000         185.000
  23253241.853    -9645464.62049  -6704674.78145  23253240.626    23253257.126
       219.000         158.000
  23112505.942    -7731645.95349  -6003100.96045  23112505.785    23112518.143
       220.000         159.000
  21645094.539   -18961308.67649 -14755662.84247  21645093.863    21645104.297
       236.000         192.000
  20825758.830    -6166417.30149  -4788533.33247  20825758.767    20825768.722
       245.000         212.000
  21845054.042    -8540885.97549  -6633102.11446  21845053.844    21845065.171
       234.000         186.000
  23812952.245    14692769.77049  11442765.41245  23812952.216    23812969.890
       217.000         154.000
 01  9 24 18 58  0.0000000  0  7G29G22G 1G20G25G11G14
  21963361.890     7742340.08049   6031348.20546  21963361.961    21963374.000
       232.000         185.000
  23234361.090    -9744681.99949  -6781986.69545  23234359.997    23234377.412
       218.000         158.000
  23100969.852    -7792268.78949  -6050339.42445  23100969.202    23100984.236
       222.000         159.000
  21630946.608   -19035656.12149 -14813595.83947  21630945.908    21630956.254
       238.000         193.000
  20833041.008    -6128149.39449  -4758714.22648  20833040.996    20833050.723
       246.000         213.000
  21853772.850    -8495068.37149  -6597400.19946  21853773.278    21853784.285
       234.000         186.000
  23826722.426    14765130.90249  11499150.48545  23826724.022    23826739.422
       218.000         153.000
 01  9 24 18 58 30.0000000  0  7G29G22G 1G20G25G11G14
  21972873.085     7792320.86349   6070294.16646  21972873.027    21972885.782
       231.000         186.000
  23215499.901    -9843796.44549  -6859218.42145  23215498.315    23215515.998
       217.000         158.000
  23089455.019    -7852779.57949  -6097490.60145  23089453.724    23089468.098
       220.000         160.000
  21616844.530   -19109763.26449 -14871341.59247  21616843.461    21616853.986
       238.000         193.000
  20840400.905    -6089473.27549  -4728577.04048  20840401.051    20840410.660
       246.000         213.000
  21862578.597    -8448794.73549  -6561342.93046  21862578.362    21862590.187
       234.000         185.000
  23840496.010    14837508.66949  11555548.50445  23840495.109    23840511.702
       218.000         153.000
 01  9 24 18 59  0.0000000  0  7G29G22G 1G20G25G11G14
  21982400.738     7842389.15149   6109308.30046  21982401.180    21982413.068
       232.000         186.000
  23196659.325    -9942803.50749  -6936366.47845  23196657.048    23196675.322
       217.000         158.000
  23077961.563    -7913177.25949  -6144553.61445  23077960.580    23077974.292
       220.000         159.000
  21602788.653   -19183626.76249 -14928897.50347  21602787.721    21602798.949
       239.000         193.000
  20847838.470    -6050389.22949  -4698121.99048  20847838.722    20847848.043
       247.000         213.000
  21871470.843    -8402066.08049  -6524931.12046  21871471.315    21871482.082
       236.000         185.000
  23854272.550    14909904.10749  11611960.30445  23854271.951    23854289.322
       216.000         155.000
 01  9 24 18 59 30.0000000  0  7G29G22G 1G20G25G11G14
  21991945.373     7892546.01849   6148391.47046  21991946.063    21991958.086
       232.000         186.000
  23177840.004   -10041698.51149  -7013427.24445  23177838.746    23177856.701
       216.000         157.000
  23066489.851    -7973460.71249  -6191527.62245  23066488.183    23066502.904
       219.000         160.000
  21588779.843   -19257242.95049 -14986260.70647  21588778.779    21588790.549
       237.000         194.000
  20855353.469    -6010898.01549  -4667349.66248  20855353.679    20855363.104
       246.000         213.000
  21880449.526    -8354883.17749  -6488165.35646  21880449.740    21880460.597
       235.000         185.000
  23868052.242    14982318.36849  11668386.76945  23868052.421    23868069.707
       217.000         156.000
 01  9 24 19  0  0.0000000  0  7G29G22G 1G20G25G11G14
  22001506.493     7942788.96749   6187541.71246  22001506.594    22001518.386
       231.000         186.000
  23159042.169   -10140480.63349  -7090400.06545  23159041.040    23159058.715
       215.000         157.000
  23055039.487    -8033632.62549  -6238414.72045  23055039.198    23055052.317
       220.000         161.000
  21574818.087   -19330612.08849 -15043431.40347  21574817.265    21574827.925
       237.000         194.000
  20862945.091    -5971003.99649  -4636263.45447  20862945.084    20862954.567
       245.000         212.000
  21889513.727    -8307250.84649  -6451049.37646  21889513.515    21889524.966
       234.000         185.000
  23881835.816    15054748.99849  11724825.95045  23881836.459    23881853.165
       219.000         157.000
 01  9 24 19  0 30.0000000  0  7G29G22G 1G20G25G11G14
  22011083.760     7993117.82549   6226758.90646  22011083.554    22011096.177
       231.000         185.000
  23140266.495   -10239146.48249  -7167282.28845  23140264.798    23140282.801
       214.000         157.000
  23043610.356    -8093693.04149  -6285214.91845  23043609.041    23043624.402
       221.000         161.000
  21560903.853   -19403731.55349 -15100407.54147  21560903.027    21560913.496
       238.000         194.000
  20870613.101    -5930708.40749  -4604864.33247  20870612.905    20870622.649
       246.000         212.000
  21898663.165    -8259170.89349  -6413584.59146  21898662.761    21898673.829
       234.000         185.000
  23895622.441    15127195.83749  11781277.79445  23895621.485    23895638.274
       215.000         158.000
 01  9 24 19  1  0.0000000  0  7G29G22G 1G20G25G11G14
  22020677.608     8043533.34949   6266043.62446  22020677.512    22020690.368
       230.000         185.000
  23121513.607   -10337691.81349  -7244070.61545  23121512.060    23121528.640
       213.000         157.000
  23032202.442    -8153641.43549  -6331927.85745  23032201.069    23032214.932
       221.000         162.000
  21547037.761   -19476598.39149 -15157186.82547  21547036.937    21547047.361
       238.000         194.000
  20878357.308    -5890012.55249  -4573153.31847  20878356.994    20878366.744
       245.000         212.000
  21907897.540    -8210644.57049  -6375771.98146  21907898.078    21907908.875
       235.000         185.000
  23909411.522    15199659.60349  11837742.86645  23909411.549    23909429.005
       219.000         158.000
 01  9 24 19  1 30.0000000  0  7G29G22G 1G20G25G11G14
  22030288.234     8094037.04349   6305397.03746  22030288.828    22030300.751
       231.000         185.000
  23102784.600   -10436111.74849  -7320761.24145  23102783.096    23102801.543
       214.000         157.000
  23020815.985    -8213476.51149  -6378552.47945  23020815.041    23020828.313
       221.000         161.000
  21533220.442   -19549208.70649 -15213766.21647  21533219.472    21533230.571
       239.000         195.000
  20886177.650    -5848916.45749  -4541130.43447  20886177.380    20886187.410
       244.000         212.000
  21917216.635    -8161672.94649  -6337612.39846  21917216.527    21917228.099
       234.000         185.000
  23923204.985    15272141.92849  11894222.34745  23923205.390    23923221.543
       219.000         158.000
 01  9 24 19  2  0.0000000  0  7G29G22G 1G20G25G11G14
  22039914.891     8144624.88949   6344816.02046  22039914.924    22039927.409
       231.000         185.000
  23084079.409   -10534407.07849  -7397354.76945  23084077.246    23084096.189
       215.000         158.000
  23009450.300    -8273202.40349  -6425092.04645  23009449.070    23009462.947
       221.000         161.000
  21519451.610   -19621564.08049 -15270146.95447  21519450.664    21519460.903
       239.000         195.000
  20894072.967    -5807426.24549  -4508800.43747  20894072.834    20894082.385
       245.000         212.000
  21926619.262    -8112262.00549  -6299110.46846  21926619.157    21926630.381
       235.000         184.000
  23937001.219    15344638.64049  11950713.05545  23936999.950    23937017.892
       218.000         157.000
 01  9 24 19  2 30.0000000  0  7G29G22G 1G20G25G11G14
  22049558.118     8195300.15349   6384303.12746  22049557.839    22049570.392
       230.000         185.000
  23065399.202   -10632570.73249  -7473845.70345  23065397.118    23065415.295
       216.000         160.000
  22998106.092    -8332815.89149  -6471544.02345  22998104.474    22998118.915
       221.000         161.000
  21505732.360   -19693658.85849 -15326324.63947  21505731.502    21505742.089
       239.000         195.000
  20902043.704    -5765539.98649  -4476161.83647  20902043.626    20902053.252
       245.000         212.000
  21936105.900    -8062410.18149  -6260265.00446  21936105.760    21936117.336
       235.000         184.000
  23950799.987    15417153.29749  12007217.76545  23950799.906    23950817.178
       216.000         157.000
 01  9 24 19  3  0.0000000  0  7G29G22G 1G20G25G11G14
  22059217.920     8246062.81949   6423858.33646  22059218.051    22059230.918
       230.000         184.000
  23046744.756   -10730599.39249  -7550231.46545  23046743.671    23046760.867
       217.000         161.000
  22986783.299    -8392317.10449  -6517908.53045  22986781.822    22986796.420
       222.000         161.000
  21492063.229   -19765490.35849 -15382297.17447  21492062.105    21492073.007
       240.000         196.000
  20910089.460    -5723259.34649  -4443215.92647  20910089.186    20910099.114
       246.000         212.000
  21945675.920    -8012119.96249  -6221077.94246  21945675.795    21945687.059
       235.000         184.000
  23964602.678    15489685.82149  12063736.37745  23964602.771    23964620.170
       220.000         155.000
 01  9 24 19  3 30.0000000  0  7G29G22G 1G20G25G11G14
  22068894.188     8296910.85449   6463480.08146  22068894.212    22068906.338
       228.000         184.000
  23028116.310   -10828491.49949  -7626510.81945  23028115.138    23028132.246
       218.000         162.000
  22975481.480    -8451708.08249  -6564187.12845  22975481.085    22975495.266
       220.000         162.000
  21478444.239   -19837058.30549 -15438064.33647  21478443.313    21478454.059
       239.000         196.000
  20918209.487    -5680588.27149  -4409965.77947  20918209.335    20918219.221
       245.000         212.000
  21955328.503    -7961395.51049  -6181552.52246  21955328.332    21955340.697
       233.000         184.000
  23978408.275    15562234.16049  12120267.32145  23978406.954    23978424.858
       215.000         153.000
 01  9 24 19  4  0.0000000  0  7G29G22G 1G20G25G11G14
  22078586.515     8347844.18849   6503168.28346  22078586.623    22078599.031
       228.000         183.000
  23009514.389   -10926244.01749  -7702681.40346  23009513.525    23009530.663
       220.000         163.000
  22964200.582    -8510989.29149  -6610380.19445  22964199.625    22964214.125
       222.000         162.000
  21464875.818   -19908360.51149 -15493624.42647  21464874.946    21464885.475
       240.000         196.000
  20926403.453    -5637528.69849  -4376412.90347  20926403.442    20926413.505
       245.000         212.000
  21965063.311    -7910239.14249  -6141690.54746  21965063.313    21965075.073
       234.000         184.000
  23992216.746    15634798.25749  12176810.55445  23992217.374    23992233.254
       214.000         153.000
 01  9 24 19  4 30.0000000  0  7G29G22G 1G20G25G11G14
  22088295.250     8398863.61949   6542923.56446  22088295.701    22088307.876
       230.000         183.000
  22990940.103   -11023852.49149  -7778739.74846  22990938.594    22990955.607
       221.000         164.000
  22952940.838    -8570159.91549  -6656487.10445  22952941.010    22952954.858
       221.000         162.000
  21451358.683   -19979393.62249 -15548974.83047  21451357.694    21451367.938
       239.000         196.000
  20934671.216    -5594081.50049  -4342557.99247  20934671.239    20934681.279
       246.000         212.000
  21974880.139    -7858652.23949  -6101493.09246  21974879.837    21974892.196
       234.000         184.000
  24006028.315    15707378.98049  12233366.73045  24006028.542    24006045.555
       215.000         154.000
 01  9 24 19  5  0.0000000  0  7G29G22G 1G20G25G11G14
  22098020.749     8449970.63949   6582747.10346  22098020.878    22098033.065
       230.000         183.000
  22972394.141   -11121312.01849  -7854682.04246  22972392.354    22972410.086
       223.000         165.000
  22941702.288    -8629218.65649  -6702506.81245  22941702.420    22941715.465
       222.000         162.000
  21437893.405   -20050153.78749 -15604112.56047  21437892.786    21437903.402
       239.000         197.000
  20943012.657    -5550247.30949  -4308401.53847  20943012.634    20943022.727
       246.000         211.000
  21984778.613    -7806635.56649  -6060960.76346  21984778.445    21984790.054
       233.000         184.000
  24019843.724    15779977.80649  12289936.98745  24019844.688    24019862.433
       214.000         154.000
 01  9 24 19  5 30.0000000  0  7G29G22G 1G20G25G11G14
  22107761.948     8501160.38749   6622635.11046  22107761.915    22107774.259
       230.000         183.000
  22953876.148   -11218624.10649  -7930509.42746  22953874.204    22953891.952
       221.000         165.000
  22930484.269    -8688170.45749  -6748443.19546  22930483.527    22930496.963
       222.000         163.000
  21424479.523   -20120643.54249 -15659039.56847  21424478.662    21424489.769
       238.000         197.000
  20951426.602    -5506032.14149  -4273948.20547  20951426.489    20951436.237
       245.000         211.000
  21994757.518    -7754196.04849  -6020098.94046  21994757.097    21994768.928
       233.000         183.000
  24033661.652    15852589.90949  12346517.59345  24033662.062    24033679.115
       213.000         153.000
 01  9 24 19  6  0.0000000  0  7G29G22G 1G20G25G11G14
  22117519.980     8552438.26449   6662591.77846  22117519.740    22117532.191
       229.000         183.000
  22935387.909   -11315779.82249  -8006214.97246  22935386.243    22935403.733
       223.000         166.000
  22919287.625    -8747010.09349  -6794292.18946  22919286.968    22919299.454
       222.000         164.000
  21411118.579   -20190855.09449 -15713749.79647  21411117.872    21411128.178
       239.000         197.000
  20959913.621    -5461432.80449  -4239195.52347  20959913.344    20959923.197
       245.000         211.000
  22004817.591    -7701330.61349  -5978905.20446  22004817.562    22004828.224
       235.000         183.000
  24047482.676    15925220.76649  12403112.86045  24047482.135    24047500.310
       213.000         152.000
 01  9 24 19  6 30.0000000  0  7G29G22G 1G20G25G11G14
  22127293.585     8603799.23449   6702613.19046  22127293.483    22127306.306
       229.000         183.000
  22916929.034   -11412781.00449  -8081800.09646  22916927.571    22916944.483
       224.000         167.000
  22908111.124    -8805742.99549  -6840058.01646  22908110.465    22908123.296
       221.000         163.000
  21397810.138   -20260791.16749 -15768245.37947  21397809.575    21397819.948
       239.000         198.000
  20968472.373    -5416456.23949  -4204148.90147  20968472.059    20968481.952
       244.000         210.000
  22014957.324    -7648046.84249  -5937385.47946  22014957.472    22014968.740
       236.000         184.000
  24061306.600    15997865.29949  12459718.76645  24061307.304    24061325.017
       216.000         153.000
 01  9 24 19  7  0.0000000  0  7G29G22G 1G20G25G11G14
  22137083.906     8655246.67849   6742701.98346  22137083.626    22137096.314
       229.000         183.000
  22898500.999   -11509620.63249  -8157259.34846  22898499.149    22898516.895
       224.000         168.000
  22896955.550    -8864365.61849  -6885737.89845  22896953.899    22896967.427
       221.000         162.000
  21384555.261   -20330445.70649 -15822521.57747  21384554.851    21384565.189
       240.000         198.000
  20977103.202    -5371100.89349  -4168807.12447  20977102.874    20977112.889
       244.000         210.000
  22025176.964    -7594343.40349  -5895538.74346  22025176.887    22025188.350
       234.000         183.000
  24075134.144    16070527.01749  12516338.04445  24075134.691    24075151.557
       212.000         154.000
 01  9 24 19  7 30.0000000  0  7G29G22G 1G20G25G11G14
  22146890.283     8706779.29549   6782857.16146  22146890.167    22146903.134
       229.000         182.000
  22880104.059   -11606296.51249  -8232590.98946  22880101.755    22880120.756
       224.000         168.000
  22885820.650    -8922879.25849  -6931332.86845  22885819.217    22885832.843
       222.000         162.000
  21371354.230   -20399817.69249 -15876577.59947  21371353.550    21371363.818
       239.000         198.000
  20985805.546    -5325369.84849  -4133172.59347  20985805.219    20985815.466
       244.000         210.000
  22035475.659    -7540223.86549  -5853367.80546  22035475.508    22035487.267
       233.000         183.000
  24088964.233    16143204.56149  12572969.65145  24088963.727    24088981.676
       205.000         152.000
 01  9 24 19  8  0.0000000  0  7G29G22G 1G20G25G11G14
  22156713.195     8758398.76549   6823080.00346  22156713.287    22156725.916
       229.000         181.000
  22861739.119   -11702803.86549  -8307791.30846  22861737.219    22861755.243
       225.000         169.000
  22874706.656    -8981282.84849  -6976842.07746  22874705.671    22874718.790
       223.000         163.000
  21358207.606   -20468903.28249 -15930410.46147  21358206.571    21358217.426
       240.000         198.000
  20994579.317    -5279263.52149  -4097245.63547  20994579.545    20994589.021
       244.000         210.000
  22045853.279    -7485689.19649  -5810873.41146  22045852.704    22045864.960
       233.000         182.000
  24102796.916    16215899.33649  12629614.72145  24102797.980    24102814.903
       212.000         151.000
 01  9 24 19  8 30.0000000  0  7G29G22G 1G20G25G11G14
  22166552.424     8810103.69149   6863369.42246  22166552.715    22166565.116
       228.000         181.000
  22843406.614   -11799140.39449  -8382858.53346  22843404.970    22843423.371
       225.000         170.000
  22863613.408    -9039577.67849  -7022266.56046  22863612.241    22863626.373
       223.000         163.000
  21345115.709   -20537701.28949 -15984019.23847  21345114.964    21345125.780
       240.000         198.000
  21003423.985    -5232784.89249  -4061028.57247  21003424.082    21003433.756
       244.000         210.000
  22056309.255    -7430742.90449  -5768058.26646  22056309.465    22056321.356
       233.000         182.000
  24116633.861    16288610.34449  12686272.39845  24116635.021    24116652.953
       213.000         150.000
 01  9 24 19  9  0.0000000  0  7G29G22G 1G20G25G11G14
  22176407.378     8861891.24749   6903723.24246  22176407.163    22176420.285
       230.000         181.000
  22825106.779   -11895305.55049  -8457792.20446  22825105.548    22825122.199
       225.000         170.000
  22852540.313    -9097766.72049  -7067608.62646  22852539.526    22852552.841
       222.000         164.000
  21332078.487   -20606212.05749 -16037404.19647  21332077.980    21332088.513
       240.000         199.000
  21012338.614    -5185938.49149  -4024524.92947  21012338.471    21012348.397
       244.000         210.000
  22066842.658    -7375390.22449  -5724926.44946  22066843.242    22066854.403
       234.000         183.000
  24130473.250    16361334.71449  12742940.51645  24130472.931    24130492.086
       209.000         151.000
 01  9 24 19  9 30.0000000  0  7G29G22G 1G20G25G11G14
  22186279.072     8913766.62349   6944145.49046  22186279.119    22186291.946
       229.000         181.000
  22806841.301   -11991290.60649  -8532585.54946  22806839.793    22806856.847
       226.000         171.000
  22841488.251    -9155844.91749  -7112864.27146  22841487.827    22841500.526
       221.000         165.000
  21319097.307   -20674428.27749 -16090559.62947  21319096.307    21319107.581
       240.000         199.000
  21021323.778    -5138721.14849  -3987732.24647  21021323.730    21021333.642
       243.000         210.000
  22077453.964    -7319628.20449  -5681475.68046  22077453.857    22077465.450
       235.000         183.000
  24144315.714    16434077.60249  12799623.03145  24144316.627    24144334.714
       209.000         151.000
 01  9 24 19 10  0.0000000  0  7G29G22G 1G20G25G11G14
  22196166.994     8965727.85549   6984634.64946  22196166.873    22196179.886
       229.000         181.000
  22788610.314   -12087094.40049  -8607237.65246  22788609.804    22788625.841
       226.000         171.000
  22830456.870    -9213814.59949  -7158035.38046  22830456.574    22830469.048
       225.000         166.000
  21306172.327   -20742349.38949 -16143485.11847  21306171.894    21306182.351
       241.000         199.000
  21030378.777    -5091136.80249  -3950653.57947  21030378.572    21030388.945
       244.000         210.000
  22088142.289    -7263461.38049  -5637709.47346  22088142.267    22088154.032
       234.000         183.000
  24158161.399    16506836.96649  12856318.41845  24158162.812    24158180.066
       210.000         151.000
 01  9 24 19 10 30.0000000  0  7G29G22G 1G20G25G11G14
  22206070.445     9017770.87249   7025187.52046  22206070.697    22206083.791
       229.000         180.000
  22770413.732   -12182717.45349  -8681748.91246  22770412.671    22770429.278
       226.000         171.000
  22819445.497    -9271679.82249  -7203125.07846  22819445.377    22819458.058
       223.000         167.000
  21293303.291   -20809976.82949 -16196181.76447  21293302.583    21293312.946
       241.000         199.000
  21039502.489    -5043191.47249  -3913293.62647  21039502.486    21039512.651
       244.000         210.000
  22098906.368    -7206896.41649  -5593633.01646  22098906.256    22098918.436
       233.000         183.000
  24172009.794    16579608.75849  12913023.47745  24172010.555    24172028.465
       213.000         151.000
 01  9 24 19 11  0.0000000  0  7G29G22G 1G20G25G11G14
  22215990.294     9069899.33249   7065806.98046  22215990.800    22216003.240
       230.000         180.000
  22752252.845   -12278152.72649  -8756113.85746  22752251.154    22752268.678
       227.000         170.000
  22808454.507    -9329437.26949  -7248130.80246  22808453.486    22808467.624
       225.000         167.000
  21280491.150   -20877304.88849 -16248645.12947  21280490.263    21280500.650
       242.000         199.000
  21048695.223    -4994883.83449  -3875651.35947  21048695.232    21048705.236
       246.000         210.000
  22109746.480    -7149931.86849  -5549245.19846  22109746.181    22109758.699
       235.000         183.000
  24185861.458    16652396.94349  12969741.30145  24185861.776    24185880.120
       211.000         150.000
 01  9 24 19 11 30.0000000  0  7G29G22G 1G20G25G11G14
  22225926.444     9122113.44049   7106493.17546  22225926.221    22225939.754
       227.000         180.000
  22734128.382   -12373396.55949  -8830329.64446  22734127.291    22734144.357
       226.000         170.000
  22797484.067    -9387086.91849  -7293052.52846  22797484.080    22797497.589
       224.000         167.000
  21267736.431   -20944331.02949 -16300873.24247  21267735.713    21267745.712
       240.000         199.000
  21057956.705    -4946214.98149  -3837727.63347  21057956.690    21057966.369
       244.000         209.000
  22120662.172    -7092570.00849  -5504547.79746  22120662.554    22120673.589
       233.000         182.000
  24199715.703    16725201.57749  13026471.96745  24199715.246    24199733.491
       208.000         149.000
 01  9 24 19 12  0.0000000  0  7G29G22G 1G20G25G11G14
  22235879.030     9174414.27849   7147246.95146  22235879.571    22235892.082
       228.000         180.000
  22716041.248   -12468444.54349  -8904392.80246  22716039.973    22716056.613
       227.000         170.000
  22786534.428    -9444627.94049  -7337889.61746  22786533.741    22786546.421
       225.000         167.000
  21255039.808   -21011052.07949 -16352863.61347  21255039.203    21255049.508
       240.000         199.000
  21067286.571    -4897186.14149  -3799523.38947  21067286.321    21067296.338
       244.000         209.000
  22131653.147    -7034812.54649  -5459542.12746  22131652.676    22131665.434
       232.000         181.000
  24213573.119    16798023.45749  13083216.06345  24213573.572    24213592.793
       211.000         147.000
 01  9 24 19 12 30.0000000  0  7G29G22G 1G20G25G11G14
  22245847.378     9226797.94549   7188065.26646  22245847.430    22245860.517
       228.000         180.000
  22697991.279   -12563297.15449  -8978303.73846  22697989.919    22698006.258
       226.000         170.000
  22775604.687    -9502064.28949  -7382645.12646  22775604.057    22775616.489
       225.000         167.000
  21242401.093   -21077469.04249 -16404617.04347  21242400.342    21242410.739
       240.000         200.000
  21076683.901    -4847803.03249  -3761043.10147  21076683.945    21076693.753
       243.000         209.000
  22142718.208    -6976665.70949  -5414233.04746  22142718.135    22142730.513
       233.000         181.000
  24227433.877    16870859.10949  13139970.85345  24227434.026    24227452.519
       210.000         145.000
 01  9 24 19 13  0.0000000  0  7G29G22G 1G20G25G11G14
  22255832.169     9279268.02849   7228950.93146  22255832.558    22255845.136
       228.000         180.000
  22679979.843   -12657947.54249  -9052057.08346  22679977.578    22679995.013
       225.000         170.000
  22764695.413    -9559392.82849  -7427316.63346  22764694.700    22764706.505
       226.000         168.000
  21229821.303   -21143576.29249 -16456129.12347  21229820.481    21229830.640
       240.000         200.000
  21086148.945    -4798064.12549  -3722285.55647  21086148.573    21086158.644
       243.000         208.000
  22153857.617    -6918128.54249  -5368619.80946  22153857.404    22153869.174
       234.000         181.000
  24241297.456    16943711.66349  13196738.86245  24241296.879    24241316.143
       208.000         143.000
 01  9 24 19 13 30.0000000  0  7G29G22G 1G20G25G11G14
  22265832.762     9331820.78449   7269901.01646  22265833.334    22265846.232
       228.000         179.000
  22662006.733   -12752395.95049  -9125653.05646  22662005.500    22662021.525
       226.000         170.000
  22753805.980    -9616617.23449  -7471906.99246  22753806.148    22753817.296
       225.000         168.000
  21217300.113   -21209375.18649 -16507400.94347  21217299.079    21217309.522
       240.000         200.000
  21095680.590    -4747974.86849  -3683255.02247  21095680.444    21095690.468
       244.000         208.000
  22165070.117    -6859206.92349  -5322706.99346  22165070.841    22165081.939
       233.000         182.000
  24255163.453    17016577.60949  13253517.31845  24255163.300    24255182.407
       213.000         144.000
 01  9 24 19 14  0.0000000  0  7G29G22G 1G20G25G11G14
  22275849.992     9384460.97549   7310919.21946  22275850.540    22275862.604
       228.000         177.000
  22644073.568   -12846634.17449  -9199085.23646  22644072.095    22644089.552
       223.000         170.000
  22742937.176    -9673733.13149  -7516412.80646  22742936.543    22742949.111
       226.000         168.000
  21204838.862   -21274858.59249 -16558426.92347  21204837.936    21204848.143
       240.000         200.000
  21105279.411    -4697533.06149  -3643949.76747  21105279.349    21105289.315
       244.000         208.000
  22176356.132    -6799898.95449  -5276493.13646  22176356.498    22176368.021
       234.000         182.000
  24269033.151    17089462.01949  13310310.15945  24269033.318    24269052.382
       212.000         146.000
 01  9 24 19 14 30.0000000  0  7G29G22G 1G20G25G11G14
  22285883.345     9437186.04149   7352003.57746  22285883.334    22285895.977
       227.000         176.000
  22626180.428   -12940661.55049  -9272353.11946  22626179.432    22626194.600
       225.000         170.000
  22732088.363    -9730743.47049  -7560836.34546  22732087.803    22732100.134
       224.000         168.000
  21192437.645   -21340026.93149 -16609207.39747  21192436.781    21192447.188
       240.000         200.000
  21114944.512    -4646742.89149  -3604373.07047  21114944.628    21114954.460
       243.000         208.000
  22187714.726    -6740209.88049  -5229982.31946  22187715.154    22187727.030
       234.000         182.000
  24282905.767    17162361.76749  13367114.92645  24282906.933    24282924.365
       212.000         146.000
 01  9 24 19 15  0.0000000  0  7G29G22G 1G20G25G11G14
  22295932.783     9489995.44849   7393153.65246  22295932.977    22295945.971
       226.000         175.000
  22608328.170   -13034474.94549  -9345454.26846  22608326.941    22608342.668
       225.000         171.000
  22721259.521    -9787648.69949  -7605178.00946  22721259.120    22721271.748
       226.000         168.000
  21180096.851   -21404877.94549 -16659740.60647  21180095.795    21180106.430
       239.000         200.000
  21124675.466    -4595606.75449  -3564526.78547  21124675.442    21124685.474
       244.000         208.000
  22199145.336    -6680142.56949  -5183176.78746  22199145.252    22199157.280
       233.000         181.000
  24296781.197    17235276.81549  13423931.63745  24296781.238    24296800.157
       211.000         146.000
 01  9 24 19 15 30.0000000  0  7G29G22G 1G20G25G11G14
  22305998.420     9542890.99049   7434370.84646  22305998.658    22306011.398
       226.000         175.000
  22590517.630   -13128069.56049  -9418384.93746  22590516.091    22590532.182
       226.000         171.000
  22710451.018    -9844447.35549  -7649436.62546  22710451.032    22710463.711
       226.000         169.000
  21167817.158   -21469407.89949 -16710023.63047  21167816.416    21167826.647
       239.000         200.000
  21134472.103    -4544125.21849  -3524411.35247  21134472.089    21134482.159
       243.000         208.000
  22210647.700    -6619698.02649  -5136077.33146  22210647.689    22210659.844
       232.000         180.000
  24310659.589    17308208.88049  13480761.61445  24310660.280    24310680.181
       211.000         146.000
 01  9 24 19 16  0.0000000  0  7G29G22G 1G20G25G11G14
  22316080.283     9595871.69649   7475654.38546  22316079.630    22316094.232
       226.000         176.000
  22572749.331   -13221442.76549  -9491143.07846  22572747.362    22572764.626
       226.000         172.000
  22699662.610    -9901140.50949  -7693613.02146  22699662.011    22699675.391
       224.000         169.000
  21155598.882   -21533615.40949 -16760055.41847  21155598.014    21155608.454
       240.000         201.000
  21144334.038    -4492300.57649  -3484028.57447  21144333.942    21144344.314
       244.000         209.000
  22222221.101    -6558879.81649  -5088686.69346  22222221.626    22222233.475
       232.000         179.000
  24324541.469    17381156.85949  13537603.98345  24324542.799    24324560.672
       214.000         147.000
 01  9 24 19 16 30.0000000  0  7G29G22G 1G20G25G11G14
  22326178.346     9648937.44349   7517004.20146  22326178.438    22326192.240
       226.000         177.000
  22555023.593   -13314591.32649  -9563726.18246  22555021.983    22555038.181
       225.000         172.000
  22688894.017    -9957728.62149  -7737707.58046  22688892.896    22688906.743
       224.000         168.000
  21143442.382   -21597498.08549 -16809834.07447  21143441.640    21143451.813
       239.000         201.000
  21154260.828    -4440135.63449  -3443380.62147  21154260.970    21154270.846
       244.000         209.000
  22233865.127    -6497690.56849  -5041006.92046  22233865.026    22233876.991
       231.000         179.000
  24338426.499    17454120.64049  13594458.64345  24338425.978    24338444.603
       212.000         147.000
 01  9 24 19 17  0.0000000  0  7G29G22G 1G20G25G11G14
  22336292.914     9702089.00049   7558420.86946  22336293.226    22336306.629
       227.000         177.000
  22537341.261   -13407511.45749  -9636131.26746  22537339.475    22537356.193
       224.000         172.000
  22678145.604   -10014211.40949  -7781720.06446  22678144.377    22678158.007
       225.000         169.000
  21131348.248   -21661053.16549 -16859357.46447  21131347.533    21131357.873
       240.000         202.000
  21164252.005    -4387632.17349  -3402468.88847  21164252.063    21164261.921
       244.000         209.000
  22245579.298    -6436132.55049  -4993039.79846  22245578.726    22245590.928
       232.000         178.000
  24352314.120    17527100.66549  13651325.97045  24352313.384    24352332.608
       211.000         146.000
 01  9 24 19 17 30.0000000  0  7G29G22G 1G20G25G11G14
  22346423.853     9755326.03449   7599904.15146  22346423.513    22346436.711
       226.000         177.000
  22519703.072   -13500199.57349  -9708355.55746  22519702.145    22519717.400
       225.000         172.000
  22667417.314   -10070588.85049  -7825650.46446  22667416.874    22667429.410
       225.000         170.000
  21119316.884   -21724278.42549 -16908623.85147  21119316.022    21119326.129
       240.000         202.000
  21174307.310    -4334791.71449  -3361294.56847  21174307.252    21174317.113
       244.000         208.000
  22257363.175    -6374208.24449  -4944787.26046  22257363.268    22257375.736
       232.000         178.000
  24366204.779    17600097.14249  13708206.08845  24366204.658    24366225.152
       212.000         144.000
 01  9 24 19 18  0.0000000  0  7G29G22G 1G20G25G11G14
  22356570.771     9808647.92449   7641453.55146  22356569.749    22356585.006
       226.000         177.000
  22502109.375   -13592653.35849  -9780397.26046  22502107.955    22502123.858
       224.000         172.000
  22656708.753   -10126862.19049  -7869499.74846  22656707.388    22656721.142
       224.000         170.000
  21107348.506   -21787172.50349 -16957632.17147  21107347.557    21107358.214
       240.000         202.000
  21184426.061    -4281617.59949  -3319860.25047  21184425.877    21184435.733
       245.000         208.000
  22269216.158    -6311921.20449  -4896252.04146  22269215.863    22269228.705
       233.000         179.000
  24380098.697    17673109.05249  13765098.25045  24380099.199    24380117.974
       213.000         143.000
 01  9 24 19 18 30.0000000  0  7G29G22G 1G20G25G11G14
  22366733.728     9862054.46349   7683068.91046  22366733.792    22366747.361
       225.000         177.000
  22484561.064   -13684869.55449  -9852253.81846  22484559.873    22484576.142
       225.000         172.000
  22646019.888   -10183031.65049  -7913268.05046  22646018.977    22646032.260
       224.000         170.000
  21095443.644   -21849733.02849 -17006380.58447  21095443.009    21095453.245
       241.000         203.000
  21194607.905    -4228111.77349  -3278167.45347  21194607.698    21194617.854
       244.000         207.000
  22281137.644    -6249274.38049  -4847436.46446  22281138.099    22281149.683
       231.000         179.000
  24393995.760    17746136.41249  13822002.45145  24393995.628    24394015.136
       215.000         141.000
 01  9 24 19 19  0.0000000  0  7G29G22G 1G20G25G11G14
  22376912.835     9915545.64849   7724750.24046  22376912.646    22376926.226
       226.000         176.000
  22467058.664   -13776844.64449  -9923922.49546  22467056.940    22467073.084
       224.000         172.000
  22635350.812   -10239097.31949  -7956955.50946  22635349.873    22635362.640
       226.000         170.000
  21083602.606   -21911957.67149 -17054867.26747  21083601.446    21083612.060
       240.000         202.000
  21204852.454    -4174276.10249  -3236217.62947  21204851.966    21204862.250
       245.000         207.000
  22293127.067    -6186270.34949  -4798342.55446  22293127.249    22293138.746
       233.000         178.000
  24407895.815    17819179.22949  13878918.68345  24407896.555    24407913.280
       215.000         142.000
 01  9 24 19 19 30.0000000  0  7G29G22G 1G20G25G11G14
  22387108.324     9969123.05449   7766498.75146  22387108.377    22387121.150
       225.000         175.000
  22449602.946   -13868574.06949  -9995399.73446  22449601.314    22449617.672
       223.000         172.000
  22624701.744   -10295058.24949  -8000561.36346  22624701.005    22624713.867
       225.000         171.000
  21071826.160   -21973842.90849 -17103089.48147  21071825.149    21071835.507
       240.000         202.000
  21215159.661    -4120111.08349  -3194011.17447  21215159.371    21215169.670
       244.000         207.000
  22305184.164    -6122910.42449  -4748971.32046  22305184.212    22305196.551
       232.000         178.000
  24421798.562    17892238.62649  13935847.88545  24421799.550    24421817.181
       216.000         140.000
 01  9 24 19 20  0.0000000  0  7G29G22G 1G20G25G11G14
  22397320.253    10022785.87449   7808313.81046  22397320.058    22397333.326
       225.000         174.000
  22432194.484   -13960055.11749 -10066683.44146  22432192.366    22432209.228
       225.000         172.000
  22614072.456   -10350915.37949  -8044086.31946  22614071.684    22614085.036
       225.000         172.000
  21060114.609   -22035387.12849 -17151045.96047  21060113.907    21060124.061
       241.000         203.000
  21225529.044    -4065619.83149  -3151550.51547  21225529.042    21225539.106
       244.000         207.000
  22317308.254    -6059198.26249  -4699325.62346  22317308.269    22317320.386
       230.000         177.000
  24435704.734    17965314.25649  13992789.74445  24435704.044    24435723.503
       217.000         137.000
 01  9 24 19 20 30.0000000  0  7G29G22G 1G20G25G11G14
  22407548.083    10076533.18149   7850194.70646  22407548.317    22407560.992
       225.000         173.000
  22414833.881   -14051285.43449 -10137771.77946  22414832.674    22414847.782
       225.000         171.000
  22603462.620   -10406669.86549  -8087531.29646  22603461.429    22603475.338
       225.000         172.000
  21048468.293   -22096589.04349 -17198735.71747  21048467.479    21048477.947
       241.000         204.000
  21235959.913    -4010805.70349  -3108838.26447  21235959.811    21235970.023
       244.000         207.000
  22329498.706    -5995137.32849  -4649408.17346  22329498.520    22329511.248
       231.000         177.000
  24449613.882    18038405.00049  14049743.36445  24449613.575    24449631.515
       215.000         138.000
 01  9 24 19 21  0.0000000  0  7G29G22G 1G20G25G11G14
  22417792.498    10130367.35049   7892143.29846  22417792.825    22417806.183
       224.000         173.000
  22397522.052   -14142259.19249 -10208660.19646  22397520.919    22397535.895
       224.000         172.000
  22592872.788   -10462319.49249  -8130894.54646  22592871.860    22592885.582
       226.000         172.000
  21036887.973   -22157443.71249 -17246154.88547  21036887.426    21036897.260
       241.000         204.000
  21246452.329    -3955668.01449  -3065873.88647  21246452.547    21246462.203
       245.000         207.000
  22341755.506    -5930727.98249  -4599219.23746  22341755.804    22341768.010
       231.000         177.000
  24463525.958    18111513.40949  14106710.72345  24463525.474    24463545.236
       212.000         141.000
 01  9 24 19 21 30.0000000  0  7G29G22G 1G20G25G11G14
  22428053.368    10184287.68749   7934159.02646  22428053.282    22428067.407
       224.000         173.000
  22380259.474   -14232973.97449 -10279346.81846  22380258.030    22380273.859
       224.000         171.000
  22582302.792   -10517865.40649  -8174176.99946  22582302.857    22582315.802
       227.000         172.000
  21025374.053   -22217949.81349 -17293302.44347  21025373.357    21025383.427
       240.000         203.000
  21257005.859    -3900209.39249  -3022659.43647  21257005.931    21257015.894
       244.000         207.000
  22354077.942    -5865973.75949  -4548761.60246  22354077.544    22354090.515
       231.000         176.000
  24477441.135    18184638.54349  14163691.12845  24477442.619    24477460.526
       216.000         142.000
 01  9 24 19 22  0.0000000  0  7G29G22G 1G20G25G11G14
  22438330.345    10238293.31249   7976241.19346  22438330.977    22438344.013
       225.000         173.000
  22363046.621   -14323427.13349 -10349829.57746  22363044.726    22363060.932
       224.000         171.000
  22571752.494   -10573308.40649  -8217379.27546  22571751.751    22571764.598
       227.000         173.000
  21013926.710   -22278105.86249 -17340177.23247  21013926.022    21013936.159
       241.000         204.000
  21267619.853    -3844432.94649  -2979197.32947  21267619.813    21267629.765
       244.000         207.000
  22366465.292    -5800878.50549  -4498038.22246  22366465.478    22366478.252
       231.000         176.000
  24491360.120    18257779.70249  14220683.98645  24491359.734    24491380.074
       212.000         141.000
 01  9 24 19 22 30.0000000  0  7G29G22G 1G20G25G11G14
  22448623.565    10292383.76849   8018389.48346  22448623.781    22448637.322
       223.000         173.000
  22345884.020   -14413616.10349 -10420106.47446  22345882.268    22345898.032
       223.000         171.000
  22561221.364   -10628649.58449  -8260502.18246  22561221.122    22561233.780
       226.000         173.000
  21002546.270   -22337910.28349 -17386778.02447  21002545.270    21002555.703
       241.000         204.000
  21278293.733    -3788341.47149  -2935489.73847  21278293.654    21278303.986
       244.000         207.000
  22378916.868    -5735445.52749  -4447051.64146  22378916.518    22378929.624
       231.000         175.000
  24505281.700    18330936.07449  14277688.71145  24505282.486    24505300.746
       213.000         141.000
 01  9 24 19 23  0.0000000  0  7G29G22G 1G20G25G11G14
  22458932.858    10346559.47749   8060604.18546  22458933.344    22458946.807
       223.000         173.000
  22328772.497   -14503536.90249 -10490174.43246  22328771.613    22328787.103
       224.000         171.000
  22550709.763   -10683888.41849  -8303545.33246  22550708.569    22550722.669
       225.000         172.000
  20991233.309   -22397360.20249 -17433102.58747  20991232.422    20991242.743
       241.000         204.000
  21289027.291    -3731936.27949  -2891537.69747  21289027.453    21289037.410
       244.000         207.000
  22391432.382    -5669676.84249  -4395803.48846  22391432.734    22391445.468
       231.000         175.000
  24519206.369    18404108.58449  14334706.01945  24519206.107    24519225.304
       214.000         144.000
 01  9 24 19 23 30.0000000  0  7G29G22G 1G20G25G11G14
  22469259.035    10400823.58249   8102887.76946  22469259.755    22469272.583
       224.000         173.000
  22311713.255   -14593183.45349 -10560028.68146  22311711.504    22311727.337
       226.000         171.000
  22540218.056   -10739022.31849  -8346506.73246  22540217.932    22540230.192
       226.000         173.000
  20979988.738   -22456450.49249 -17479146.91847  20979987.807    20979998.097
       241.000         204.000
  21299820.690    -3675217.02949  -2847340.93347  21299820.701    21299830.982
       244.000         207.000
  22404011.785    -5603572.64349  -4344293.89046  22404011.815    22404024.813
       230.000         175.000
  24533134.529    18477299.92949  14391738.00745  24533133.475    24533153.355
       210.000         145.000
 01  9 24 19 24  0.0000000  0  7G29G22G 1G20G25G11G14
  22479601.637    10455173.45749   8145238.18946  22479602.025    22479615.076
       224.000         172.000
  22294706.255   -14682554.89749 -10629668.55746  22294705.477    22294719.202
       225.000         172.000
  22529745.867   -10794053.93649  -8389388.44446  22529745.192    22529757.896
       227.000         175.000
  20968812.612   -22515181.34549 -17524911.17947  20968811.904    20968821.933
       241.000         205.000
  21310673.012    -3618187.92349  -2802902.72047  21310672.858    21310683.237
       244.000         206.000
  22416653.935    -5537137.98649  -4292526.80046  22416653.464    22416666.085
       230.000         175.000
  24547065.224    18550507.51149  14448782.63645  24547064.741    24547084.340
       208.000         142.000
 01  9 24 19 24 30.0000000  0  7G29G22G 1G20G25G11G14
  22489960.560    10509610.07749   8187656.20946  22489960.574    22489973.709
       222.000         172.000
  22277752.430   -14771646.86549 -10699090.67246  22277751.074    22277766.491
       226.000         172.000
  22519293.149   -10848982.70549  -8432190.00046  22519291.339    22519305.706
       226.000         174.000
  20957705.464   -22573549.82449 -17570393.07047  20957704.653    20957714.831
       241.000         205.000
  21321583.893    -3560850.67749  -2758224.40347  21321583.625    21321594.186
       243.000         206.000
  22429358.507    -5470374.87649  -4240503.77446  22429358.698    22429371.510
       229.000         175.000
  24560999.755    18623732.41549  14505840.80045  24561000.473    24561017.243
       213.000         141.000
 01  9 24 19 25  0.0000000  0  7G29G22G 1G20G25G11G14
  22500336.058    10564133.32949   8230141.72046  22500336.391    22500349.440
       222.000         171.000
  22260852.418   -14860456.25549 -10768292.60646  22260850.844    22260865.858
       227.000         173.000
  22508859.935   -10903808.87649  -8474911.59446  22508858.621    22508872.215
       226.000         174.000
  20946667.662   -22631553.51649 -17615590.71247  20946666.654    20946677.181
       241.000         205.000
  21332553.086    -3503207.17549  -2713307.44847  21332553.001    21332563.345
       243.000         205.000
  22442125.064    -5403286.40949  -4188227.22746  22442124.820    22442137.822
       231.000         176.000
  24574937.569    18696974.49749  14562912.36445  24574936.685    24574955.604
       209.000         140.000
 01  9 24 19 25 30.0000000  0  7G29G22G 1G20G25G11G14
  22510728.160    10618743.31349   8272694.82146  22510728.247    22510742.316
       222.000         171.000
  22244006.753   -14948979.79549 -10837271.79046  22244005.296    22244020.659
       225.000         173.000
  22498446.319   -10958532.60949  -8517553.38246  22498445.210    22498457.947
       228.000         174.000
  20935699.656   -22689190.46849 -17660502.58147  20935698.627    20935709.058
       241.000         205.000
  21343580.137    -3445259.59049  -2668153.54847  21343580.117    21343590.438
       243.000         205.000
  22454953.256    -5335875.11949  -4135699.13746  22454953.629    22454966.198
       231.000         176.000
  24588878.452    18770233.77549  14619997.30745  24588876.045    24588897.254
       207.000         139.000
 01  9 24 19 26  0.0000000  0  7G29G22G 1G20G25G11G14
  22521136.157    10673437.90349   8315313.87546  22521136.292    22521149.967
       222.000         171.000
  22227215.653   -15037216.26949 -10906027.29846  22227214.610    22227230.079
       225.000         173.000
  22488051.805   -11013156.29949  -8560117.21346  22488051.016    22488063.293
       228.000         175.000
  20924801.455   -22746460.54649 -17705128.56747  20924800.422    20924810.367
       240.000         205.000
  21354664.283    -3387012.17749  -2622766.00847  21354664.164    21354674.697
       243.000         205.000
  22467841.953    -5268146.19949  -4082923.52546  22467841.827    22467854.869
       232.000         176.000
  24602822.529    18843508.10249  14677093.94045  24602821.791    24602841.017
       203.000         135.000
 01  9 24 19 26 30.0000000  0  7G29G22G 1G20G25G11G14
  22531560.943    10728220.44949   8358001.43446  22531560.795    22531574.888
       222.000         171.000
  22210480.545   -15125159.27549 -10974554.14046  22210478.756    22210494.262
       226.000         174.000
  22477676.900   -11067676.82149  -8602600.65846  22477675.859    22477689.221
       228.000         175.000
  20913974.101   -22803358.15049 -17749464.32747  20913973.447    20913983.363
       241.000         205.000
  21365805.765    -3328463.88449  -2577144.02747  21365805.830    21365816.317
       243.000         205.000
  22480791.051    -5200099.21649  -4029900.08546  22480791.272    22480803.840
       232.000         176.000
  24616770.158    18916800.86949  14734204.98045  24616767.177    24616787.477
       204.000         133.000
 01  9 24 19 27  0.0000000  0  7G29G22G 1G20G25G11G14
  22542002.352    10783089.71549   8400756.58046  22542002.656    22542016.425
       222.000         171.000
  22193801.609   -15212806.71749 -11042850.68146  22193800.282    22193815.248
       227.000         174.000
  22467321.162   -11122095.77949  -8645004.94746  22467320.188    22467333.235
       227.000         175.000
  20903217.902   -22859882.27849 -17793509.06847  20903217.314    20903227.265
       241.000         205.000
  21377003.722    -3269618.33549  -2531290.41847  21377003.768    21377014.029
       243.000         205.000
  22493799.744    -5131738.54049  -3976632.22046  22493799.716    22493813.014
       231.000         175.000
  24630720.410    18990110.65349  14791329.29245  24630718.498    24630737.366
       197.000         132.000
 01  9 24 19 27 30.0000000  0  7G29G22G 1G20G25G11G14
  22552460.616    10838047.08349   8443580.38646  22552460.616    22552474.583
       222.000         171.000
  22177179.954   -15300153.73349 -11110913.13246  22177178.679    22177194.240
       226.000         174.000
  22456985.157   -11176411.79849  -8687329.04246  22456984.753    22456997.461
       229.000         176.000
  20892533.480   -22916029.23449 -17837259.90947  20892532.621    20892542.997
       241.000         205.000
  21388258.265    -3210475.65449  -2485205.28047  21388258.217    21388268.458
       243.000         205.000
  22506867.973    -5063065.23849  -3923120.75546  22506868.089    22506880.862
       230.000         174.000
  24644673.636    19063438.87749  14848467.96245  24644673.178    24644693.791
       198.000         134.000
 01  9 24 19 28  0.0000000  0  7G29G22G 1G20G25G11G14
  22562935.396    10893092.34549   8486472.68546  22562936.084    22562950.787
       222.000         172.000
  22160615.886   -15387197.54549 -11178739.32146  22160614.816    22160630.604
       227.000         174.000
  22446668.625   -11230625.63449  -8729573.52146  22446667.815    22446679.699
       228.000         176.000
  20881921.116   -22971797.34349 -17880715.53747  20881920.118    20881930.706
       241.000         206.000
  21399568.768    -3151038.88549  -2438890.97947  21399568.757    21399579.074
       243.000         204.000
  22519995.011    -4994082.87049  -3869368.45846  22519994.772    22520008.116
       230.000         174.000
  24658630.893    19136785.28849  14905620.77145  24658632.834    24658650.421
       199.000         136.000
 01  9 24 19 28 30.0000000  0  7G29G22G 1G20G25G11G14
  22573426.707    10948223.81249   8529432.14146  22573426.962    22573440.861
       221.000         171.000
  22144109.893   -15473936.44549 -11246327.91446  22144108.693    22144123.599
       227.000         175.000
  22436371.021   -11284739.15849  -8771739.83846  22436370.424    22436382.876
       228.000         177.000
  20871380.977   -23027186.04349 -17923875.53147  20871380.104    20871389.965
       240.000         206.000
  21410934.551    -3091311.57149  -2392350.28447  21410934.578    21410944.896
       243.000         204.000
  22533180.054    -4924795.95449  -3815378.85746  22533180.454    22533192.747
       230.000         174.000
  24672592.125    19210148.39449  14962786.57345  24672592.250    24672612.039
       205.000         137.000
 01  9 24 19 29  0.0000000  0  7G29G22G 1G20G25G11G14
  22583934.252    11003441.00049   8572458.40446  22583933.938    22583948.510
       223.000         171.000
  22127662.450   -15560368.00349 -11313677.03546  22127661.299    22127676.568
       227.000         175.000
  22426092.337   -11338753.13049  -8813828.58346  22426091.080    22426104.538
       229.000         177.000
  20860913.298   -23082193.77549 -17966738.66847  20860912.731    20860922.384
       242.000         206.000
  21422355.095    -3031296.48649  -2345585.35347  21422355.082    21422365.678
       242.000         204.000
  22546422.376    -4855207.99349  -3761154.65546  22546422.227    22546435.809
       230.000         174.000
  24686556.171    19283527.40849  15019964.80645  24686555.803    24686575.652
       202.000         137.000
 01  9 24 19 29 30.0000000  0  7G29G22G 1G20G25G11G14
  22594458.832    11058747.44649   8615554.20346  22594459.381    22594472.945
       223.000         170.000
  22111274.754   -15646485.19949 -11380781.20346  22111274.103    22111288.585
       227.000         175.000
  22415833.217   -11392664.23749  -8855837.16646  22415832.062    22415845.823
       228.000         177.000
  20850519.282   -23136814.81249 -18009300.47947  20850518.656    20850528.685
       242.000         206.000
  21433830.617    -2970992.30249  -2298595.15047  21433830.568    21433841.109
       242.000         204.000
  22559722.033    -4785318.30949  -3706695.33946  22559722.309    22559735.087
       230.000         174.000
  24700523.576    19356925.80849  15077158.13845  24700522.654    24700544.266
       198.000         136.000
 01  9 24 19 30  0.0000000  0  7G29G22G 1G20G25G11G14
  22605000.176    11114141.59049   8658718.34546  22604999.784    22605014.370
       222.000         170.000
  22094947.145   -15732286.61649 -11447639.30846  22094945.967    22094960.675
       228.000         175.000
  22405593.260   -11446474.32649  -8897767.04646  22405592.621    22405604.450
       229.000         177.000
  20840198.867   -23191048.72249 -18051560.63347  20840198.421    20840208.281
       241.000         206.000
  21445360.485    -2910402.84349  -2251382.65547  21445360.406    21445371.057
       241.000         204.000
  22573078.194    -4715131.54349  -3652004.53546  22573077.913    22573091.826
       230.000         174.000
  24714494.705    19430342.05049  15134365.35845  24714494.871    24714512.909
       202.000         136.000
 01  9 24 19 30 30.0000000  0  7G29G22G 1G20G25G11G14
  22615558.023    11169622.73649   8701950.27346  22615557.785    22615571.256
       223.000         169.000
  22078680.110   -15817769.66149 -11514249.32846  22078678.989    22078693.991
       227.000         176.000
  22395372.516   -11500184.16849  -8939618.83646  22395371.707    22395384.566
       230.000         177.000
  20829952.427   -23244893.99049 -18093517.94447  20829951.665    20829961.780
       241.000         206.000
  21456944.044    -2849530.81849  -2203949.98147  21456944.057    21456954.509
       241.000         204.000
  22586490.271    -4644651.46849  -3597085.19246  22586490.718    22586504.048
       230.000         175.000
  24728469.450    19503775.29849  15191585.84145  24728468.168    24728487.629
       202.000         136.000
 01  9 24 19 31  0.0000000  0  7G29G22G 1G20G25G11G14
  22626132.453    11225191.33049   8745250.34746  22626133.684    22626145.948
       223.000         169.000
  22062474.377   -15902930.57349 -11580608.33146  22062473.078    22062488.465
       227.000         176.000
  22385170.911   -11553793.73549  -8981392.42346  22385170.069    22385183.033
       228.000         178.000
  20819780.439   -23298347.95549 -18135170.34747  20819779.497    20819789.853
       241.000         207.000
  21468581.092    -2788378.00149  -2156298.51447  21468581.161    21468591.504
       241.000         203.000
  22599957.568    -4573880.54049  -3541939.20946  22599957.545    22599970.657
       229.000         175.000
  24742447.096    19577226.28849  15248820.14245  24742445.901    24742465.008
       198.000         134.000
 01  9 24 19 31 30.0000000  0  7G29G22G 1G20G25G11G14
  22636723.923    11280848.87849   8788619.73546  22636724.122    22636737.969
       222.000         169.000
  22046330.846   -15987764.70749 -11646712.70646  22046330.243    22046344.374
       228.000         177.000
  22374988.547   -11607301.73549  -9023086.88646  22374988.008    22375000.535
       230.000         179.000
  20809683.641   -23351406.98249 -18176515.00547  20809683.026    20809692.852
       241.000         207.000
  21480271.434    -2726945.02049  -2108428.73247  21480271.088    21480281.944
       241.000         203.000
  22613480.100    -4502820.03749  -3486567.57546  22613480.433    22613493.511
       232.000         175.000
  24756427.615    19650696.37749  15306069.32744  24756425.613    24756445.202
       197.000         131.000
 01  9 24 19 32  0.0000000  0  7G29G22G 1G20G25G11G14
  22647332.112    11336595.98649   8832058.90346  22647331.319    22647346.591
       222.000         169.000
  22030250.343   -16072268.41849 -11712559.61446  22030249.286    22030263.948
       229.000         178.000
  22364825.775   -11660707.89349  -9064702.01146  22364825.164    22364838.016
       232.000         180.000
  20799662.444   -23404068.47549 -18217549.89447  20799661.804    20799671.685
       242.000         207.000
  21492014.630    -2665234.14749  -2060342.41347  21492014.438    21492025.274
       242.000         203.000
  22627057.386    -4431472.70549  -3430972.44846  22627058.513    22627071.388
       232.000         175.000
  24770411.943    19724185.83749  15363333.64945  24770411.351    24770430.605
       205.000         133.000
 01  9 24 19 32 30.0000000  0  7G29G22G 1G20G25G11G14
  22657957.108    11392430.40449   8875566.10246  22657957.792    22657971.311
       223.000         169.000
  22014232.764   -16156440.79849 -11778148.33746  22014231.944    22014246.221
       228.000         178.000
  22354681.871   -11714014.78249  -9106239.77746  22354681.536    22354694.105
       231.000         181.000
  20789716.889   -23456332.62849 -18258275.16347  20789716.099    20789726.022
       241.000         207.000
  21503810.021    -2603249.25149  -2012042.56147  21503810.012    21503820.681
       241.000         202.000
  22640688.133    -4359843.70549  -3375157.83246  22640688.098    22640701.492
       231.000         174.000
  24784400.368    19797692.43049  15420611.32945  24784399.487    24784417.922
       201.000         133.000
 01  9 24 19 33  0.0000000  0  7G29G22G 1G20G25G11G14
  22668599.341    11448353.41349   8919142.33346  22668599.555    22668613.551
       224.000         170.000
  21998279.054   -16240277.31149 -11843475.33546  21998277.499    21998292.558
       228.000         179.000
  22344557.103   -11767221.28749  -9147699.32046  22344556.615    22344568.625
       231.000         180.000
  20779847.581   -23508196.07049 -18298688.19047  20779846.721    20779856.574
       241.000         207.000
  21515657.423    -2540991.10149  -1963529.79147  21515657.270    21515668.049
       241.000         202.000
  22654371.960    -4287934.98849  -3319125.25846  22654372.514    22654384.845
       229.000         173.000
  24798391.805    19871217.62649  15477903.46345  24798390.172    24798410.841
       199.000         132.000
 01  9 24 19 33 30.0000000  0  6G29G22G 1G20G25G11
  22679260.802    11504378.79649   8962798.33546  22679261.134    22679274.929
       222.000         169.000
  21982392.522   -16323760.99749 -11908527.40746  21982391.917    21982406.470
       229.000         179.000
  22334453.860   -11820313.96149  -9189070.15346  22334453.729    22334464.951
       232.000         181.000
  20770057.521   -23559643.14649 -18338776.77647  20770056.729    20770066.442
       241.000         207.000
  21527558.893    -2478448.70049  -1914795.53047  21527558.791    21527569.487
       241.000         202.000
  22668111.091    -4215735.83549  -3262866.36946  22668111.493    22668124.731
       229.000         172.000
 01  9 24 19 34  0.0000000  0  6G29G22G 1G20G25G11
  22689938.322    11560489.89249   9006521.12946  22689938.542    22689952.856
       222.000         169.000
  21966570.570   -16406905.60249 -11973315.26646  21966569.680    21966584.304
       228.000         179.000
  22324369.092   -11873309.81949  -9230365.55246  22324368.172    22324380.869
       231.000         181.000
  20760343.937   -23610688.18049 -18378552.08847  20760343.034    20760352.953
       242.000         207.000
  21539510.915    -2415640.85749  -1865854.42947  21539510.857    21539521.463
       242.000         202.000
  22681901.929    -4143265.54649  -3206396.21346  22681901.976    22681915.492
       231.000         172.000
 01  9 24 19 34 30.0000000  0  6G29G22G 1G20G25G11
  22700632.143    11616685.65049   9050309.89346  22700632.319    22700646.474
       221.000         169.000
  21950813.578   -16489708.79449 -12037837.09646  21950812.079    21950827.043
       229.000         179.000
  22314302.480   -11926209.85149  -9271586.26946  22314301.680    22314314.243
       231.000         182.000
  20750707.033   -23661330.15349 -18418013.32347  20750706.025    20750716.280
       241.000         207.000
  21551512.972    -2352570.48849  -1816708.77047  21551512.958    21551523.521
       241.000         202.000
  22695743.519    -4070528.47149  -3149718.17346  22695743.784    22695757.140
       231.000         172.000
 01  9 24 19 35  0.0000000  0  6G29G22G 1G20G25G11
  22711342.526    11672969.30649   9094167.16146  22711343.004    22711356.872
       224.000         169.000
  21935122.644   -16572164.40849 -12102088.07846  21935120.852    21935135.997
       228.000         179.000
  22304254.641   -11979011.23349  -9312730.13046  22304254.106    22304266.364
       232.000         183.000
  20741147.815   -23711563.96549 -18457156.51347  20741147.113    20741157.002
       241.000         208.000
  21563565.027    -2289236.90649  -1767358.01347  21563565.005    21563575.695
       240.000         202.000
  22709635.867    -3997524.53449  -3092832.17546  22709636.496    22709649.762
       230.000         172.000
 01  9 24 19 35 30.0000000  0  6G29G22G 1G20G25G11
  22722069.909    11729340.97449   9138092.99646  22722070.898    22722084.024
       224.000         169.000
  21919498.382   -16654269.21549 -12166065.70746  21919497.018    21919511.577
       229.000         179.000
  22294225.607   -12031713.95449  -9353797.11946  22294224.699    22294237.262
       231.000         182.000
  20731666.751   -23761387.38949 -18495979.91947  20731665.996    20731675.908
       241.000         208.000
  21575666.700    -2225642.22449  -1717803.79847  21575666.637    21575677.640
       240.000         201.000
  22723578.385    -3924256.64749  -3035740.50746  22723578.644    22723591.959
       230.000         172.000
 01  9 24 19 36  0.0000000  0  6G29G22G 1G20G25G11
  22732814.254    11785801.90249   9182088.39446  22732813.691    22732829.046
       222.000         169.000
  21903941.886   -16736018.72349 -12229766.47946  21903940.697    21903954.987
       231.000         181.000
  22284215.479   -12084317.00949  -9394786.42046  22284215.079    22284227.081
       231.000         182.000
  20722264.302   -23810797.31149 -18534481.11047  20722263.366    20722273.359
       241.000         208.000
  21587817.952    -2161787.08049  -1668046.62447  21587817.975    21587828.738
       241.000         201.000
  22737570.841    -3850726.55349  -2978444.50546  22737570.797    22737583.583
       231.000         173.000
 01  9 24 19 36 30.0000000  0  6G29G22G 1G20G25G11
  22743575.455    11842352.66249   9226153.77146  22743576.150    22743589.905
       222.000         168.000
  21888453.724   -16817409.42849 -12293187.66346  21888453.029    21888467.602
       231.000         182.000
  22274224.300   -12136820.44949  -9435698.12646  22274224.076    22274236.476
       232.000         183.000
  20712941.030   -23859791.20949 -18572658.14247  20712940.180    20712950.060
       241.000         208.000
  21600018.482    -2097673.36249  -1618087.97447  21600018.628    21600029.054
       241.000         201.000
  22751612.676    -3776937.03749  -2920946.38146  22751612.536    22751626.376
       229.000         173.000
 01  9 24 19 37  0.0000000  0  6G29G22G 1G20G25G11
  22754353.894    11898993.08849   9270289.02746  22754354.678    22754368.373
       224.000         168.000
  21873034.356   -16898438.27349 -12356326.87546  21873032.844    21873047.374
       231.000         182.000
  22264252.189   -12189224.26449  -9476532.19546  22264251.689    22264264.424
       232.000         183.000
  20703697.286   -23908367.03649 -18610509.39547  20703696.499    20703706.529
       241.000         208.000
  21612267.703    -2033303.45349  -1567929.68147  21612267.698    21612278.255
       240.000         201.000
  22765703.249    -3702891.13149  -2863248.47646  22765704.101    22765717.688
       229.000         173.000
 01  9 24 19 37 30.0000000  0  6G29G22G 1G20G25G11
  22765149.553    11955723.23949   9314494.20246  22765150.025    22765162.556
       223.000         167.000
  21857684.426   -16979102.22049 -12419181.75046  21857682.871    21857697.225
       231.000         183.000
  22254298.870   -12241528.86649  -9517288.97246  22254298.010    22254310.292
       231.000         183.000
  20694533.590   -23956522.57349 -18648033.15647  20694532.863    20694542.938
       241.000         209.000
  21624565.242    -1968679.66149  -1517573.56647  21624565.365    21624576.051
       240.000         200.000
  22779841.999    -3628591.86349  -2805353.15146  22779842.553    22779855.771
       228.000         173.000
 01  9 24 19 38  0.0000000  0  6G29G22G 1G20G25G11
  22775962.495    12012545.23249   9358770.93246  22775962.040    22775976.580
       222.000         167.000
  21842404.899   -17059396.20549 -12481748.34046  21842403.469    21842418.047
       232.000         183.000
  22244364.706   -12293732.39449  -9557966.97846  22244363.817    22244376.695
       233.000         182.000
  20685450.561   -24004254.13749 -18685226.55147  20685449.691    20685459.661
       242.000         209.000
  21636911.146    -1903802.05949  -1467019.67947  21636911.268    21636921.635
       240.000         200.000
  22794028.769    -3554040.48849  -2747261.39346  22794028.972    22794043.324
       229.000         172.000
 01  9 24 19 38 30.0000000  0  6G29G22G 1G20G25G11
  22786792.470    12069457.96949   9403118.36646  22786793.031    22786807.878
       222.000         167.000
  21827196.167   -17139318.12849 -12544025.01446  21827194.817    21827209.318
       232.000         184.000
  22234449.634   -12345836.08449  -9598567.18746  22234448.811    22234461.711
       233.000         183.000
  20676448.358   -24051560.83749 -18722088.88547  20676447.523    20676457.519
       241.000         209.000
  21649304.677    -1838673.93749  -1416270.58447  21649304.448    21649315.495
       240.000         200.000
  22808262.779    -3479241.04349  -2688976.30446  22808262.998    22808277.226
       229.000         171.000
 01  9 24 19 39  0.0000000  0  6G29G22G 1G20G25G11
  22797640.132    12126461.74749   9447536.72946  22797639.942    22797654.577
       222.000         166.000
  21812058.793   -17218864.68249 -12606009.19846  21812057.637    21812072.014
       232.000         184.000
  22224553.556   -12397840.12049  -9639089.76346  22224552.812    22224566.001
       233.000         184.000
  20667527.516   -24098440.24649 -18758618.27047  20667526.899    20667536.619
       241.000         209.000
  21661745.501    -1773297.09249  -1365327.68047  21661745.476    21661756.419
       239.000         200.000
  22822543.585    -3404196.36149  -2630500.14046  22822544.511    22822557.207
       229.000         171.000
 01  9 24 19 39 30.0000000  0  6G29G22G 1G20G25G11
  22808504.793    12183555.55549   9492025.25946  22808504.631    22808519.569
       224.000         166.000
  21796993.337   -17298033.88049 -12667699.32946  21796991.897    21797005.795
       234.000         185.000
  22214676.175   -12449745.57449  -9679535.51046  22214674.981    22214687.927
       233.000         183.000
  20658688.144   -24144891.34849 -18794813.90447  20658687.308    20658697.163
       242.000         209.000
  21674233.112    -1707674.80249  -1314193.51547  21674233.151    21674243.637
       241.000         199.000
  22836870.224    -3328910.41749  -2571835.97546  22836870.124    22836884.566
       230.000         170.000
 01  9 24 19 40  0.0000000  0  6G29G22G 1G20G25G11
  22819387.265    12240742.16649   9536586.10646  22819386.797    22819401.459
       223.000         166.000
  21782000.740   -17376820.11449 -12729091.05046  21781999.366    21782013.680
       233.000         186.000
  22204818.103   -12501550.10149  -9719902.61846  22204817.295    22204829.260
       232.000         183.000
  20649931.085   -24190909.82049 -18830672.42447  20649930.401    20649940.051
       241.000         209.000
  21686767.414    -1641806.99449  -1262868.03847  21686767.233    21686778.367
       239.000         199.000
  22851242.562    -3253383.84649  -2512984.30646  22851242.624    22851256.531
       229.000         170.000
 01  9 24 19 40 30.0000000  0  6G29G22G 1G20G25G11
  22830286.801    12298019.52249   9581217.66846  22830287.011    22830301.419
       222.000         165.000
  21767081.232   -17455222.13449 -12790183.37046  21767079.564    21767094.111
       233.000         186.000
  22194978.761   -12553255.86249  -9760192.75546  22194977.986    22194990.678
       232.000         183.000
  20641256.376   -24236495.66549 -18866193.83447  20641255.786    20641265.305
       242.000         209.000
  21699347.592    -1575697.94949  -1211354.57447  21699347.724    21699358.378
       239.000         199.000
  22865659.698    -3177622.05549  -2453949.33846  22865659.583    22865674.234
       230.000         170.000
 01  9 24 19 41  0.0000000  0  6G29G22G 1G20G25G11
  22841204.244    12355389.80049   9625921.60446  22841204.373    22841219.518
       220.000         164.000
  21752235.750   -17533235.00449 -12850972.47146  21752234.172    21752248.401
       233.000         187.000
  22185158.585   -12604860.88049  -9800404.39646  22185158.045    22185170.474
       232.000         184.000
  20632664.786   -24281644.71449 -18901374.89447  20632664.034    20632673.998
       242.000         210.000
  21711973.664    -1509347.66749  -1159653.14347  21711973.573    21711984.449
       240.000         198.000
  22880121.528    -3101625.48749  -2394731.45146  22880121.541    22880136.265
       227.000         170.000
 01  9 24 19 41 30.0000000  0  6G29G22G 1G20G25G11
  22852138.834    12412850.61649   9670696.10046  22852139.423    22852153.393
       221.000         165.000
  21737464.408   -17610858.12249 -12911457.86247  21737463.217    21737477.288
       234.000         188.000
  22175357.141   -12656367.81949  -9840539.60046  22175356.510    22175368.651
       233.000         184.000
  20624156.245   -24326357.54249 -18936216.03647  20624155.654    20624165.225
       241.000         210.000
  21724644.957    -1442760.24049  -1107766.92247  21724644.512    21724656.223
       238.000         198.000
  22894626.837    -3025399.88249  -2335335.06846  22894626.910    22894641.227
       228.000         170.000
 01  9 24 19 42  0.0000000  0  6G29G22G 1G20G25G11
  22863091.017    12470404.17049   9715542.86446  22863090.932    22863105.520
       220.000         165.000
  21722768.359   -17688086.20349 -12971635.42247  21722766.911    21722781.002
       234.000         189.000
  22165574.749   -12707774.54249  -9880596.71046  22165574.102    22165586.030
       233.000         185.000
  20615731.460   -24370629.96249 -18970714.00747  20615730.527    20615740.526
       241.000         210.000
  21737361.155    -1375936.23449  -1055696.34747  21737360.838    21737372.266
       239.000         198.000
  22909175.518    -2948946.38949  -2275761.10546  22909175.088    22909190.447
       227.000         170.000
 01  9 24 19 42 30.0000000  0  6G29G22G 1G20G25G11
  22874061.016    12528051.13549   9760462.40446  22874060.487    22874075.988
       220.000         165.000
  21708148.088   -17764915.60149 -13031502.34347  21708147.053    21708160.811
       235.000         189.000
  22155811.579   -12759080.48549  -9920575.30546  22155811.451    22155822.586
       234.000         185.000
  20607390.986   -24414459.33049 -19004866.73947  20607390.151    20607400.100
       241.000         210.000
  21750122.120    -1308877.05949  -1003442.52847  21750121.834    21750133.298
       238.000         198.000
  22923767.104    -2872267.63249  -2216011.62546  22923766.647    22923781.858
       229.000         170.000
 01  9 24 19 43  0.0000000  0  6G29G22G 1G20G25G11
  22885048.392    12585790.11349   9805453.65546  22885048.780    22885063.884
       220.000         165.000
  21693604.021   -17841344.85949 -13091057.45447  21693602.921    21693616.189
       235.000         190.000
  22146067.131   -12810287.54949  -9960476.84146  22146066.397    22146078.329
       233.000         185.000
  20599134.820   -24457845.51049 -19038674.12747  20599134.046    20599143.704
       241.000         210.000
  21762927.198    -1241586.27449   -951008.22747  21762927.049    21762938.165
       239.000         197.000
  22938400.815    -2795367.88549  -2156089.93846  22938401.345    22938415.609
       227.000         170.000
 01  9 24 19 43 30.0000000  0  6G29G22G 1G20G25G11
  22896053.664    12643622.50049   9850517.69846  22896053.982    22896069.021
       221.000         165.000
  21679136.871   -17917369.65149 -13150297.40947  21679135.447    21679149.415
       235.000         190.000
  22136341.770   -12861394.55549 -10000300.40946  22136340.650    22136353.411
       232.000         185.000
  20590963.688   -24500784.99749 -19072133.44447  20590962.933    20590972.676
       242.000         210.000
  21775776.184    -1174064.84849   -898394.21347  21775776.184    21775787.108
       238.000         197.000
  22953076.367    -2718248.71749  -2095997.28446  22953077.175    22953091.419
       227.000         170.000
 01  9 24 19 44  0.0000000  0  6G29G22G 1G20G25G11
  22907076.630    12701547.00049   9895653.50046  22907077.350    22907092.073
       220.000         165.000
  21664746.926   -17992988.31749 -13209220.89447  21664745.349    21664759.335
       235.000         190.000
  22126635.132   -12912402.92049 -10040047.12146  22126634.330    22126646.343
       233.000         186.000
  20582877.674   -24543277.29549 -19105244.29947  20582876.961    20582886.679
       241.000         210.000
  21788668.361    -1106316.25249   -845603.18247  21788668.279    21788679.173
       238.000         196.000
  22967792.663    -2640914.93149  -2035737.40546  22967792.908    22967806.311
       228.000         170.000
 01  9 24 19 44 30.0000000  0  6G29G22G 1G20G25G11
  22918117.121    12759565.77249   9940862.78046  22918117.148    22918132.913
       219.000         165.000
  21650435.181   -18068195.96349 -13267824.11047  21650433.557    21650447.530
       234.000         190.000
  22116947.650   -12963310.81949 -10079715.55146  22116947.166    22116959.681
       234.000         187.000
  20574877.469   -24585318.51249 -19138003.66647  20574876.639    20574886.377
       241.000         210.000
  21801603.772    -1038340.49649   -792635.14547  21801603.514    21801614.771
       238.000         196.000
  22982549.598    -2563367.78449  -1975311.27246  22982550.551    22982565.028
       228.000         170.000
 01  9 24 19 45  0.0000000  0  6G29G22G 1G20G25G11
  22929175.772    12817678.40949   9986145.18446  22929175.922    22929190.855
       220.000         164.000
  21636202.131   -18142989.94949 -13326104.99047  21636201.180    21636215.130
       235.000         190.000
  22107279.133   -13014118.87549 -10119306.16946  22107278.200    22107290.660
       234.000         186.000
  20566963.395   -24626907.26649 -19170410.46247  20566962.688    20566972.413
       241.000         210.000
  21814581.846     -970140.43049   -739492.31247  21814581.889    21814592.991
       238.000         196.000
  22997346.384    -2485610.72749  -1914721.57046  22997346.059    22997360.766
       228.000         170.000
 01  9 24 19 45 30.0000000  0  6G29G22G 1G20G25G11
  22940252.294    12875884.57349  10031500.47946  22940252.144    22940267.542
       217.000         163.000
  21622048.494   -18217367.48249 -13384061.36547  21622046.988    21622061.264
       234.000         191.000
  22097629.585   -13064827.42849 -10158819.25046  22097629.110    22097640.581
       233.000         186.000
  20559135.740   -24668041.89549 -19202463.39947  20559134.927    20559144.749
       242.000         211.000
  21827602.177     -901718.53249   -686176.62647  21827601.786    21827613.416
       238.000         195.000
  23012182.640    -2407646.96349  -1853970.80346  23012183.057    23012198.044
       230.000         171.000
 01  9 24 19 46  0.0000000  0  6G29G22G 1G20G25G11
  22951346.558    12934185.34349  10076929.48046  22951347.433    22951361.760
       219.000         163.000
  21607974.766   -18291324.95549 -13441690.43047  21607973.591    21607987.283
       235.000         191.000
  22087999.132   -13115435.85049 -10198254.32146  22087997.887    22088010.533
       233.000         187.000
  20551394.967   -24708719.74049 -19234160.39347  20551394.106    20551403.898
       241.000         211.000
  21840664.455     -833076.18949   -632689.17447  21840664.493    21840675.470
       238.000         195.000
  23027057.816    -2329478.81149  -1793060.77446  23027057.740    23027073.376
       230.000         171.000
 01  9 24 19 46 30.0000000  0  6G29G22G 1G20G25G11
  22962458.994    12992580.29549  10122431.86646  22962459.120    22962474.312
       219.000         163.000
  21593981.439   -18364859.78049 -13498990.15847  21593980.688    21593993.982
       235.000         191.000
  22078387.496   -13165944.61349 -10237611.73046  22078386.241    22078399.078
       232.000         186.000
  20543741.417   -24748939.16249 -19265500.17747  20543740.614    20543750.396
       241.000         211.000
  21853768.201     -764216.02449   -579031.98647  21853768.181    21853779.042
       238.000         195.000
  23041971.161    -2251109.84549  -1731994.24346  23041970.646    23041986.315
       229.000         171.000
 01  9 24 19 47  0.0000000  0  6G29G22G 1G20G25G11
  22973589.290    13051070.63649  10168008.58646  22973588.735    22973604.552
       217.000         163.000
  21580069.370   -18437967.90749 -13555957.40147  21580068.250    21580081.553
       235.000         191.000
  22068794.997   -13216352.77249 -10276890.75646  22068794.531    22068806.367
       234.000         186.000
  20536175.639   -24788697.46649 -19296480.64947  20536174.932    20536184.515
       241.000         210.000
  21866913.264     -695138.64249   -525205.54247  21866913.451    21866924.439
       238.000         195.000
  23056922.242    -2172542.18749  -1670772.89946  23056921.895    23056936.253
       227.000         169.000
